[[{"header":{"parameterUnit":"m.s-1","parameterCategory":1,"la1":30.6,"la2":28.766,"lo1":-90.7593,"lo2":-88.6598,"dy":0.0162,"dx":0.0183,"nx":116,"ny":114,"refTime":"2024-03-06T06:00:00:Z","depth":0,"parameterNumber":2,"parameterNumberName":"U-component_of_WINDS"},"data":[0.0,0.0,0.0,0.0,0.0,0.0,0.0,0.0,0.0,0.0,0.0,0.0,0.0,0.0,0.0,0.0,0.0,0.0,0.0,0.0,0.0,0.0,0.0,0.0,0.0,0.0,0.0,0.0,0.0,0.0,0.0,0.0,0.0,0.0,0.0,0.0,0.0,0.0,0.0,0.0,0.0,0.0,0.0,0.0,0.0,0.0,0.0,0.0,0.0,0.0,0.0,0.0,0.0,0.0,0.0,0.0,0.0,0.0,0.0,0.0,0.0,0.0,0.0,0.0,0.0,0.0,0.0,0.0,0.0,0.0,0.0,0.0,0.0,0.0,0.0,0.0,0.0,0.0,0.0,0.0,0.0,0.0,0.0,0.0,0.0,0.0,0.0,0.0,0.0,0.0,0.0,0.0,0.0,0.0,0.0,0.0,0.0,0.0,0.0,0.0,0.0,0.0,0.0,0.0,0.0,0.0,0.0,0.0,0.0,0.0,0.0,0.0,0.0,0.0,0.0,0.0,0.0,0.0,0.0,0.0,0.0,0.0,0.0,0.0,0.0,0.0,0.0,0.0,0.0,0.0,0.0,0.0,0.0,0.0,0.0,0.0,0.0,0.0,0.0,0.0,0.0,0.0,0.0,0.0,0.0,0.0,0.0,0.0,0.0,0.0,0.0,0.0,0.0,0.0,0.0,0.0,0.0,0.0,0.0,0.0,0.0,0.0,0.0,0.0,0.0,0.0,0.0,0.0,0.0,0.0,0.0,0.0,0.0,0.0,0.0,0.0,0.0,0.0,0.0,0.0,0.0,0.0,0.0,0.0,0.0,0.0,0.0,0.0,0.0,0.0,0.0,0.0,0.0,0.0,0.0,0.0,0.0,0.0,0.0,0.0,0.0,0.0,0.0,0.0,0.0,0.0,0.0,0.0,0.0,0.0,0.0,0.0,0.0,0.0,0.0,0.0,0.0,0.0,0.0,0.0,0.0,0.0,0.0,0.0,0.0,0.0,0.0,0.0,0.0,0.0,0.0,0.0,0.0,0.0,0.0,0.0,0.0,0.0,0.0,0.0,0.0,0.0,0.0,0.0,0.0,0.0,0.0,0.0,0.0,0.0,0.0,0.0,0.0,0.0,0.0,0.0,0.0,0.0,0.0,0.0,0.0,0.0,0.0,0.0,0.0,0.0,0.0,0.0,0.0,0.0,0.0,0.0,0.0,0.0,0.0,0.0,0.0,0.0,0.0,0.0,0.0,0.0,0.0,0.0,0.0,0.0,0.0,0.0,0.0,0.0,0.0,0.0,0.0,0.0,0.0,0.0,0.0,0.0,0.0,0.0,0.0,0.0,0.0,0.0,0.0,0.0,0.0,0.0,0.0,0.0,0.0,0.0,0.0,0.0,0.0,0.0,0.0,0.0,0.0,0.0,0.0,0.0,0.0,0.0,0.0,0.0,0.0,0.0,0.0,0.0,0.0,0.0,0.0,0.0,0.0,0.0,0.0,0.0,0.0,0.0,0.0,0.0,0.0,0.0,0.0,0.0,0.0,0.0,0.0,0.0,0.0,0.0,0.0,0.0,0.0,0.0,0.0,0.0,0.0,0.0,0.0,0.0,0.0,0.0,0.0,0.0,0.0,0.0,0.0,0.0,0.0,0.0,0.0,0.0,0.0,0.0,0.0,0.0,0.0,0.0,0.0,0.0,0.0,0.0,0.0,0.0,0.0,0.0,0.0,0.0,0.0,0.0,0.0,0.0,0.0,0.0,0.0,0.0,0.0,0.0,0.0,0.0,0.0,0.0,0.0,0.0,0.0,0.0,0.0,0.0,0.0,0.0,0.0,0.0,0.0,0.0,0.0,0.0,0.0,0.0,0.0,0.0,0.0,0.0,0.0,0.0,0.0,0.0,0.0,0.0,0.0,0.0,0.0,0.0,0.0,0.0,0.0,0.0,0.0,0.0,0.0,0.0,0.0,0.0,0.0,0.0,0.0,0.0,0.0,0.0,0.0,0.0,0.0,0.0,0.0,0.0,0.0,0.0,0.0,0.0,0.0,0.0,0.0,0.0,0.0,0.0,0.0,0.0,0.0,0.0,0.0,0.0,0.0,0.0,0.0,0.0,0.0,0.0,0.0,0.0,0.0,0.0,0.0,0.0,0.0,0.0,0.0,0.0,0.0,0.0,0.0,0.0,0.0,0.0,0.0,0.0,0.0,0.0,0.0,0.0,0.0,0.0,0.0,0.0,0.0,0.0,0.0,0.0,0.0,0.0,0.0,0.0,0.0,0.0,0.0,0.0,0.0,0.0,0.0,0.0,0.0,0.0,0.0,0.0,0.0,0.0,0.0,0.0,0.0,0.0,0.0,0.0,0.0,0.0,0.0,0.0,0.0,0.0,0.0,0.0,0.0,0.0,0.0,0.0,0.0,0.0,0.0,0.0,0.0,0.0,0.0,0.0,0.0,0.0,0.0,0.0,0.0,0.0,0.0,0.0,0.0,0.0,0.0,0.0,0.0,0.0,0.0,0.0,0.0,0.0,0.0,0.0,0.0,0.0,0.0,0.0,0.0,0.0,0.0,0.0,0.0,0.0,0.0,0.0,0.0,0.0,0.0,0.0,0.0,0.0,0.0,0.0,0.0,0.0,0.0,0.0,0.0,0.0,0.0,0.0,0.0,0.0,0.0,0.0,0.0,0.0,0.0,0.0,0.0,0.0,0.0,0.0,0.0,0.0,0.0,0.0,0.0,0.0,0.0,0.0,0.0,0.0,0.0,0.0,0.0,0.0,0.0,0.0,0.0,0.0,0.0,0.0,0.0,0.0,0.0,0.0,0.0,0.0,0.0,0.0,0.0,0.0,0.0,0.0,0.0,0.0,0.0,0.0,0.0,0.0,0.0,0.0,0.0,0.0,0.0,0.0,0.0,0.0,0.0,0.0,0.0,0.0,0.0,0.0,0.0,0.0,0.0,0.0,0.0,0.0,0.0,0.0,0.0,0.0,0.0,0.0,0.0,0.0,0.0,0.0,0.0,0.0,0.0,0.0,0.0,0.0,0.0,0.0,0.0,0.0,0.0,0.0,0.0,0.0,0.0,0.0,0.0,0.0,0.0,0.0,0.0,0.0,0.0,0.0,0.0,0.0,0.0,0.0,0.0,0.0,0.0,0.0,0.0,0.0,0.0,0.0,0.0,0.0,0.0,0.0,0.0,0.0,0.0,0.0,0.0,0.0,0.0,0.0,0.0,0.0,0.0,0.0,0.0,0.0,0.0,0.0,0.0,0.0,0.0,0.0,0.0,0.0,0.0,0.0,0.0,0.0,0.0,0.0,0.0,0.0,0.0,0.0,0.0,0.0,0.0,0.0,0.0,0.0,0.0,0.0,0.0,0.0,0.0,0.0,0.0,0.0,0.0,0.0,0.0,0.0,0.0,0.0,0.0,0.0,0.0,0.0,0.0,0.0,0.0,0.0,0.0,0.0,0.0,0.0,0.0,0.0,0.0,0.0,0.0,0.0,0.0,0.0,0.0,0.0,0.0,0.0,0.0,0.0,0.0,0.0,0.0,0.0,0.0,0.0,0.0,0.0,0.0,0.0,0.0,0.0,0.0,0.0,0.0,0.0,0.0,0.0,0.0,0.0,0.0,0.0,0.0,0.0,0.0,0.0,0.0,0.0,0.0,0.0,0.0,0.0,0.0,0.0,0.0,0.0,0.0,0.0,0.0,0.0,0.0,0.0,0.0,0.0,0.0,0.0,0.0,0.0,0.0,0.0,0.0,0.0,0.0,0.0,0.0,0.0,0.0,0.0,0.0,0.0,0.0,0.0,0.0,0.0,0.0,0.0,0.0,0.0,0.0,0.0,0.0,0.0,0.0,0.0,0.0,0.0,0.0,0.0,0.0,0.0,0.0,0.0,0.0,0.0,0.0,0.0,0.0,0.0,0.0,0.0,0.0,0.0,0.0,0.0,0.0,0.0,0.0,0.0,0.0,0.0,0.0,0.0,0.0,0.0,0.0,0.0,0.0,0.0,0.0,0.0,0.0,0.0,0.0,0.0,0.0,0.0,0.0,0.0,0.0,0.0,0.0,0.0,0.0,0.0,0.0,0.0,0.0,0.0,0.0,0.0,0.0,0.0,0.0,0.0,0.0,0.0,0.0,0.0,0.0,0.0,0.0,0.0,0.0,0.0,0.0,0.0,0.0,0.0,0.0,0.0,0.0,0.0,0.0,0.0,0.0,0.0,0.0,0.0,0.0,0.0,0.0,0.0,0.0,0.0,0.0,0.0,0.0,0.0,0.0,0.0,0.0,0.0,0.0,0.0,0.0,0.0,0.0,0.0,0.0,0.0,0.0,0.0,0.0,0.0,0.0,0.0,0.0,0.0,0.0,0.0,0.0,0.0,0.0,0.0,0.0,0.0,0.0,0.0,0.0,0.0,0.0,0.0,0.0,0.0,0.0,0.0,0.0,0.0,0.0,0.0,0.0,0.0,0.0,0.0,0.0,0.0,0.0,0.0,0.0,0.0,0.0,0.0,0.0,0.0,0.0,0.0,0.0,0.0,0.0,0.0,0.0,0.0,0.0,0.0,0.0,0.0,0.0,0.0,0.0,0.0,0.0,0.0,0.0,0.0,0.0,0.0,0.0,0.0,0.0,0.0,0.0,0.0,0.0,0.0,0.0,0.0,0.0,0.0,0.0,0.0,0.0,0.0,0.0,0.0,0.0,0.0,0.0,0.0,0.0,0.0,0.0,0.0,0.0,0.0,0.0,0.0,0.0,0.0,0.0,0.0,0.0,0.0,0.0,0.0,0.0,0.0,0.0,0.0,0.0,0.0,0.0,0.0,0.0,0.0,0.0,0.0,0.0,0.0,0.0,0.0,0.0,0.0,0.0,0.0,0.0,0.0,0.0,0.0,0.0,0.0,0.0,0.0,0.0,0.0,0.0,0.0,0.0,0.0,0.0,0.0,0.0,0.0,0.0,0.0,0.0,0.0,0.0,0.0,0.0,0.0,0.0,0.0,0.0,0.0,0.0,0.0,0.0,0.0,0.0,0.0,0.0,0.0,0.0,0.0,0.0,0.0,0.0,0.0,0.0,0.0,0.0,0.0,0.0,0.0,0.0,0.0,0.0,0.0,0.0,0.0,0.0,0.0,0.0,0.0,0.0,0.0,0.0,0.0,0.0,0.0,0.0,0.0,0.0,0.0,0.0,0.0,0.0,0.0,0.0,0.0,0.0,0.0,0.0,0.0,0.0,0.0,0.0,0.0,0.0,0.0,0.0,0.0,0.0,0.0,0.0,0.0,0.0,0.0,0.0,0.0,0.0,0.0,0.0,0.0,0.0,0.0,0.0,0.0,0.0,0.0,0.0,0.0,0.0,0.0,0.0,0.0,0.0,0.0,0.0,0.0,0.0,0.0,0.0,0.0,0.0,0.0,0.0,0.0,0.0,0.0,0.0,0.0,0.0,0.0,0.0,0.0,0.0,0.0,0.0,0.0,0.0,0.0,0.0,0.0,0.0,0.0,0.0,0.0,0.0,0.0,0.0,0.0,0.0,0.0,0.0,0.0,0.0,0.0,0.0,0.0,0.0,0.0,0.0,0.0,0.0,0.0,0.0,0.0,0.0,0.0,0.0,0.0,0.0,0.0,0.0,0.0,0.0,0.0,0.0,0.0,0.0,0.0,0.0,0.0,0.0,0.0,0.0,0.0,0.0,0.0,0.0,0.0,0.0,0.0,0.0,0.0,0.0,0.0,0.0,0.0,0.0,0.0,0.0,0.0,0.0,0.0,0.0,0.0,0.0,0.0,0.0,0.0,0.0,0.0,0.0,0.0,0.0,0.0,0.0,0.0,0.0,0.0,0.0,0.0,0.0,0.0,0.0,0.0,0.0,0.0,0.0,0.0,0.0,0.0,0.0,0.0,0.0,0.0,0.0,0.0,0.0,0.0,0.0,0.0,0.0,0.0,0.0,0.0,0.0,0.0,0.0,0.0,0.0,0.0,0.0,0.0,0.0,0.0,0.0,0.0,0.0,0.0,0.0,0.0,0.0,0.0,0.0,0.0,0.0,0.0,0.0,0.0,0.0,0.0,0.0,0.0,0.0,0.0,0.0,0.0,0.0,0.0,-2.3495,0.0,0.0,0.0,0.0,0.0,0.0,0.0,0.0,0.0,0.0,0.0,0.0,0.0,0.0,0.0,0.0,0.0,0.0,0.0,0.0,0.0,0.0,0.0,0.0,0.0,0.0,0.0,0.0,0.0,0.0,0.0,0.0,0.0,0.0,0.0,0.0,0.0,-3.4397,-3.4397,-3.4685,-3.4848,-3.485,-3.4304,-3.425,-3.4675,0.0,0.0,0.0,0.0,0.0,0.0,0.0,0.0,0.0,0.0,0.0,0.0,0.0,0.0,0.0,0.0,0.0,0.0,0.0,0.0,0.0,0.0,0.0,0.0,0.0,0.0,0.0,0.0,0.0,0.0,0.0,0.0,0.0,0.0,0.0,0.0,0.0,0.0,0.0,0.0,0.0,0.0,0.0,0.0,0.0,0.0,0.0,0.0,0.0,0.0,0.0,0.0,0.0,0.0,0.0,0.0,0.0,0.0,0.0,0.0,0.0,0.0,0.0,0.0,0.0,0.0,0.0,0.0,0.0,0.0,0.0,-2.4349,0.0,0.0,0.0,0.0,0.0,0.0,0.0,0.0,0.0,0.0,0.0,0.0,0.0,0.0,0.0,0.0,0.0,0.0,0.0,0.0,0.0,0.0,0.0,-3.4397,-3.4397,-3.4397,-3.4397,-3.4397,0.0,0.0,0.0,0.0,-3.4397,-3.4397,-3.4397,-3.4397,-3.4366,-3.4318,-3.4968,-3.5404,-3.5697,-3.4655,-3.4703,-3.5665,-3.5036,0.0,0.0,0.0,0.0,0.0,0.0,0.0,0.0,0.0,0.0,0.0,0.0,0.0,0.0,0.0,0.0,0.0,0.0,0.0,0.0,0.0,0.0,0.0,0.0,0.0,0.0,0.0,0.0,0.0,0.0,0.0,0.0,0.0,0.0,0.0,0.0,0.0,0.0,0.0,0.0,0.0,0.0,0.0,0.0,0.0,0.0,0.0,0.0,0.0,0.0,0.0,0.0,0.0,0.0,0.0,0.0,0.0,0.0,0.0,0.0,0.0,0.0,0.0,-2.8787,-2.9152,-2.9565,-2.9565,-2.9565,-2.9465,-2.7702,-2.6392,-2.5544,0.0,0.0,0.0,0.0,0.0,0.0,0.0,0.0,0.0,0.0,0.0,0.0,0.0,0.0,0.0,0.0,0.0,0.0,0.0,0.0,0.0,0.0,-3.4397,-3.4397,-3.4397,-3.4397,-3.4397,-3.4397,-3.4397,-3.4397,-3.4397,-3.4397,-3.4397,-3.4397,-3.4397,-3.4296,-3.4114,-3.4817,-3.5348,-3.5795,-3.633,-3.7224,-3.8227,-3.5155,-3.4364,-3.5253,0.0,0.0,0.0,0.0,0.0,0.0,0.0,0.0,0.0,0.0,0.0,0.0,0.0,0.0,0.0,0.0,0.0,0.0,0.0,0.0,0.0,0.0,0.0,0.0,0.0,0.0,0.0,0.0,0.0,0.0,0.0,0.0,0.0,0.0,0.0,0.0,0.0,0.0,0.0,0.0,0.0,-2.7593,-2.7268,0.0,0.0,0.0,0.0,0.0,0.0,0.0,0.0,0.0,0.0,0.0,0.0,0.0,-2.8273,-2.9093,-3.0111,-3.0596,-3.0734,-3.1368,-3.1721,-3.178,-3.178,-3.178,-3.176,-3.1466,0.0,-2.7342,-2.693,0.0,0.0,0.0,0.0,0.0,0.0,0.0,0.0,0.0,0.0,0.0,0.0,0.0,0.0,0.0,0.0,0.0,0.0,0.0,0.0,0.0,-3.4711,-3.4894,-3.4894,-3.5809,-3.594,-3.4972,-3.5495,-3.5417,-3.445,-3.4397,-3.4397,-3.4397,-3.4021,-3.4292,-3.526,-3.5649,-3.647,-3.7766,-3.7964,-3.8123,-3.8199,-3.6612,-3.5995,-3.6047,-3.5008,0.0,0.0,0.0,0.0,0.0,0.0,0.0,0.0,0.0,0.0,0.0,0.0,0.0,0.0,0.0,0.0,0.0,0.0,0.0,0.0,0.0,0.0,0.0,0.0,0.0,0.0,0.0,0.0,0.0,0.0,0.0,0.0,0.0,0.0,0.0,0.0,0.0,0.0,0.0,-2.809,-2.8338,-2.7434,-2.811,-2.8268,0.0,0.0,0.0,0.0,0.0,0.0,0.0,0.0,0.0,-2.9411,-2.9901,-3.0638,-3.1742,-3.2448,-3.3054,-3.3544,-3.4107,-3.4336,-3.4336,-3.4336,-3.4336,-3.4336,-3.4336,-3.3191,-3.1091,-2.8739,-2.734,-2.6594,0.0,0.0,0.0,0.0,-2.555,-2.5769,0.0,0.0,0.0,0.0,0.0,0.0,0.0,0.0,0.0,0.0,0.0,0.0,-3.4789,-3.5365,-3.5861,-3.6149,-3.722,-3.7351,-3.6044,-3.6332,-3.5992,-3.4685,-3.4476,-3.4397,-3.4397,-3.4074,-3.4711,-3.6354,-3.6827,-3.808,-4.0057,-3.9814,-3.9506,-3.9129,-3.8868,-3.8058,-3.6742,-3.5581,-3.4302,-3.3028,0.0,0.0,0.0,0.0,0.0,0.0,0.0,0.0,0.0,0.0,0.0,0.0,0.0,0.0,0.0,0.0,0.0,0.0,0.0,0.0,0.0,0.0,0.0,0.0,0.0,0.0,0.0,0.0,0.0,0.0,0.0,0.0,0.0,0.0,0.0,0.0,0.0,-2.8578,-2.891,-2.7352,-2.8674,-2.9065,0.0,0.0,0.0,0.0,0.0,0.0,-2.9293,-3.0214,-3.1131,-3.2116,-3.2603,-3.3398,-3.457,-3.5,-3.5605,-3.6367,-3.6582,-3.6719,-3.6836,-3.6719,-3.6621,-3.6504,-3.6504,-3.584,-3.4473,-3.0918,-2.8996,-2.8154,-2.6813,-2.6517,-2.6904,-2.7041,-2.7128,-2.7157,0.0,0.0,0.0,0.0,0.0,0.0,0.0,0.0,0.0,0.0,0.0,-3.4816,-3.5887,-3.6541,-3.7351,-3.8449,-3.8135,-3.7874,-3.7769,-3.6279,-3.5338,-3.526,-3.4711,-3.4397,-3.4397,-3.5011,-3.5794,-3.6749,-3.8136,-3.9882,-4.2069,-4.2038,-4.2283,-4.2675,-4.176,-3.9757,-3.709,-3.5613,-3.4902,-3.4561,-3.2987,0.0,0.0,0.0,0.0,0.0,0.0,0.0,0.0,0.0,0.0,0.0,0.0,0.0,0.0,0.0,0.0,0.0,0.0,0.0,0.0,0.0,0.0,0.0,0.0,0.0,0.0,0.0,0.0,0.0,0.0,0.0,0.0,0.0,0.0,0.0,0.0,0.0,0.0,-2.7166,-2.9278,0.0,0.0,0.0,0.0,-3.0073,-3.031,-3.0811,-3.1662,-3.233,-3.3203,-3.4473,-3.5742,-3.6836,-3.7695,-3.8125,-3.8574,-3.9004,-3.8633,-3.8652,-3.9023,-3.8633,-3.8223,-3.7832,-3.7832,-3.7344,-3.6328,-3.3672,-3.1836,-3.0566,-2.9238,-2.8496,-2.8217,-2.8237,-2.8203,-2.8203,0.0,0.0,0.0,0.0,0.0,0.0,0.0,0.0,-3.4397,-3.4397,-3.5025,-3.607,-3.7612,-3.8972,-4.0383,-4.1899,-4.1847,-4.1222,-3.9904,-3.8356,-3.7078,-3.6171,-3.521,-3.471,-3.467,-3.5096,-3.6187,-3.7932,-3.9338,-4.0865,-4.2482,-4.284,-4.2834,-4.2529,-4.2213,-4.1088,-3.9403,-3.6953,-3.5403,-3.4428,-3.3003,-3.1695,0.0,0.0,0.0,0.0,0.0,0.0,0.0,0.0,0.0,0.0,0.0,0.0,0.0,0.0,0.0,0.0,0.0,0.0,0.0,0.0,0.0,0.0,0.0,0.0,0.0,0.0,0.0,0.0,0.0,0.0,0.0,0.0,0.0,0.0,0.0,0.0,0.0,-3.0364,-3.245,0.0,-3.1025,-3.1522,-3.1979,-3.1939,-3.3018,-3.3936,-3.4505,-3.5555,-3.6562,-3.7559,-3.8047,-3.8711,-3.959,-3.9746,-3.9902,-4.0059,-3.9902,-3.9766,-3.9648,-3.9492,-3.918,-3.875,-3.875,-3.8105,-3.6973,-3.5781,-3.4199,-3.2363,-3.0801,-3.0254,-3.0371,-3.0371,-3.0547,-3.0781,0.0,0.0,0.0,0.0,0.0,0.0,0.0,0.0,-3.4397,-3.4397,-3.5574,-3.7142,-3.9076,-4.101,-4.2866,-4.4645,-4.4225,-4.3127,-4.1335,-3.9272,-3.7534,-3.6238,-3.513,-3.4629,-3.5011,-3.5718,-3.7157,-3.9409,-4.0651,-4.2003,-4.3435,-4.3436,-4.3225,-4.2704,-4.2559,-4.2145,-4.1379,-3.8971,-3.6747,-3.4868,-3.3593,-3.2456,-3.1373,0.0,0.0,0.0,0.0,0.0,0.0,0.0,0.0,0.0,0.0,0.0,0.0,0.0,0.0,0.0,0.0,0.0,0.0,0.0,0.0,0.0,0.0,0.0,0.0,0.0,0.0,0.0,0.0,0.0,0.0,0.0,0.0,0.0,0.0,0.0,-3.3518,-3.2954,-3.5131,-3.5865,-3.3887,-3.4379,-3.4786,-3.4726,-3.5937,-3.6934,-3.75,-3.834,-3.9121,-3.9844,-4.0,-4.0293,-4.0742,-4.0879,-4.0879,-4.0742,-4.0449,-4.0156,-3.9883,-3.959,-3.9199,-3.8769,-3.8926,-3.834,-3.7266,-3.6992,-3.5859,-3.4141,-3.2578,-3.2051,-3.2148,-3.2148,-3.2246,-3.2383,0.0,0.0,0.0,0.0,0.0,0.0,0.0,-3.4031,-3.4371,-3.4397,-3.594,-3.7926,-4.0252,-4.2552,-4.467,-4.6447,-4.5012,-4.331,-4.1957,-3.8804,-3.6482,-3.5405,-3.4342,-3.4341,-3.5466,-3.6861,-3.8731,-4.1022,-4.2037,-4.3405,-4.5018,-4.4046,-4.3615,-4.3594,-4.3139,-4.2932,-4.2849,-4.1503,-3.9144,-3.6184,-3.4833,-3.4186,-3.3819,0.0,0.0,0.0,0.0,0.0,0.0,0.0,0.0,0.0,0.0,0.0,0.0,0.0,0.0,0.0,0.0,0.0,0.0,0.0,0.0,0.0,0.0,0.0,0.0,0.0,0.0,0.0,0.0,0.0,0.0,0.0,0.0,0.0,-3.0776,-3.3618,-3.5431,-3.4749,-3.7084,-3.8008,-3.6348,-3.7305,-3.8223,-3.8652,-3.9062,-3.9687,-4.0527,-4.0566,-4.0762,-4.1172,-4.1582,-4.1582,-4.1172,-4.1582,-4.1562,-4.1152,-4.0312,-3.9902,-3.9863,-3.9004,-3.8379,-3.7988,-3.8398,-3.8086,-3.7305,-3.7285,-3.6777,-3.5898,-3.4609,-3.3848,-3.3476,-3.3457,-3.3184,-3.2812,0.0,0.0,0.0,0.0,0.0,0.0,-3.3535,-3.3718,-3.3953,-3.4345,-3.6645,-3.9285,-4.2004,-4.4382,-4.6813,-4.9374,-4.6499,-4.4092,-4.3097,-3.9103,-3.6095,-3.4536,-3.5501,-3.6407,-3.7059,-3.9427,-4.1065,-4.1943,-4.2491,-4.3201,-4.4012,-4.3705,-4.3615,-4.3594,-4.3491,-4.3428,-4.3366,-4.2663,-4.1462,-3.9827,-3.7184,-3.5102,-3.3434,0.0,0.0,0.0,0.0,0.0,0.0,0.0,0.0,0.0,0.0,0.0,0.0,0.0,0.0,0.0,0.0,0.0,0.0,0.0,0.0,0.0,0.0,0.0,0.0,0.0,0.0,0.0,0.0,0.0,0.0,0.0,-3.255,-3.3856,-3.3679,-3.5656,-3.7381,-3.8193,-3.9873,-4.0605,-3.9824,-4.0351,-4.0781,-4.0898,-4.1308,-4.1641,-4.1894,-4.1621,-4.1504,-4.1621,-4.1445,-4.1289,-4.1172,-4.1289,-4.1133,-4.0703,-4.0469,-4.0195,-3.9883,-3.9648,-3.9277,-3.8848,-3.8652,-3.8086,-3.7266,-3.6973,-3.6523,-3.5957,-3.5293,-3.4961,-3.4766,-3.4121,-3.3613,-3.3203,0.0,0.0,0.0,0.0,0.0,0.0,-3.3117,-3.343,-3.3796,-3.4319,-3.7142,-3.9913,-4.2082,-4.4591,-4.6891,-4.8826,-4.5741,-4.3231,-4.2138,-3.8685,-3.6557,-3.6257,-3.7626,-3.8854,-3.9711,-4.1479,-4.246,-4.2538,-4.2994,-4.3346,-4.3615,-4.3615,-4.3718,-4.3905,-4.3905,-4.4008,-4.4174,-4.3905,-4.3491,-4.2787,-4.0344,-3.8233,-3.6308,-3.4465,-3.372,-3.3451,-3.1567,-3.1505,-3.1946,-2.9808,0.0,0.0,0.0,0.0,0.0,0.0,0.0,0.0,0.0,0.0,0.0,0.0,0.0,0.0,0.0,0.0,0.0,0.0,0.0,0.0,0.0,0.0,0.0,0.0,-3.4882,-3.6591,-3.728,-3.8497,-3.977,-4.0951,-4.2033,-4.25,-4.2246,-4.2461,-4.2598,-4.2598,-4.2832,-4.2891,-4.2715,-4.2305,-4.1973,-4.1816,-4.1562,-4.1348,-4.1172,-4.1348,-4.1211,-4.0781,-4.043,-4.0137,-3.9883,-3.9512,-3.9004,0.0,-3.834,-3.7715,-3.6758,-3.6699,-3.6406,0.0,0.0,0.0,0.0,0.0,-3.3633,-3.3379,0.0,0.0,0.0,0.0,0.0,0.0,-3.2594,-3.3143,-3.3718,-3.4319,-3.7325,-3.986,-4.101,-4.352,-4.5454,-4.6212,-4.3625,-4.1302,-3.9962,-3.7913,-3.748,-3.9272,-4.019,-4.1329,-4.2645,-4.3327,-4.3422,-4.2994,-4.3559,-4.3746,-4.3615,-4.3615,-4.3822,-4.4236,-4.4277,-4.4526,-4.4919,-4.496,-4.5002,-4.4877,-4.3656,-4.2269,-4.0634,-3.7632,-3.7446,-3.8311,-3.5438,-3.3989,-3.3265,-3.1733,0.0,0.0,0.0,0.0,0.0,0.0,0.0,0.0,0.0,0.0,0.0,0.0,0.0,0.0,0.0,0.0,0.0,0.0,0.0,0.0,0.0,0.0,0.0,0.0,-3.7055,-3.8819,-4.1068,-4.1635,-4.2146,-4.2972,-4.3457,-4.3711,-4.3711,-4.3711,-4.3711,-4.3711,-4.3652,-4.3476,-4.3105,0.0,0.0,0.0,0.0,-4.1484,-4.1094,-4.1426,-4.1367,-4.0937,-4.0234,-3.9844,-3.9726,-3.8984,-3.8184,-3.7383,-3.7715,-3.7187,-3.6113,-3.6465,-3.6309,-3.5801,-3.5059,-3.4726,-3.4531,-3.3769,-3.3437,-3.3359,0.0,0.0,0.0,0.0,0.0,0.0,-3.2542,-3.2803,-3.3221,-3.4267,-3.6645,-3.8658,-3.9808,-4.1272,-4.2944,-4.4905,-4.203,-3.9615,-3.8409,-3.7402,-3.7866,-4.0056,-4.1697,-4.265,-4.3098,-4.538,-4.5543,-4.347,-4.4795,-4.4838,-4.3615,-4.3615,-4.3656,-4.376,-4.4132,-4.436,-4.4463,-4.4836,-4.5002,-4.496,-4.4691,-4.3325,-4.1255,-3.9537,-3.8647,-3.8129,-3.6763,-3.7115,-3.7839,-3.5355,-3.4817,-3.4817,-3.252,-3.0719,0.0,0.0,0.0,0.0,0.0,0.0,0.0,0.0,0.0,0.0,0.0,0.0,0.0,0.0,0.0,0.0,0.0,0.0,0.0,-3.767,-3.9675,-4.1502,-4.3436,-4.35,-4.3278,-4.3128,-4.3457,-4.3711,-4.3711,-4.3711,-4.3711,-4.3711,-4.3398,-4.3164,-4.3086,-4.2344,0.0,-4.1797,-4.1133,-4.0723,-4.0644,-4.0391,-4.0039,-3.959,0.0,0.0,-3.8828,-3.9004,-3.8613,-3.7793,-3.7539,-3.709,-3.6523,-3.625,-3.5684,-3.498,-3.5176,-3.4824,-3.418,-3.4004,-3.3516,-3.291,0.0,0.0,0.0,0.0,0.0,0.0,-3.2568,-3.296,-3.3456,-3.4293,-3.6175,-3.7665,-3.824,-3.9337,-4.0461,-4.1611,-3.9625,-3.8366,-3.853,-3.9316,-4.1092,-4.4186,-4.6217,-4.6747,-4.5658,-4.8193,-4.7987,-4.4762,-4.5692,-4.5692,-4.4762,-4.3974,-4.3739,-4.3967,-4.4194,-4.4567,-4.5022,-4.5229,-4.5457,-4.5643,-4.5436,-4.465,-4.3532,-4.2621,-4.1855,-4.1131,-4.0199,-4.0013,-3.9889,-3.7839,-3.6991,-3.6494,-3.4652,-3.2975,-3.1422,0.0,0.0,0.0,0.0,0.0,0.0,0.0,0.0,0.0,0.0,0.0,0.0,0.0,0.0,-3.1091,-3.2457,0.0,-3.7632,-4.0137,-4.19,-4.3319,-4.4521,-4.434,-4.3889,-4.348,-4.3398,-4.3476,-4.3691,-4.3516,-4.3476,-4.3691,-4.332,-4.2988,-4.2754,-4.2148,-4.1699,-4.1484,-4.0859,-4.0527,-4.0527,-4.0098,-3.9785,-3.9551,-3.9551,-3.9316,-3.8887,-3.8887,-3.8418,-3.7598,-3.7383,-3.6816,-3.5996,-3.5547,-3.5098,-3.4707,-3.4726,-3.4336,-3.375,-3.375,-3.3476,-3.3105,0.0,0.0,0.0,0.0,0.0,0.0,0.0,-3.3117,-3.3666,-3.4319,-3.573,-3.6671,-3.6671,-3.7377,-3.7874,-3.7874,-3.7534,-3.797,-3.9576,-4.2009,-4.4956,-4.8531,-5.0512,-5.0588,-4.8756,-5.0783,-5.0175,-4.6714,-4.7224,-4.7069,-4.6274,-4.4833,-4.4224,-4.4443,-4.4526,-4.4981,-4.5685,-4.5768,-4.6016,-4.6225,-4.5954,-4.5809,-4.5768,-4.5291,-4.4795,-4.4174,-4.3263,-4.1917,-4.0468,-3.9454,-3.815,-3.6825,-3.6163,-3.5024,-3.3534,-3.165,-3.1091,0.0,0.0,0.0,0.0,0.0,0.0,0.0,0.0,-2.9083,-2.9684,-3.0594,-3.1961,-3.3496,-3.548,-3.7695,-3.9951,-4.2166,-4.3439,-4.4333,-4.4963,-4.4522,-4.403,-4.3621,-4.3304,-4.3242,-4.3672,-4.3242,-4.3125,-4.3555,-4.3183,-4.2793,-4.2441,-4.1953,-4.1523,-4.1191,-4.0586,-4.0273,-4.0273,-3.9844,-3.9648,-3.9629,-3.9336,-3.916,-3.9062,-3.873,-3.8105,-3.7285,-3.7129,-3.6426,-3.5371,-3.498,-3.4726,-3.4551,-3.4199,-3.3809,-3.3418,-3.3418,-3.332,-3.3184,0.0,0.0,0.0,0.0,0.0,0.0,0.0,0.0,-3.3169,-3.4267,-3.5025,-3.5495,-3.5495,-3.5129,-3.4868,-3.4868,-3.7116,-3.9325,-4.131,-4.4351,-4.7386,-5.0267,-5.1053,-5.1396,-5.1296,-5.2045,-5.151,-4.9712,-5.0616,-4.9892,-4.7768,-4.6459,-4.5538,-4.494,-4.5354,-4.5581,-4.5705,-4.6099,-4.6306,-4.6266,-4.6204,-4.6184,-4.6223,-4.5788,-4.5064,-4.4174,-4.3263,-4.1524,-3.9723,-3.9951,-3.8874,-3.7467,-3.7777,-3.6929,-3.5376,-3.3161,-3.1381,-2.9808,-2.8276,-2.7676,-2.7683,-2.8297,-2.8504,-2.9063,0.0,0.0,-3.252,-3.343,-3.5024,-3.6473,-3.7136,-3.9123,-4.1276,-4.3159,-4.3582,-4.3966,-4.4902,-4.4,-4.322,-4.314,-4.3114,-4.3242,-4.3672,-4.2969,-4.2676,-4.3125,-4.2754,-4.248,-4.2422,-4.168,-4.123,-4.1172,-3.998,-3.9355,-3.9355,-3.8945,-3.873,-3.873,-3.9043,-3.9004,-3.8652,-3.8594,-3.8105,-3.7266,-3.6484,-3.5859,-3.5391,-3.5332,-3.4863,-3.4141,-3.4082,-3.3809,-3.3418,-3.3418,-3.2949,-3.2305,0.0,0.0,0.0,0.0,0.0,0.0,0.0,0.0,0.0,-3.3875,-3.4424,-3.4763,-3.4763,-3.4554,-3.4397,-3.4397,-3.6123,-3.8559,-4.1799,-4.4511,-4.7716,-5.1583,-5.2913,-5.3232,-5.256,-5.4113,-5.4039,-5.2042,-5.2645,-5.2309,-5.1116,-4.9732,-4.8477,-4.7532,-4.8189,-4.7682,-4.6458,-4.7103,-4.6938,-4.6266,-4.6266,-4.6182,-4.5871,-4.5147,-4.3801,-4.2228,-4.1565,-4.022,0.0,-3.8026,-3.7674,-3.7529,-3.7715,-3.6825,-3.5314,-3.3269,-3.1816,-3.0491,-2.9104,-2.8587,-2.8607,-2.9249,-3.0222,-3.1402,-3.2871,-3.3989,-3.4962,-3.5873,-3.7508,-3.8999,-3.9723,-4.1296,-4.2807,0.0,-4.4246,-4.4523,-4.4913,-4.369,-4.2599,-4.2359,-4.1262,-4.1113,-4.2793,-4.2187,-4.1973,-4.2656,-4.207,-4.1699,-4.1699,-4.0898,-4.043,-4.043,-3.9629,-3.9199,-3.9199,-3.8789,-3.8574,-3.8574,-3.875,-3.8613,-3.8203,-3.8203,-3.7734,-3.6875,-3.5742,-3.5312,-3.5332,-3.457,-3.418,-3.4043,-3.3789,-3.3437,-3.3086,-3.332,-3.3047,-3.2539,0.0,0.0,0.0,0.0,0.0,0.0,0.0,0.0,0.0,0.0,-3.4058,-3.4345,-3.4188,-3.4319,-3.4345,-3.4188,-3.5521,-3.7874,-4.1455,-4.4147,-4.7545,-5.1831,-5.3687,-5.4392,-5.3886,-5.577,-5.6062,-5.4616,-5.4645,-5.4434,-5.393,-5.2524,-5.1193,-5.0145,-5.0746,-5.0049,-4.843,-4.903,-4.8784,-4.7927,-4.7284,-4.658,-4.5799,-4.3885,-4.197,-4.0117,-3.9654,-3.8253,-3.6535,-3.5521,-3.5459,-3.5873,-3.6246,-3.5666,-3.4527,-3.2851,-3.1443,-3.0263,-2.9497,-2.9394,-2.9725,-3.0698,-3.2209,-3.3782,-3.4941,-3.6266,-3.7467,-3.8253,-3.9661,-4.0882,-4.1296,-4.2393,-4.3387,-4.3842,-4.4194,-4.4463,-4.4588,-4.3086,-4.1776,-4.1286,-3.938,-3.8944,-4.0875,-4.0759,-4.0859,-4.1836,-4.123,-4.082,-4.082,-4.0117,-3.9707,-3.9707,-3.9258,-3.9023,-3.9023,-3.873,-3.8574,-3.8574,-3.8457,-3.8223,-3.791,-3.7676,-3.7109,-3.6269,-3.5312,-3.4941,-3.4961,-3.3984,-3.3711,-3.3848,-3.3418,-3.3066,-3.2812,-3.3008,-3.2812,-3.2441,0.0,0.0,0.0,0.0,0.0,0.0,0.0,0.0,0.0,0.0,0.0,0.0,0.0,-3.4084,-3.4188,-3.3666,-3.5678,-3.7978,-4.0305,-4.3702,-4.7179,-5.0681,-5.2511,-5.421,-5.5789,-5.6442,-5.7085,-5.7564,-5.6923,-5.6188,-5.5433,-5.4152,-5.3155,-5.2301,-5.2301,-5.2324,-5.2248,-5.2248,-5.2272,-5.1997,-4.9647,-4.7835,-4.6235,-4.1939,-3.9504,-3.8336,-3.7796,-3.5562,-3.2892,-3.2793,-3.2271,-3.1795,-3.3078,-3.3472,-3.3161,-3.1816,-2.9808,-2.8214,-2.9063,-2.9622,-3.0512,-3.2727,-3.432,-3.5811,-3.7653,-3.9102,-4.0199,-4.0675,-4.1524,-4.2011,-4.1048,-4.1669,-4.2435,-4.289,-4.2973,-4.3139,-4.3594,-4.2125,-4.0718,-3.9749,-3.8122,-3.7245,0.0,-3.8287,-3.918,-4.0488,-4.0176,-3.9941,-3.9941,-3.9473,-3.9219,-3.9219,-3.8809,-3.8594,-3.8594,-3.8574,-3.8574,-3.8574,-3.8144,-3.793,-3.7891,-3.709,-3.625,-3.543,-3.5391,-3.4902,-3.4101,-3.4082,-3.3809,-3.3398,-3.2988,-3.2812,-3.2754,-3.2344,-3.1934,-3.1562,0.0,0.0,0.0,0.0,0.0,0.0,0.0,0.0,0.0,0.0,0.0,0.0,0.0,0.0,0.0,0.0,-3.5208,-3.6698,-3.8632,-4.1611,-4.4539,-4.7257,-5.0472,-5.2668,-5.3635,-5.4968,-5.5935,-5.651,-5.6254,-5.6261,-5.6341,-5.5963,-5.5156,-5.4173,-5.4702,-5.3884,-5.2178,-5.2693,-5.1846,-5.0063,-4.8822,-4.7072,-4.4878,-4.2259,-3.9592,-3.7126,0.0,-3.377,-3.1678,-3.0811,-3.0315,-3.0139,-3.0905,-3.0926,-3.0408,-2.9093,-2.8731,-2.9042,-2.9973,-3.1422,-3.3244,-3.5542,-3.7136,-3.8481,-3.9702,-4.0551,-4.0986,-4.053,-3.9972,-3.9454,-3.9144,-3.9102,-3.9537,-4.0924,-4.1379,-4.1835,-4.26,-4.1521,-4.0004,-3.8493,-3.7301,0.0,0.0,0.0,0.0,-3.9003,-3.9073,-3.9023,-3.9023,-3.8867,-3.8789,-3.8789,-3.8359,-3.8144,-3.8144,-3.7871,-3.7734,-3.7715,-3.7305,-3.6934,-3.6641,-3.6074,-3.5508,-3.4922,-3.4648,-3.4355,-3.4043,-3.375,-3.3398,-3.2988,-3.2851,-3.2441,-3.1934,-3.1797,-3.1465,-3.1133,0.0,0.0,0.0,0.0,0.0,0.0,0.0,0.0,0.0,0.0,0.0,0.0,0.0,0.0,0.0,0.0,0.0,-3.5626,-3.7168,-3.939,-4.1664,-4.399,-4.6944,-4.9008,-5.0028,-5.1152,-5.1988,-5.2537,-5.2955,-5.3347,-5.3739,-5.4367,-5.423,-5.3535,-5.4237,-5.3521,-5.1897,-5.2059,-5.0949,-4.8913,-4.7282,-4.5197,-4.2839,-4.03,-3.7937,0.0,-3.4085,-3.2738,-3.1456,-2.9727,-2.9117,-2.9055,-2.9069,-2.8814,-2.8504,-2.816,-2.8731,-2.9932,-3.1671,-3.3555,-3.5562,-3.7695,-3.9247,-4.0365,-4.0779,-4.111,-4.0986,-3.9744,-3.8543,-3.7488,-3.6825,-3.6473,-3.6763,-3.8274,-3.8874,-3.9661,-4.1089,-4.0153,-3.8965,-3.796,-3.6942,-3.6156,0.0,0.0,0.0,-3.8087,-3.8228,-3.84,-3.8557,-3.8569,-3.8574,-3.8574,-3.8144,-3.793,-3.793,-3.75,-3.7226,-3.707,-3.6797,-3.6367,-3.5781,-3.5527,-3.5059,-3.4453,-3.4199,-3.3984,-3.3828,-3.3535,-3.3262,-3.2988,-3.2695,-3.2226,-3.1719,-3.1406,-3.1133,-3.0937,0.0,0.0,0.0,0.0,0.0,0.0,0.0,0.0,0.0,0.0,0.0,0.0,0.0,0.0,0.0,0.0,0.0,0.0,-3.594,-3.7168,-3.8841,-4.101,-4.2265,-4.3702,-4.5375,-4.5454,-4.5767,-4.6342,-4.744,-4.7989,-4.8041,-4.9714,-5.0472,-5.0498,-5.1021,-5.1256,-5.1194,-5.0355,-4.9528,-4.8518,-4.5219,-4.2555,-4.0187,-3.6469,-3.4762,-3.4186,-3.2916,-3.2413,-3.204,-2.9624,-2.8746,-2.8488,-2.7636,-2.7392,-2.7683,-2.9001,-2.9808,-3.0926,-3.4111,-3.5935,-3.7446,-3.9226,-4.0634,-4.1441,-4.0944,-4.0758,-4.0158,-3.8357,-3.7136,-3.5873,0.0,0.0,-3.4217,-3.5231,-3.5873,-3.7053,-3.933,-3.8523,-3.786,0.0,0.0,0.0,0.0,0.0,0.0,-3.7642,0.0,-3.8026,-3.8501,-3.8557,-3.8647,-3.8647,-3.8125,-3.791,-3.793,-3.748,-3.7051,-3.6641,-3.6641,-3.6191,-3.5351,-3.5351,-3.4883,-3.4043,-3.4043,-3.3809,-3.3418,-3.3398,-3.3379,-3.3301,-3.2461,-3.2129,-3.2031,-3.1191,-3.0898,-3.0898,0.0,0.0,0.0,0.0,0.0,0.0,0.0,0.0,0.0,0.0,0.0,0.0,0.0,0.0,0.0,0.0,0.0,0.0,-3.4816,-3.6332,-3.7482,-3.8083,-4.0435,-4.1951,-4.2396,-4.3258,-4.3964,-4.4539,-4.4826,-4.5192,-4.5663,-4.6107,-4.6316,-4.6316,-4.6447,-4.6499,-4.6417,-4.6247,-4.5519,-4.4459,-4.3136,-4.1404,-3.9322,-3.7728,-3.6348,-3.5165,-3.4495,-3.3999,-3.3275,-3.0866,-2.9154,-2.8139,-2.825,-2.8504,-2.9063,-3.045,-3.2126,-3.4031,-3.6204,-3.8295,-4.0116,-4.1276,-4.1565,-4.1358,-4.0572,-3.9061,-3.7322,-3.55,-3.3037,-3.0967,-3.016,0.0,0.0,-3.4548,-3.6742,0.0,-4.0779,-4.0758,0.0,-3.9765,0.0,-3.8916,-3.8145,-3.8017,0.0,0.0,-3.8049,-3.7967,-3.8482,-3.8865,-3.903,-3.903,-3.7994,-3.7759,-3.8359,-3.7347,-3.6621,-3.6191,-3.6191,-3.5723,-3.4883,-3.4883,-3.4394,-3.3594,-3.3594,-3.3516,-3.3398,-3.3086,-3.2949,-3.2871,-3.2012,-3.168,-3.1621,-3.1094,-3.0898,-3.0898,0.0,0.0,0.0,0.0,0.0,0.0,0.0,0.0,0.0,0.0,0.0,0.0,0.0,0.0,0.0,0.0,0.0,0.0,0.0,-3.5312,-3.5861,-3.5861,-3.7403,-3.8266,-3.8266,-3.8919,-3.939,-3.9703,-4.0226,-4.0644,-4.0984,-4.1742,-4.2108,-4.2108,-4.2396,-4.25,-4.2423,-4.2035,-4.1283,0.0,0.0,-3.8405,-3.6975,-3.6545,-3.5841,-3.5032,-3.4762,-3.3938,-3.2876,-3.211,-3.0378,-2.8711,-2.9787,-3.0305,-3.0926,-3.312,-3.4672,-3.6142,-3.8378,-4.0199,-4.1503,-4.1628,-4.1462,-4.0758,-3.8854,-3.697,-3.5084,-3.3275,-3.0927,-2.9176,-2.8907,-3.0138,-3.1693,0.0,0.0,0.0,-4.0124,-4.0365,-4.0489,0.0,-4.0468,0.0,-3.9447,-3.9199,-3.9158,0.0,-3.8697,-3.8485,-3.8959,-3.9278,-3.9445,-3.9445,-3.8359,-3.7803,-3.7735,-3.6857,-3.6172,-3.5742,-3.5742,-3.5273,-3.4434,-3.4434,-3.4062,-3.3418,0.0,-3.332,-3.3144,-3.3086,-3.2969,-3.2734,-3.207,-3.1797,-3.1719,-3.1113,-3.0898,-3.0898,0.0,0.0,0.0,0.0,0.0,0.0,0.0,0.0,0.0,0.0,-3.3143,0.0,0.0,0.0,0.0,0.0,0.0,0.0,0.0,0.0,-3.4397,-3.4397,-3.4397,-3.4397,-3.4397,-3.4397,-3.4397,-3.4397,-3.5391,-3.5887,-3.5913,-3.7429,-3.8135,-3.8161,-3.8684,-3.8919,-3.8872,-3.8012,-3.7309,-3.6556,-3.5768,-3.4981,-3.4293,0.0,-3.4241,-3.4162,-3.4162,-3.305,-3.1803,-3.3334,-3.1967,-2.9994,-3.1843,-3.2525,-3.3207,-3.6287,-3.726,-3.7881,-4.0386,-4.1731,-4.2207,-4.1214,-4.0779,-3.9785,-3.6639,-3.4793,-3.3224,-3.1318,-2.9911,-2.9,-2.8922,-3.0308,-3.1589,-3.2028,0.0,-3.7031,-3.8761,-3.8972,-3.9702,-4.1524,-4.0944,-4.0448,-4.0572,-4.0116,-3.9992,-4.0468,-3.9774,-3.9461,-3.9718,-3.9789,-3.9827,-3.9634,-3.8915,-3.8034,-3.6818,-3.6289,-3.5898,-3.5469,-3.543,-3.4961,-3.416,-3.4101,-3.3828,-3.3418,0.0,0.0,-3.291,-3.3203,-3.3125,-3.2754,-3.2266,-3.209,-3.1992,-3.1191,-3.0898,-3.0898,0.0,0.0,0.0,0.0,0.0,0.0,0.0,0.0,0.0,0.0,-3.2777,-3.3247,0.0,0.0,0.0,0.0,0.0,0.0,0.0,0.0,0.0,-3.4397,-3.4397,-3.4397,-3.4397,-3.4397,-3.4397,-3.4397,-3.4607,-3.4685,-3.4711,-3.4999,-3.5155,-3.5155,-3.526,-3.5312,-3.5286,-3.5115,-3.5001,-3.4842,-3.4673,-3.4272,-3.3744,-3.3744,0.0,0.0,-3.2986,-3.2444,-3.2086,-3.4264,-3.3446,-3.1884,-3.4155,-3.5355,-3.639,-3.846,-3.9578,-4.0448,-4.1762,-4.2683,-4.3077,-4.1772,-4.0323,-3.846,-3.5645,-3.3353,-3.1275,-2.9423,-2.8521,-2.7901,-2.752,-2.8656,-3.0297,-3.2283,-3.4307,-3.6644,-3.9558,-3.9992,-4.0655,0.0,-4.1897,-4.1628,-4.2373,0.0,0.0,0.0,0.0,-4.0874,-4.0208,-4.0564,-4.0318,-3.9282,-3.904,-3.8367,-3.7124,-3.6789,-3.6348,-3.5898,-3.5566,-3.5117,-3.457,-3.4238,-3.3828,-3.3418,-3.3418,0.0,-3.3301,-3.3008,-3.2871,-3.2715,-3.1934,-3.1621,-3.1562,-3.1074,-3.0898,-3.0898,0.0,0.0,0.0,0.0,0.0,0.0,0.0,-3.1444,-3.194,-3.3378,-3.3587,-3.3692,-3.3953,-3.3979,-3.3979,0.0,0.0,0.0,0.0,0.0,0.0,-3.4397,-3.4397,-3.4397,-3.4397,-3.4397,-3.4397,-3.4397,0.0,-3.4397,-3.4397,-3.4397,-3.4397,-3.4397,-3.4397,-3.4397,-3.4397,-3.4397,-3.4397,-3.4397,-3.4397,-3.4241,-3.3979,0.0,0.0,0.0,-3.2698,-3.2245,-3.2031,-3.4154,-3.4179,-3.3813,-3.6307,-3.7318,-3.8121,-4.0923,-4.1502,-4.17,-4.3637,-4.4252,-4.3796,-4.145,-3.9904,-3.7976,-3.4519,-3.1912,-2.9952,-2.9058,-2.8491,-2.8214,-2.8459,-3.0015,-3.1576,-3.256,-3.4818,-3.7094,-3.8974,-3.9622,-4.0528,-4.2364,-4.2186,-4.245,0.0,0.0,0.0,0.0,0.0,-4.2234,-4.1039,-4.0946,-4.0576,-3.9718,-3.9252,-3.8667,-3.7808,-3.7231,-3.659,-3.5933,-3.5736,-3.5218,-3.4375,-3.416,-3.3828,-3.3418,-3.3418,0.0,-3.3086,-3.2871,-3.2793,-3.2715,-3.1855,-3.166,-3.1777,-3.1133,-3.0898,-3.0898,0.0,0.0,0.0,0.0,0.0,0.0,0.0,-3.1876,-3.2489,-3.447,-3.4559,-3.423,-3.3802,-3.3773,-3.3718,0.0,0.0,0.0,0.0,0.0,0.0,0.0,0.0,0.0,-3.4397,0.0,0.0,0.0,-3.4397,0.0,0.0,0.0,0.0,0.0,-3.4397,-3.4397,-3.4397,-3.4397,-3.4397,0.0,0.0,-3.4136,0.0,0.0,0.0,0.0,0.0,-3.2034,-3.193,-3.3776,-3.4414,-3.4832,-3.7296,-3.8309,-3.9193,-4.2642,-4.2969,-4.2813,-4.5508,-4.6007,-4.4939,-4.1552,-3.9753,-3.7775,-3.3529,-3.083,-2.9145,-2.9006,-2.8859,-2.8988,-2.9663,-3.1123,-3.2296,-3.2505,-3.4589,-3.6524,-3.7671,-3.889,-4.0206,0.0,-4.2522,0.0,-4.446,0.0,0.0,0.0,0.0,0.0,-4.2123,-4.1346,-4.0882,-4.0862,-3.9643,-3.8844,-3.8546,-3.7589,-3.6764,-3.6157,-3.5958,-3.5389,-3.4457,-3.428,-3.3941,-3.3481,-3.3481,0.0,0.0,-3.293,-3.2871,-3.2734,-3.2051,-3.1894,-3.1953,-3.1387,-3.1113,-3.1035,0.0,0.0,0.0,0.0,0.0,0.0,0.0,-3.2137,-3.2765,-3.5482,-3.5004,-3.4354,-3.4246,-3.4293,-3.4136,0.0,0.0,0.0,0.0,0.0,0.0,0.0,0.0,0.0,0.0,0.0,0.0,0.0,0.0,0.0,0.0,0.0,0.0,0.0,0.0,0.0,-3.4397,-3.4397,0.0,0.0,0.0,0.0,0.0,0.0,0.0,0.0,0.0,-3.142,-3.2019,-3.3534,-3.3884,-3.3976,-3.5543,-3.7724,-4.0083,-4.2249,-4.3575,-4.4755,-4.6747,-4.7656,-4.7095,-4.3222,-4.0344,-3.7308,-3.303,-3.0581,-2.9091,-2.8657,-2.9155,-2.9702,-2.9804,-2.9631,-3.0025,-3.1793,-3.1995,-3.2977,-3.6003,-3.8363,-4.0129,-4.0896,0.0,0.0,0.0,0.0,0.0,0.0,0.0,0.0,-4.3583,-4.1875,-4.1502,-4.2818,-4.0341,-3.8983,-3.8983,-3.7746,-3.7059,-3.7018,-3.6214,-3.5791,-3.5606,-3.4739,-3.4213,-3.3859,-3.3859,0.0,0.0,-3.3359,-3.3144,-3.2793,-3.2715,-3.2226,-3.1621,-3.1934,-3.1797,-3.1523,0.0,0.0,0.0,0.0,0.0,0.0,-3.2626,-3.2375,-3.3162,-3.6491,-3.6189,-3.5609,-3.5354,-3.503,-3.436,-3.3157,0.0,0.0,0.0,0.0,0.0,0.0,0.0,0.0,0.0,0.0,-3.4397,-3.4397,-3.4397,0.0,0.0,0.0,0.0,0.0,0.0,0.0,0.0,-3.4397,0.0,0.0,0.0,0.0,0.0,0.0,0.0,0.0,0.0,0.0,-3.1458,-3.2358,-3.2741,-3.2937,-3.3705,-3.5066,-3.7095,-4.0822,-4.2731,-4.4233,-4.7024,-4.8237,-4.7609,-4.3216,-4.0683,-3.8096,-3.3429,-3.0994,-2.9611,-2.9361,-2.9546,-2.9804,-2.9804,-2.9642,-2.9982,-3.1399,-3.149,-3.2245,-3.471,-3.641,-3.8263,-4.0693,-4.259,0.0,0.0,0.0,0.0,0.0,0.0,0.0,-4.5963,-4.358,-4.1939,-4.1383,-4.0007,-3.9206,-3.8849,-3.8145,-3.7636,-3.7415,-3.6785,-3.6208,-3.5816,-3.5107,-3.4622,-3.4173,-3.4173,0.0,0.0,-3.3769,-3.3709,-3.3749,-3.3231,-3.2851,-3.259,-3.2491,-3.2232,-3.1934,0.0,0.0,0.0,0.0,0.0,-3.0829,-3.2698,-3.2471,-3.3257,-3.6524,-3.6481,-3.6085,-3.6022,-3.5044,-3.4137,-3.3523,-3.3378,0.0,0.0,0.0,0.0,0.0,0.0,0.0,0.0,0.0,-3.4397,-3.4397,-3.4397,-3.4397,0.0,0.0,0.0,0.0,0.0,0.0,0.0,0.0,0.0,0.0,0.0,0.0,0.0,0.0,0.0,0.0,0.0,0.0,0.0,0.0,0.0,-3.1941,-3.2137,-3.2775,-3.4308,-3.8795,-4.1393,-4.3404,-4.6577,-4.8262,-4.8093,-4.3742,-4.1265,-3.8749,-3.4171,-3.1526,-2.9956,-2.981,-2.9804,-2.9804,-2.9804,-2.9804,-3.0156,-3.121,-3.1386,-3.2116,-3.4054,-3.5421,-3.7162,0.0,0.0,0.0,0.0,0.0,0.0,0.0,0.0,0.0,0.0,-4.532,-4.3529,-4.2102,-4.1019,-4.0345,-4.0024,-3.9621,-3.9233,-3.8948,-3.8335,-3.7762,-3.7233,-3.6583,-3.606,-3.5684,0.0,0.0,0.0,-3.4677,-3.4492,-3.4363,-3.3759,-3.3496,-3.3452,-3.3273,-3.3011,-3.2668,0.0,0.0,0.0,0.0,0.0,0.0,-3.2452,-3.2434,-3.2959,-3.5411,-3.529,-3.5284,-3.5927,-3.4029,-3.3404,-3.5129,-3.3692,0.0,0.0,0.0,0.0,0.0,0.0,0.0,0.0,0.0,-3.4397,-3.4397,-3.4397,-3.4397,-3.4397,-3.4397,0.0,0.0,0.0,0.0,0.0,0.0,0.0,0.0,0.0,0.0,0.0,0.0,0.0,0.0,0.0,0.0,0.0,0.0,0.0,0.0,0.0,-3.138,-3.2579,-3.6347,-3.9638,-4.2662,-4.5137,-4.7654,-4.8743,-4.524,-4.2103,-3.8965,-3.5298,-3.2141,-2.9956,-2.981,-2.9804,-2.9804,-2.9804,-2.9804,-3.0156,-3.121,-3.1386,-3.2116,-3.4222,-3.6038,-3.7164,0.0,0.0,0.0,0.0,0.0,0.0,0.0,0.0,0.0,0.0,-4.6854,-4.6566,-4.6566,-4.416,-4.2853,-4.2853,-4.239,-4.2138,-4.2138,-4.1129,-4.0647,-4.0647,-3.9616,-3.898,0.0,0.0,0.0,0.0,-3.6295,-3.554,-3.4423,-3.4403,-3.4141,-3.3819,-3.4242,-3.4141,-3.384,0.0,0.0,0.0,0.0,0.0,0.0,0.0,-3.1182,-3.1811,-3.4267,-3.4438,-3.4457,-3.4807,-3.422,-3.3872,-3.4125,-3.3247,0.0,0.0,0.0,0.0,0.0,0.0,0.0,0.0,-3.4397,-3.4397,-3.4397,-3.4397,-3.4397,-3.4397,-3.4397,-3.4397,-3.4397,0.0,0.0,0.0,0.0,0.0,0.0,0.0,0.0,0.0,0.0,0.0,0.0,0.0,0.0,0.0,0.0,0.0,0.0,0.0,0.0,0.0,-3.3112,-3.6345,-3.9802,-4.1423,-4.3265,-4.4026,-4.1153,-3.8945,-3.6702,-3.3504,-3.1549,-3.0298,-2.9852,-2.9804,-2.9804,-2.9804,-2.9804,-3.0256,-3.1712,-3.1964,-3.2589,0.0,0.0,0.0,-4.0361,0.0,0.0,0.0,0.0,0.0,0.0,0.0,0.0,0.0,-4.8025,-4.6591,-4.4692,-4.3521,-4.2734,-4.2454,-4.2293,-4.204,-4.1633,-4.1007,-4.0525,-4.0143,-3.9478,0.0,0.0,0.0,0.0,0.0,-3.6985,-3.6215,-3.5108,-3.5108,-3.4902,-3.4552,-3.4674,-3.4529,-3.4242,0.0,0.0,0.0,0.0,0.0,0.0,0.0,-3.018,-3.0635,-3.2272,-3.2631,-3.2981,-3.3635,-3.3476,-3.3595,-3.4204,-3.3509,0.0,0.0,0.0,0.0,0.0,0.0,0.0,-3.4397,-3.4397,-3.4607,-3.5051,-3.5051,-3.5051,-3.5051,-3.5051,-3.4816,-3.4397,-3.4397,-3.4397,0.0,0.0,0.0,0.0,0.0,0.0,-3.1679,0.0,0.0,0.0,0.0,0.0,0.0,0.0,0.0,0.0,0.0,0.0,0.0,0.0,-3.3554,-3.6148,-3.7814,-3.9576,-4.0427,-3.8543,-3.6899,-3.5169,-3.2938,-3.147,-3.0457,-2.9905,-2.9804,-2.9804,-2.9804,-2.9804,-3.0181,-3.1411,-3.1763,-3.2491,0.0,0.0,0.0,0.0,0.0,0.0,0.0,0.0,0.0,0.0,0.0,0.0,0.0,-4.8284,-4.697,-4.5015,-4.4452,-4.4025,-4.3755,-4.3541,-4.3279,-4.2946,-4.2209,-4.171,-4.1342,-4.0877,0.0,0.0,0.0,0.0,0.0,-3.8721,-3.797,-3.6846,-3.6846,-3.642,-3.5807,-3.5807,-3.5397,-3.4797,0.0,0.0,0.0,0.0,0.0,0.0,0.0,-2.9496,-2.9545,-2.972,-3.029,-3.1119,-3.2372,-3.2058,-3.2685,-3.492,0.0,0.0,0.0,0.0,0.0,0.0,0.0,0.0,-3.4397,-3.4371,-3.4868,-3.5992,-3.607,-3.6096,-3.6044,-3.6123,-3.5547,-3.445,-3.445,-3.4424,-3.4371,0.0,0.0,0.0,-3.3221,-3.2751,0.0,0.0,0.0,0.0,0.0,0.0,0.0,0.0,0.0,0.0,0.0,0.0,0.0,0.0,0.0,0.0,0.0,-3.6442,-3.7728,-3.7006,-3.5579,-3.4148,-3.3144,-3.1687,0.0,-2.9905,-2.9804,-2.9804,-2.9854,-2.9829,-3.0005,-3.0633,-3.1135,-3.2039,0.0,-3.5625,0.0,0.0,0.0,0.0,0.0,0.0,0.0,0.0,0.0,0.0,0.0,-4.7883,-4.7631,-4.7093,-4.6602,-4.6301,-4.625,-4.5748,-4.5447,-4.5347,-4.4317,-4.379,-4.374,-4.3212,0.0,0.0,0.0,0.0,0.0,-4.11,-4.0326,-3.9216,-3.9216,-3.8506,-3.7429,-3.7429,-3.6724,-3.5665,0.0,0.0,0.0,0.0,0.0,0.0,0.0,0.0,0.0,0.0,-2.9768,-3.0367,-3.0686,-3.1354,-3.2189,0.0,0.0,0.0,0.0,0.0,0.0,0.0,0.0,0.0,-3.4397,-3.4005,-3.411,-3.4789,-3.5678,-3.5887,-3.5495,-3.6384,-3.6175,-3.5077,-3.5077,-3.4816,-3.4397,-3.4267,0.0,0.0,-3.3927,-3.3221,0.0,0.0,0.0,0.0,-3.0973,-3.0973,0.0,0.0,0.0,0.0,0.0,0.0,0.0,0.0,-3.1078,-3.1301,-3.1668,0.0,-3.3665,-3.3157,-3.2373,-3.1716,0.0,-3.0557,-2.9955,-2.9829,-2.9804,-2.993,-3.0357,-3.008,-3.0231,-3.1612,-3.1938,-3.2616,-3.4299,0.0,0.0,0.0,0.0,0.0,0.0,0.0,0.0,0.0,0.0,0.0,0.0,-4.7531,-4.7193,-4.7068,-4.6602,-4.61,-4.5673,-4.5547,-4.5045,-4.4192,-4.394,-4.3589,-4.3162,-4.3037,0.0,0.0,0.0,0.0,-4.11,-4.11,-4.0326,-3.9216,-3.9216,-3.9039,-3.8744,-3.8744,-3.8566,-3.8328,0.0,0.0,0.0,0.0,0.0,0.0,0.0,0.0,0.0,0.0,0.0,-3.0205,-3.0503,-3.1548,0.0,0.0,0.0,0.0,0.0,0.0,0.0,0.0,0.0,-3.33,-3.3613,-3.3613,-3.4005,-3.4816,-3.594,-3.6358,-3.6096,-3.6724,-3.6384,-3.5286,-3.4999,-3.4711,-3.4397,-3.4397,-3.4214,-3.3979,-3.4267,0.0,0.0,0.0,0.0,0.0,-3.1287,-3.1209,0.0,-3.0973,-3.0973,-3.0973,0.0,0.0,0.0,0.0,-3.0973,-3.0999,-3.0887,-3.1396,-3.1874,-3.1436,-3.1088,-3.0896,-3.0949,-3.0357,-2.9854,-3.0131,-2.9955,-2.988,-3.0181,-3.0206,-3.0457,-3.1336,-3.2114,0.0,0.0,0.0,0.0,0.0,0.0,0.0,0.0,0.0,0.0,0.0,0.0,0.0,0.0,-4.7154,-4.7029,-4.6753,-4.6476,-4.605,-4.5497,-4.5221,-4.4644,-4.379,-4.3539,-4.3263,-4.2986,-4.2986,-4.2986,0.0,0.0,0.0,-4.198,-4.198,-4.1558,-4.0928,-4.0928,-4.0582,-4.0036,-4.0036,-3.9686,-3.9216,0.0,0.0,0.0,0.0,0.0,0.0,0.0,0.0,0.0,0.0,0.0,0.0,0.0,0.0,0.0,0.0,0.0,0.0,0.0,0.0,0.0,0.0,-3.2829,-3.2698,-3.2934,-3.3378,-3.4188,-3.5417,-3.675,-3.7351,-3.7273,-3.7456,-3.6776,-3.5391,-3.4789,-3.4476,-3.4397,-3.4397,-3.4397,-3.4397,-3.4397,0.0,0.0,0.0,0.0,0.0,0.0,0.0,0.0,-3.0973,-3.0973,-3.0973,-3.0973,0.0,0.0,0.0,0.0,0.0,-3.1066,-3.1383,-3.1629,-3.1006,-3.0899,-3.1048,-3.1226,-3.0557,-3.0055,-3.0507,-3.0181,-2.9854,-3.0005,-3.0407,-3.0783,0.0,0.0,0.0,0.0,0.0,0.0,0.0,0.0,0.0,0.0,0.0,0.0,0.0,0.0,0.0,0.0,-4.6753,-4.6803,-4.6326,-4.6301,-4.5999,-4.5372,-4.4869,-4.4292,-4.3664,-4.3212,-4.2986,-4.2986,-4.2986,-4.2986,0.0,0.0,0.0,-4.2961,-4.2886,-4.2861,-4.2861,-4.2861,-4.2195,-4.129,-4.1362,-4.0697,-3.9803,0.0,0.0,0.0,0.0,0.0,0.0,0.0,0.0,0.0,0.0,0.0,0.0,0.0,0.0,0.0,0.0,0.0,0.0,0.0,0.0,0.0,-3.2084,-3.198,-3.2607,-3.411,-3.377,-3.4371,-3.5992,-3.8135,-3.8945,-3.8475,-3.9442,-3.8501,-3.5966,-3.5417,-3.4868,-3.4397,-3.4397,-3.4397,-3.4397,-3.4397,0.0,0.0,0.0,0.0,0.0,0.0,0.0,0.0,-3.0973,-3.0973,-3.0973,-3.0973,0.0,0.0,0.0,0.0,0.0,-3.137,-3.2173,-3.2533,-3.0894,-3.1018,-3.1428,-3.0849,-3.0608,-3.0507,-3.0608,-3.0181,-3.008,-3.0984,-3.121,-3.1587,0.0,0.0,-3.7412,0.0,0.0,0.0,0.0,0.0,0.0,0.0,0.0,0.0,0.0,0.0,0.0,0.0,-4.6401,-4.6401,-4.6301,-4.6301,-4.5824,-4.4769,-4.4669,-4.4116,-4.3112,-4.3011,-4.2986,-4.2986,-4.2986,-4.2986,0.0,0.0,-4.2986,-4.2936,-4.2539,-4.2338,-4.2338,-4.2338,-4.2228,-4.2113,-4.2507,-4.2569,-4.2457,0.0,0.0,0.0,0.0,0.0,0.0,0.0,0.0,0.0,0.0,0.0,0.0,0.0,0.0,0.0,0.0,0.0,0.0,0.0,0.0,-3.2084,-3.2751,-3.2463,-3.2672,-3.3456,-3.445,-3.5652,-3.7063,-3.9076,-4.0069,-4.0095,-3.939,-3.7848,-3.5652,-3.5077,-3.4659,-3.4397,-3.4397,-3.4397,-3.4397,0.0,0.0,0.0,0.0,0.0,0.0,0.0,0.0,0.0,0.0,-3.1235,-3.0973,-3.0973,0.0,0.0,0.0,0.0,0.0,-3.0894,-3.1638,-3.2107,-3.0955,-3.1665,-3.2491,-3.203,-3.126,-3.0743,-3.1361,-3.0809,-3.0557,-3.1637,-3.2566,-3.3947,-3.6282,0.0,0.0,0.0,0.0,0.0,0.0,0.0,0.0,0.0,0.0,0.0,0.0,0.0,0.0,0.0,0.0,-4.5999,-4.6301,-4.6301,-4.5773,-4.4644,-4.4618,-4.4066,-4.2986,-4.2986,-4.2986,-4.2986,-4.2986,-4.2986,-4.2986,0.0,-4.2866,-4.2564,-4.2313,-4.2037,-4.1756,-4.2087,-4.1982,-4.1781,-4.2333,-4.2766,-4.2986,0.0,0.0,0.0,0.0,0.0,0.0,0.0,0.0,0.0,0.0,0.0,0.0,0.0,0.0,0.0,0.0,0.0,0.0,0.0,-3.2058,-3.2215,-3.3143,-3.3247,-3.3483,-3.3901,-3.5757,-3.7429,-3.8893,-4.0592,-4.1455,-4.1455,-3.9311,-3.7299,-3.5469,-3.4868,-3.4528,-3.4397,-3.4397,-3.4397,-3.4397,0.0,0.0,0.0,0.0,0.0,0.0,0.0,0.0,0.0,0.0,0.0,0.0,0.0,0.0,0.0,-3.0773,-3.0698,-3.0686,-3.0522,-3.1094,-3.162,-3.1301,-3.2263,-3.3308,-3.3287,-3.229,-3.1687,-3.2767,-3.2139,-3.1637,-3.2466,-3.4073,0.0,-3.9396,-4.0576,0.0,0.0,0.0,0.0,0.0,0.0,0.0,0.0,0.0,0.0,0.0,0.0,0.0,0.0,0.0,-4.5547,-4.61,-4.5974,-4.5447,-4.4443,-4.4443,-4.394,-4.2986,-4.2986,-4.2986,-4.2986,-4.2986,-4.2986,-4.2986,-4.2986,-4.2715,-4.2213,-4.2062,-4.163,-4.1125,-4.1605,-4.1681,-4.158,-4.2062,-4.2564,-4.2986,0.0,0.0,0.0,0.0,0.0,0.0,0.0,0.0,0.0,0.0,0.0,0.0,0.0,0.0,0.0,0.0,0.0,0.0,0.0,-3.1823,-3.185,-3.1928,-3.3979,-3.5861,-3.7482,-3.8187,-3.9625,-4.1897,-4.3572,-4.3624,-4.2107,-4.0305,-3.8266,-3.6018,-3.5469,-3.492,-3.4397,-3.4397,-3.4397,-3.4397,-3.4397,0.0,0.0,0.0,0.0,0.0,0.0,0.0,0.0,0.0,0.0,0.0,0.0,0.0,-3.0962,-3.0773,-3.0698,-3.0725,-3.0814,-3.128,-3.1782,-3.203,-3.2634,-3.3262,-3.3721,-3.3746,-3.3972,-3.5031,-3.4424,-3.3696,-3.3771,-3.5554,-3.7764,-4.0074,0.0,0.0,0.0,0.0,0.0,0.0,0.0,0.0,0.0,0.0,0.0,0.0,0.0,0.0,0.0,0.0,0.0,-4.5522,-4.502,-4.4468,-4.3865,-4.3865,-4.3564,-4.2986,-4.2986,-4.2986,-4.2986,-4.2986,-4.2986,-4.2986,-4.2986,-4.2715,-4.2162,-4.1605,-4.1078,-4.0576,-4.0626,-4.1229,-4.2162,-4.2187,-4.2564,-4.2986,0.0,0.0,0.0,0.0,0.0,0.0,0.0,0.0,0.0,0.0,0.0,0.0,0.0,0.0,0.0,0.0,0.0,0.0,0.0,-3.1797,-3.2267,-3.3378,-3.4633,-3.6279,-3.837,-3.9677,-4.1272,-4.3284,-4.4251,-4.3467,-4.1063,-3.9677,-3.7821,-3.5574,-3.4999,-3.4607,-3.4397,-3.4397,-3.4397,-3.4397,-3.4397,-3.4397,0.0,0.0,0.0,0.0,0.0,0.0,0.0,0.0,-3.1757,-3.0973,-3.0973,-3.0973,-3.0962,-3.0596,-3.0622,-3.0636,-3.0303,-3.0933,-3.163,-3.1301,-3.2164,-3.3539,-3.5123,-3.5152,-3.5282,-3.6784,-3.6734,-3.6558,-3.6935,0.0,-3.9973,-4.2208,0.0,0.0,0.0,0.0,0.0,0.0,0.0,0.0,0.0,0.0,0.0,0.0,0.0,0.0,0.0,0.0,0.0,-4.4945,-4.4744,-4.4367,-4.3815,-4.379,-4.3514,-4.2986,-4.2986,-4.2986,-4.2961,-4.2665,-4.2514,-4.2514,-4.2108,-4.1656,-4.1128,-4.0902,-4.0501,-4.0049,-4.0375,-4.1178,-4.2213,-4.2213,-4.2338,-4.2564,0.0,0.0,0.0,0.0,0.0,0.0,0.0,0.0,0.0,0.0,0.0,0.0,0.0,0.0,0.0,0.0,0.0,0.0,-3.2084,-3.1902,-3.2476,-3.4084,-3.4894,-3.6201,-3.8135,-4.0226,-4.216,-4.3912,-4.4434,-4.3232,-4.0383,-3.9233,-3.7795,-3.6096,-3.5286,-3.5051,-3.5208,-3.4842,-3.458,-3.4397,-3.4397,-3.4397,0.0,0.0,0.0,0.0,0.0,0.0,0.0,0.0,-3.194,-3.0973,-3.0973,-3.0973,-3.0936,-3.0596,-3.0649,-3.0765,-3.0264,-3.0767,-3.1322,-3.1175,-3.1964,-3.3571,-3.6531,-3.686,-3.7111,-3.8944,-3.8894,-3.8668,-3.9069,-3.9747,0.0,0.0,0.0,0.0,0.0,0.0,0.0,0.0,0.0,0.0,0.0,0.0,0.0,0.0,0.0,0.0,0.0,0.0,0.0,0.0,-4.4192,-4.384,-4.3288,-4.3288,-4.3087,-4.2766,-4.2534,-4.2559,-4.271,-4.2389,-4.2112,-4.1882,-4.1505,-4.0974,-4.0526,-4.0526,-4.0199,-3.9747,-4.0099,-4.0827,-4.163,-4.163,-4.1911,-4.2263,0.0,0.0,0.0,0.0,0.0,0.0,0.0,0.0,0.0,0.0,0.0,0.0,0.0,0.0,0.0,0.0,0.0,0.0,-3.2698,-3.2137,-3.2346,-3.3535,-3.4685,-3.5835,-3.6959,-3.9808,-4.2134,-4.3912,-4.4408,-4.3206,-4.0357,-3.9233,-3.8423,-3.7821,-3.6645,-3.6436,-3.6907,-3.5783,-3.4946,-3.4397,-3.4397,-3.4397,-3.4397,0.0,0.0,0.0,0.0,0.0,0.0,0.0,-3.194,-3.0973,-3.0973,-3.0973,-3.0962,-3.0773,-3.0933,-3.1175,-3.0939,-3.0767,-3.0884,-3.1938,-3.224,-3.342,-3.7864,-3.8919,-3.9548,-4.176,-4.0877,-3.9722,-3.9722,-3.9722,0.0,0.0,0.0,0.0,0.0,0.0,0.0,0.0,0.0,0.0,0.0,0.0,0.0,0.0,0.0,0.0,0.0,0.0,0.0,0.0,-4.3263,-4.271,-4.2213,-4.2213,-4.2213,-4.2187,-4.1605,-4.163,-4.2213,-4.2213,-4.1856,-4.1275,-4.1275,-4.0949,-4.0501,-4.0501,-4.0199,-3.9697,-3.9697,-4.0049,-4.0526,-4.0526,-4.1204,-4.2187,0.0,0.0,0.0,0.0,0.0,0.0,0.0,0.0,0.0,0.0,0.0,0.0,0.0,0.0,0.0,0.0,0.0,0.0,-3.2725,-3.2934,-3.3221,-3.3561,-3.4685,-3.5469,-3.5809,-3.7848,-4.0148,-4.2709,-4.2448,-4.0853,-3.8031,-3.8501,-3.7769,-3.6096,-3.6985,-3.6776,-3.5783,-3.5443,-3.4946,-3.4397,-3.4397,-3.4397,-3.4397,0.0,0.0,0.0,0.0,0.0,0.0,0.0,0.0,0.0,-3.0973,-3.1261,-3.1446,-3.0839,-3.1332,-3.1782,-3.0661,-3.1099,-3.2003,-3.2181,-3.3351,-3.5282,-3.8216,-3.8567,-3.912,-4.2108,-4.2333,-4.1882,-4.1559,-4.1756,0.0,0.0,0.0,0.0,0.0,0.0,0.0,0.0,0.0,0.0,0.0,0.0,0.0,0.0,0.0,0.0,0.0,0.0,0.0,0.0,-4.2539,-4.2133,-4.158,-4.158,-4.158,-4.158,-4.1376,-4.163,-4.2187,-4.1354,-4.0927,-4.0752,-4.035,-4.0099,-3.9948,-3.9948,-3.9848,-3.9747,-4.0124,-4.0375,-4.0576,-4.0899,-4.1053,-4.1053,0.0,0.0,0.0,0.0,0.0,0.0,0.0,0.0,0.0,0.0,-3.4397,-3.4397,0.0,0.0,0.0,0.0,0.0,0.0,-3.3378,-3.3273,-3.343,-3.3901,-3.4371,-3.5051,-3.5966,-3.7246,-3.8632,-4.0122,-4.0226,-3.9155,-3.7037,-3.8423,-3.8449,-3.7377,-3.8684,-3.8423,-3.6985,-3.6541,-3.5574,-3.4397,-3.4397,-3.4397,-3.4397,0.0,0.0,0.0,0.0,0.0,0.0,0.0,0.0,0.0,-3.1052,-3.1235,-3.1394,-3.1099,-3.1603,-3.2077,-3.1258,-3.1731,-3.2517,-3.3043,-3.4354,-3.6135,-3.8642,-4.0124,-4.1681,-4.4116,-4.4091,-4.3463,-4.2911,-4.2911,0.0,0.0,0.0,0.0,0.0,0.0,0.0,0.0,0.0,0.0,0.0,0.0,0.0,0.0,0.0,0.0,0.0,0.0,0.0,0.0,-4.1957,-4.158,-4.0974,-4.0949,-4.0949,-4.0949,-4.0802,-4.0978,-4.148,-4.0827,-4.04,-4.0174,-3.9848,-3.9697,-3.9697,-3.9697,-3.9697,-3.9722,-4.0049,-4.0199,-4.0224,-4.0576,-4.0601,-4.0576,0.0,0.0,-2.9761,-3.0369,0.0,0.0,0.0,0.0,0.0,0.0,-3.4397,-3.4397,0.0,0.0,0.0,0.0,0.0,0.0,0.0,-3.343,-3.33,-3.4345,-3.3979,-3.4711,-3.6802,-3.7377,-3.7403,-3.6854,-3.8004,-3.7978,-3.6881,-3.8789,-3.9886,-4.0305,-4.1063,-4.0671,-3.939,-3.8214,-3.6436,-3.4397,-3.4397,-3.4397,-3.4397,-3.4397,0.0,0.0,0.0,0.0,0.0,0.0,0.0,0.0,-3.1235,-3.1052,-3.1081,-3.1397,-3.1769,-3.2092,-3.2371,-3.2391,-3.2767,-3.4399,-3.5433,-3.6762,-3.9346,-4.276,-4.5648,-4.6502,0.0,-4.4518,-4.3915,0.0,0.0,0.0,0.0,0.0,0.0,0.0,0.0,0.0,0.0,0.0,0.0,0.0,0.0,0.0,0.0,0.0,0.0,0.0,0.0,-4.2037,-4.153,-4.0949,-4.045,-4.045,-4.045,0.0,-3.9923,-3.9948,-4.045,-4.045,-4.0174,-3.9697,-3.9697,-3.9697,-3.9697,-3.9697,-3.9697,-3.9697,-3.9697,-3.9697,-3.9697,-3.9697,-4.0023,-4.045,0.0,0.0,-3.1064,-3.1823,0.0,0.0,0.0,0.0,0.0,0.0,0.0,0.0,0.0,0.0,0.0,0.0,0.0,0.0,0.0,-3.4162,-3.4136,-3.4397,-3.4737,-3.5155,-3.5652,-3.5783,-3.5783,-3.5678,-3.6802,-3.6776,-3.573,-3.8815,-3.9834,-3.9155,-4.1115,-4.0592,-3.8187,-3.6985,-3.5678,-3.4397,-3.4397,-3.4397,-3.4397,-3.4397,-3.4397,0.0,0.0,0.0,0.0,0.0,0.0,0.0,-3.1667,-3.1538,-3.1384,-3.1461,-3.1972,-3.2403,-3.1949,-3.2668,-3.3822,-3.5006,-3.8065,-4.0955,-4.1534,-4.3288,-4.4518,-4.3438,-4.4342,-4.4995,-4.3991,0.0,0.0,0.0,0.0,0.0,0.0,0.0,0.0,0.0,0.0,0.0,0.0,0.0,0.0,0.0,0.0,0.0,0.0,0.0,0.0,-4.0877,-4.0752,-4.0425,-3.9873,-3.9873,-3.9873,0.0,-3.9747,-3.9747,-3.9873,-3.9873,-3.9798,-3.9697,-3.9697,-3.9697,-3.9697,-3.9697,-3.9697,-3.9697,-3.9697,-3.9697,-3.9697,-3.9697,-3.9772,-3.9873,0.0,0.0,0.0,0.0,0.0,0.0,0.0,0.0,0.0,0.0,0.0,0.0,0.0,-3.4397,0.0,0.0,-3.4397,-3.4397,-3.4397,-3.4397,-3.4397,-3.4397,-3.4972,-3.5155,-3.4868,-3.5155,-3.5155,-3.4868,-3.5757,-3.6018,-3.573,-3.8109,-3.9181,-3.9207,-4.0984,-4.0331,-3.7874,-3.722,-3.5966,-3.4397,-3.4397,-3.4397,-3.4397,-3.4397,-3.4397,-3.4397,-3.4397,0.0,0.0,0.0,0.0,0.0,0.0,0.0,-3.1747,-3.2199,-3.232,-3.2342,-3.2472,-3.3189,-3.4349,-3.6257,-3.9069,-4.143,-4.1706,-4.2434,-4.2755,-4.1932,-4.3539,-4.4719,0.0,0.0,0.0,0.0,0.0,0.0,0.0,0.0,0.0,0.0,0.0,0.0,0.0,0.0,0.0,0.0,0.0,0.0,0.0,-4.0774,-4.0651,-4.0902,-4.04,-4.0124,-4.0099,-3.9823,-3.9697,-3.9697,-3.9697,-3.9697,-3.9697,-3.9697,-3.9697,-3.9697,-3.9697,-3.9697,-3.9697,-3.9697,-3.9697,-3.9697,-3.9697,-3.9697,-3.9697,-3.9697,-3.9697,-3.9697,0.0,0.0,0.0,0.0,0.0,0.0,0.0,0.0,0.0,0.0,0.0,0.0,0.0,-3.4397,-3.4397,0.0,0.0,0.0,-3.4397,-3.4397,-3.4397,-3.4397,-3.4972,-3.5077,-3.4554,-3.5051,-3.5051,-3.4554,-3.5051,-3.5626,-3.6279,-3.7586,-3.871,-3.9651,-4.0697,-3.9939,-3.79,-3.7691,-3.6358,-3.4397,-3.4397,-3.4397,-3.4397,-3.4397,-3.4397,-3.4397,-3.4397,-3.4397,-3.4319,-3.3875,0.0,0.0,0.0,0.0,-3.2085,-3.2883,-3.2654,-3.2296,-3.3132,-3.3726,-3.4751,-3.7136,-3.9069,-4.0475,-4.0827,-4.1075,-4.125,-4.1175,-4.2785,0.0,0.0,0.0,0.0,0.0,0.0,0.0,0.0,0.0,0.0,0.0,0.0,0.0,0.0,0.0,0.0,0.0,0.0,0.0,-4.0974,-4.0099,-4.0023,-4.0974,-4.0074,-3.9772,-4.0224,-3.9772,-3.9496,-3.9396,-3.9396,-3.9396,-3.9396,-3.9496,-3.9597,-3.9697,-3.9697,-3.9697,-3.9697,-3.9697,-3.9697,-3.9697,-3.9697,-3.9697,-3.9697,-3.9697,-3.9697,-3.9697,0.0,0.0,0.0,0.0,0.0,0.0,0.0,0.0,0.0,0.0,-3.4397,-3.4397,-3.4397,-3.4397,-3.4397,-3.4397,-3.4397,-3.4397,-3.4397,0.0,0.0,-3.4397,-3.4972,-3.526,-3.5182,-3.526,-3.526,-3.5182,-3.526,-3.5835,-3.6933,-3.8606,-3.9468,-3.9651,-4.0252,-3.9547,-3.7821,-3.6776,-3.56,-3.4397,-3.4397,-3.4397,-3.4397,-3.4397,-3.4397,-3.4397,-3.4397,-3.4397,-3.4397,-3.4319,-3.3979,0.0,0.0,0.0,-3.2406,-3.2808,-3.273,-3.2599,-3.3021,-3.4173,-3.5483,-3.6408,-3.8216,-3.9697,-3.9295,-4.03,-4.115,0.0,0.0,0.0,0.0,0.0,0.0,0.0,0.0,0.0,0.0,0.0,0.0,0.0,0.0,0.0,0.0,0.0,0.0,0.0,0.0,0.0,-3.9898,-3.932,-3.927,-3.9898,-3.9295,-3.9019,-3.9094,-3.9019,-3.8718,-3.8241,-3.8241,-3.8241,-3.8241,-3.8743,-3.9245,-3.9697,-3.9697,-3.9697,-3.9697,-3.9697,-3.9697,-3.9697,-3.9697,-3.9697,-3.9697,-3.9697,-3.9697,-3.9697,0.0,0.0,0.0,0.0,0.0,0.0,0.0,0.0,0.0,0.0,0.0,-3.4397,-3.4397,-3.4397,-3.4397,-3.4397,-3.4397,-3.4397,-3.4397,-3.4397,-3.4397,-3.4397,-3.4659,-3.4789,-3.4789,-3.4789,-3.4789,-3.4789,-3.5443,-3.6358,-3.7534,-3.8945,-3.9442,-3.9128,-3.9364,-3.8501,-3.6854,-3.6332,-3.5443,-3.4397,-3.4397,-3.4397,-3.4397,-3.4397,-3.4397,-3.4397,-3.4397,-3.4397,-3.4397,-3.4397,-3.4241,-3.4031,-3.4031,0.0,0.0,0.0,-3.3286,-3.2902,-3.3381,-3.4299,-3.5257,-3.6157,-3.7337,-3.8316,-3.8366,-3.9195,-3.9898,-3.9647,0.0,0.0,0.0,0.0,0.0,0.0,0.0,0.0,0.0,0.0,0.0,0.0,0.0,0.0,0.0,0.0,0.0,0.0,0.0,-3.8894,-3.922,-3.8693,-3.8642,-3.922,-3.8693,-3.8542,-3.8919,-3.8542,-3.8266,-3.8015,-3.8015,-3.8015,-3.8015,-3.8266,-3.8693,-3.927,-3.9898,-3.9973,-3.9722,-4.0023,-3.9973,-3.9697,-3.9697,-3.9697,-3.9697,-3.9697,-3.9697,-3.9697,0.0,0.0,0.0,0.0,0.0,0.0,0.0,0.0,0.0,0.0,0.0,-3.4397,-3.4397,0.0,0.0,0.0,-3.4397,-3.4397,-3.4397,-3.4397,-3.4397,-3.4397,-3.4397,-3.4397,-3.4397,-3.4397,-3.4397,-3.4397,-3.5547,-3.6802,-3.8135,-3.9285,-3.973,-3.9573,-3.9285,-3.8187,-3.6541,-3.641,-3.5757,-3.4816,-3.4528,-3.4397,-3.4397,-3.4397,-3.4397,-3.4397,-3.4397,-3.4397,-3.4397,-3.4397,-3.4397,-3.4397,-3.4397,-3.411,0.0,0.0,0.0,-3.3027,-3.3528,-3.3859,-3.4368,-3.537,-3.6204,-3.691,-3.7462,0.0,-3.8642,0.0,0.0,0.0,0.0,0.0,0.0,0.0,0.0,0.0,0.0,0.0,0.0,0.0,0.0,0.0,0.0,0.0,0.0,0.0,0.0,-3.8191,-3.8617,-3.8115,-3.8065,-3.8617,-3.809,-3.8015,-3.8442,-3.7889,-3.7588,-3.7588,-3.7588,-3.7588,-3.7588,-3.7739,-3.804,-3.8517,-3.9622,-3.9873,-3.9521,-4.0074,-4.0074,-3.9697,-3.9697,-3.9697,-3.9697,-3.9697,-3.9697,-3.9697,0.0,0.0,0.0,0.0,0.0,0.0,0.0,0.0,0.0,0.0,0.0,-3.4397,-3.4397,-3.4397,-3.4397,-3.4397,-3.4397,-3.4397,-3.4397,-3.4397,-3.4397,-3.4397,-3.4397,0.0,-3.4397,-3.4397,-3.4397,-3.4397,-3.5547,-3.6985,-3.8684,-3.9834,-4.0958,-4.2002,-4.0827,-3.939,-3.7769,-3.7194,-3.6593,-3.5913,-3.4842,-3.4397,-3.4397,-3.4397,-3.4397,-3.4397,-3.4397,-3.4397,-3.4397,0.0,0.0,0.0,0.0,-3.4371,-3.433,0.0,0.0,0.0,-3.2966,-3.2784,-3.2769,-3.3394,-3.4583,-3.5734,0.0,0.0,0.0,0.0,0.0,0.0,0.0,0.0,0.0,0.0,0.0,0.0,0.0,0.0,0.0,0.0,0.0,0.0,0.0,0.0,0.0,0.0,0.0,-3.8015,-3.804,-3.7538,-3.7487,-3.804,-3.7513,-3.7236,-3.7262,-3.6782,-3.648,-3.648,-3.648,-3.648,-3.6505,-3.6985,-3.7236,-3.7337,-3.8467,-3.8994,-3.8994,-3.9521,-3.9722,-3.9697,-3.9697,-3.9697,-3.9697,-3.9697,-3.9697,-3.9697,0.0,0.0,0.0,0.0,0.0,0.0,0.0,0.0,0.0,0.0,0.0,0.0,0.0,-3.4397,-3.4397,-3.4397,-3.4397,-3.4397,-3.4397,-3.4397,-3.4397,-3.4397,-3.4397,-3.4397,-3.4397,-3.4397,-3.4397,-3.4397,-3.5208,-3.6488,-3.8214,-3.8972,-3.9939,-4.1036,-4.0592,-3.9494,-3.7848,-3.6854,-3.5887,-3.4972,-3.4554,-3.4397,-3.4397,-3.4397,-3.4633,-3.4972,-3.4972,0.0,0.0,0.0,0.0,0.0,0.0,0.0,-3.4277,-3.369,-3.3307,-3.2993,-3.247,-3.222,-3.2291,-3.2726,-3.3503,-3.4275,-3.4695,-3.5906,0.0,0.0,0.0,0.0,0.0,0.0,0.0,0.0,0.0,0.0,0.0,0.0,0.0,0.0,0.0,0.0,0.0,0.0,0.0,0.0,0.0,0.0,-3.7462,-3.7008,-3.6782,-3.6983,-3.6807,-3.6707,-3.6707,-3.6505,-3.6405,-3.6405,-3.6405,-3.6405,-3.6405,-3.6606,-3.6707,-3.6757,-3.7462,-3.8191,-3.8969,-3.9471,-3.9697,-3.9697,-3.9697,-3.9697,-3.9697,-3.9697,-3.9697,-3.9697,0.0,0.0,0.0,-3.4397,0.0,-3.4397,-3.4397,-3.4397,-3.4397,-3.4397,0.0,0.0,0.0,0.0,-3.4397,-3.4397,-3.4397,-3.4397,-3.4397,-3.4397,-3.4397,-3.4397,-3.4397,-3.4397,-3.4397,-3.4214,-3.4214,-3.4397,-3.4789,-3.5887,-3.7612,-3.8161,-3.905,-4.0122,-3.973,-3.905,-3.8109,-3.7116,-3.6149,-3.5234,-3.4868,-3.4816,-3.4972,-3.4972,-3.5208,-3.5574,-3.5574,0.0,0.0,0.0,0.0,0.0,0.0,0.0,0.0,-3.3539,-3.3187,-3.2861,-3.2026,-3.1703,-3.1675,-3.2117,-3.2532,-3.2946,-3.3488,0.0,0.0,0.0,0.0,0.0,0.0,0.0,0.0,0.0,0.0,0.0,0.0,0.0,0.0,0.0,0.0,0.0,0.0,0.0,0.0,0.0,0.0,0.0,-3.6885,-3.6606,-3.6405,-3.6405,-3.6405,-3.6405,-3.6405,-3.6405,-3.6405,-3.6405,-3.6405,-3.6405,-3.6405,-3.6405,-3.6405,-3.643,-3.6807,-3.7437,-3.8341,-3.8894,-3.9245,-3.9421,-3.9421,-3.9521,-3.9697,-3.9697,-3.9697,-3.9697,0.0,-3.4397,-3.4397,-3.4397,-3.4397,-3.4397,-3.4397,-3.4397,-3.4397,-3.4397,0.0,0.0,0.0,0.0,0.0,-3.4424,-3.4424,-3.4424,-3.4397,-3.4397,-3.4397,-3.4397,-3.4424,-3.4424,-3.4424,-3.3927,-3.3901,-3.445,-3.4424,-3.5286,-3.6985,-3.756,-3.8423,-3.9494,-3.837,-3.8161,-3.8606,-3.8083,-3.7508,-3.6854,-3.5757,-3.5626,-3.6096,-3.6096,-3.6123,-3.6123,-3.6123,-3.6149,0.0,-3.6149,0.0,0.0,0.0,0.0,0.0,0.0,-3.3143,-3.2528,0.0,0.0,0.0,-3.1512,-3.1671,0.0,-3.281,0.0,0.0,0.0,0.0,0.0,0.0,0.0,0.0,0.0,0.0,0.0,0.0,0.0,0.0,0.0,0.0,0.0,0.0,0.0,0.0,0.0,0.0,-3.6405,-3.6405,-3.6405,-3.6405,-3.6405,-3.6405,-3.6405,-3.6405,-3.6405,-3.6405,-3.6405,-3.6405,-3.6405,-3.6405,-3.6405,-3.6405,-3.6405,-3.6405,-3.6707,-3.7211,-3.7764,-3.8341,-3.8919,-3.8919,-3.922,-3.9697,-3.9697,-3.9697,-3.9697,-3.4397,-3.4397,-3.4397,-3.4397,-3.4397,-3.4397,-3.4397,-3.4397,-3.4397,0.0,0.0,0.0,-3.4397,-3.4789,-3.5051,-3.5051,-3.5051,-3.4868,-3.4424,-3.4397,-3.4397,-3.4397,-3.4816,-3.5051,-3.5051,-3.4894,-3.5077,-3.5626,-3.4789,-3.5077,-3.6358,-3.6123,-3.6619,-3.7717,-3.7403,-3.709,-3.6802,-3.6671,-3.6279,-3.5783,-3.5861,-3.5966,-3.6096,-3.6096,-3.6384,0.0,0.0,-3.7037,-3.7351,0.0,-3.6645,-3.6384,0.0,0.0,-3.4214,0.0,0.0,-3.2424,-3.1266,0.0,0.0,0.0,0.0,0.0,-3.1276,-3.2014,0.0,0.0,0.0,0.0,0.0,0.0,0.0,0.0,0.0,0.0,0.0,0.0,0.0,0.0,0.0,0.0,0.0,0.0,0.0,0.0,-3.6405,-3.6405,-3.6405,-3.6405,-3.6405,-3.6405,-3.6405,-3.6405,-3.6405,-3.6405,-3.6405,-3.6405,-3.6405,-3.6405,-3.6405,-3.6405,-3.6405,-3.6405,-3.6405,-3.6505,-3.6681,-3.7186,-3.799,-3.8919,-3.8919,-3.922,-3.9697,-3.9697,-3.9697,-3.9697,-3.4397,-3.4397,-3.4397,-3.4397,-3.4607,-3.4685,-3.4424,-3.4607,-3.4685,0.0,0.0,0.0,-3.5077,-3.5652,-3.5913,-3.5652,-3.5626,-3.5495,-3.5129,-3.5103,-3.5103,-3.5103,-3.5443,-3.5626,-3.5626,-3.5155,-3.5208,-3.5757,-3.4633,-3.4528,-3.5391,-3.5077,-3.5286,-3.5913,-3.5913,-3.573,-3.5417,-3.5652,-3.5704,-3.5652,-3.5966,-3.6541,-3.7194,-3.7194,-3.756,0.0,0.0,0.0,-3.8187,-3.7821,-3.722,0.0,0.0,0.0,0.0,0.0,0.0,-3.245,-3.1344,-3.0929,-3.075,0.0,0.0,0.0,-3.0637,-3.1125,-3.177,0.0,0.0,0.0,0.0,0.0,0.0,0.0,0.0,0.0,0.0,0.0,0.0,0.0,0.0,0.0,0.0,0.0,0.0,-3.6405,-3.6405,-3.6405,-3.6405,-3.6405,-3.6405,-3.6405,-3.6405,-3.6405,-3.6405,-3.6405,-3.6405,-3.6405,-3.6405,-3.6405,-3.6405,-3.6405,-3.6405,-3.6405,-3.6405,-3.6405,-3.643,-3.6757,-3.7487,-3.8517,-3.8517,-3.8994,-3.9697,-3.9697,-3.9697,-3.9697,0.0,-3.4397,-3.4424,-3.4476,-3.4946,-3.5129,-3.4659,-3.4999,-3.5129,0.0,-3.5103,-3.5704,-3.6253,-3.6776,-3.6854,-3.6253,-3.6201,-3.6175,-3.6096,-3.6096,-3.6096,-3.6096,-3.6175,-3.6201,-3.6201,-3.5129,-3.4868,-3.5495,-3.4267,-3.3953,-3.4502,-3.4424,-3.4397,-3.4397,-3.4397,-3.4397,-3.4424,-3.4972,-3.5547,-3.6123,-3.6253,-3.7273,-3.871,-3.8789,-3.9128,-3.9599,-3.9599,-3.9259,-3.8789,-3.8736,-3.7586,0.0,0.0,0.0,0.0,0.0,-3.3169,-3.2528,-3.1734,-3.1265,-3.0953,0.0,0.0,0.0,-3.0604,-3.0705,-3.0936,0.0,0.0,0.0,0.0,0.0,0.0,0.0,0.0,0.0,0.0,0.0,0.0,0.0,0.0,0.0,0.0,-3.6229,-3.6229,-3.6229,-3.6279,-3.6355,-3.6405,-3.6405,-3.6405,-3.6405,-3.6405,-3.6405,-3.6405,-3.6405,-3.6405,-3.6405,-3.6405,-3.6405,-3.6405,-3.6405,-3.6405,-3.6405,-3.6405,-3.6405,-3.6405,-3.6405,-3.701,-3.8015,-3.8015,-3.8693,-3.9697,-3.9697,-3.9697,-3.9697,-3.4397,-3.4397,-3.4554,-3.5025,-3.5208,-3.5417,-3.573,-3.5495,-3.5417,-3.573,-3.6305,-3.6907,-3.7482,-3.7665,-3.7482,-3.6881,-3.6828,-3.6619,-3.6149,-3.6096,-3.6096,-3.6096,-3.6567,-3.6828,-3.6828,-3.6123,-3.607,-3.6671,-3.5025,-3.4554,-3.5103,-3.4633,-3.4397,-3.4397,-3.4397,-3.4397,-3.4397,-3.4528,-3.5155,-3.6175,-3.7168,-3.8031,-3.8762,-3.9259,-3.952,-3.9599,-3.9599,-3.9547,-3.9364,-3.8867,-3.7874,-3.6724,0.0,0.0,0.0,-3.3901,0.0,0.0,0.0,0.0,0.0,0.0,0.0,0.0,-3.0407,-3.0356,-3.0431,0.0,0.0,0.0,0.0,0.0,0.0,0.0,0.0,0.0,0.0,0.0,0.0,0.0,0.0,0.0,0.0,-3.5052,-3.5052,-3.5052,-3.5454,-3.5906,-3.638,-3.6405,-3.6405,-3.6405,-3.6405,-3.6405,-3.6405,-3.6405,-3.6405,-3.6405,-3.6405,-3.6405,-3.6405,-3.6405,-3.6405,-3.6405,-3.6405,-3.6405,-3.6405,-3.6405,-3.701,-3.8015,-3.8015,-3.8693,-3.9697,-3.9697,-3.9697,-3.9697,-3.4397,-3.4397,-3.458,-3.5182,-3.5521,-3.5783,-3.607,-3.6123,-3.6253,-3.6515,-3.7586,-3.8318,-3.8318,-3.8579,-3.8397,-3.7534,-3.7456,-3.7325,-3.7011,-3.7011,-3.7011,-3.7011,-3.7299,-3.7456,-3.7456,-3.6854,-3.6541,-3.6541,-3.5417,-3.4842,-3.4842,-3.4528,-3.4397,-3.4397,-3.4397,-3.4397,-3.4424,-3.4711,-3.5338,-3.6149,-3.675,-3.7874,-3.9181,-3.9494,-3.9965,-4.0461,-4.0461,-4.0095,-3.952,-3.8919,-3.7952,0.0,0.0,-3.6149,-3.5521,0.0,-3.3923,-3.3268,0.0,0.0,0.0,-3.0933,0.0,0.0,0.0,-3.0406,-3.0471,0.0,0.0,0.0,0.0,0.0,0.0,0.0,0.0,0.0,0.0,0.0,0.0,0.0,0.0,0.0,0.0,-3.468,-3.468,-3.468,-3.4931,-3.5253,-3.5529,-3.5554,-3.568,-3.5956,-3.5956,-3.6081,-3.6405,-3.6405,-3.6405,-3.6405,-3.6405,-3.6405,-3.6405,-3.6405,-3.6405,-3.6405,-3.6405,-3.6405,-3.6405,-3.6405,-3.6883,-3.7613,-3.7889,-3.8542,-3.932,-3.9597,-3.9697,-3.9697,-3.4397,-3.4397,-3.458,-3.5182,-3.573,-3.6149,-3.6253,-3.6698,-3.709,-3.7299,-3.8658,-3.9468,-3.9076,-3.939,-3.9337,-3.8632,-3.8161,-3.8031,-3.837,-3.8083,-3.79,-3.79,-3.79,-3.79,-3.79,-3.7299,-3.6698,-3.6096,-3.5574,-3.4999,-3.4397,-3.4397,-3.4397,-3.4397,-3.4528,-3.458,-3.4607,-3.5208,-3.5783,-3.6279,-3.6279,-3.7534,-3.9468,-3.9677,-4.0282,-4.1067,-4.1121,-4.0418,-3.9425,-3.8908,-3.797,-3.7007,-3.6948,-3.6582,0.0,0.0,0.0,0.0,0.0,0.0,0.0,0.0,0.0,-3.1513,0.0,0.0,0.0,0.0,0.0,0.0,0.0,0.0,0.0,0.0,0.0,0.0,0.0,0.0,0.0,0.0,0.0,0.0,0.0,-3.4444,-3.4494,-3.455,-3.455,-3.4645,-3.4726,-3.468,-3.4881,-3.5332,-3.5433,-3.5708,-3.6207,-3.6355,-3.6405,-3.6405,-3.6405,-3.6405,-3.6405,-3.6405,-3.6405,-3.6405,-3.6405,-3.6405,-3.6405,-3.6405,-3.6681,-3.7086,-3.7638,-3.8266,-3.8919,-3.9371,-3.9597,-3.9697,-3.4397,-3.4397,-3.458,-3.5182,-3.573,-3.6279,-3.6828,-3.6959,-3.7377,-3.837,-3.9155,-3.9756,-4.0174,-3.986,-3.9965,-4.0853,-3.9076,-3.8527,-4.0043,-3.8736,-3.79,-3.79,-3.79,-3.79,-3.79,-3.7299,-3.6698,-3.6096,-3.5574,-3.4999,-3.4397,-3.4397,-3.4397,-3.4424,-3.4946,-3.5208,-3.5234,-3.5783,-3.6358,-3.6907,-3.6907,-3.7665,0.0,-3.9939,-4.0213,-4.0223,-4.0463,-4.0022,-3.9188,0.0,-3.8049,-3.7021,0.0,-3.6483,-3.6193,0.0,0.0,0.0,0.0,0.0,0.0,0.0,-3.1731,0.0,0.0,0.0,0.0,0.0,0.0,0.0,0.0,0.0,0.0,0.0,0.0,0.0,0.0,0.0,0.0,0.0,0.0,0.0,0.0,0.0,-3.3662,-3.3947,-3.4149,-3.4376,-3.47,-3.468,-3.4751,-3.4781,-3.5232,-3.5533,-3.5583,-3.6107,-3.6405,-3.6405,-3.6405,-3.6405,-3.6405,-3.6405,-3.6405,-3.6405,-3.6405,-3.6405,-3.6405,-3.6405,-3.6455,-3.6556,-3.7061,-3.7939,-3.8919,-3.8994,-3.927,-3.9697,-3.4397,-3.4397,-3.458,-3.5182,-3.5495,-3.5835,-3.6384,-3.7351,-3.8161,-3.8658,-3.9808,-4.0697,-4.0906,-4.0723,-4.0644,-4.0775,-3.9625,-3.905,0.0,0.0,-3.79,-3.79,-3.79,-3.79,-3.79,-3.7665,-3.722,-3.6619,-3.6044,-3.5469,-3.492,-3.4554,-3.458,-3.492,-3.5182,-3.5469,-3.5809,-3.6384,-3.6776,-3.7037,0.0,-3.7821,0.0,-3.9128,-3.9737,-4.0265,-4.04,-4.0034,-3.9407,0.0,-3.8295,0.0,0.0,0.0,0.0,0.0,0.0,0.0,0.0,0.0,0.0,0.0,0.0,0.0,-3.2252,0.0,-3.1759,0.0,0.0,0.0,0.0,0.0,0.0,0.0,0.0,0.0,0.0,0.0,0.0,0.0,0.0,0.0,0.0,0.0,0.0,0.0,0.0,-3.3864,-3.4223,-3.4248,-3.455,-3.5132,-3.5382,-3.5658,-3.6006,-3.6279,-3.6405,-3.6405,-3.6405,-3.6405,-3.6405,-3.6405,-3.6405,-3.6405,-3.6405,-3.6405,-3.6405,-3.6405,-3.6405,-3.6455,-3.696,-3.7663,-3.8442,-3.9094,-3.9496,-3.9697,-3.4397,-3.4397,-3.4528,-3.4972,-3.5182,-3.5469,-3.6018,-3.7325,-3.8344,-3.8658,-3.9808,-4.0853,-4.1481,-4.1559,-4.1638,-4.1821,-4.1036,-4.0357,0.0,0.0,-3.824,0.0,0.0,0.0,0.0,-3.79,-3.7612,-3.7011,-3.641,-3.5835,-3.5286,-3.4685,-3.4633,-3.5077,-3.5391,-3.573,-3.6149,-3.6933,-3.7246,-3.7299,-3.7625,-3.7762,-3.7768,-3.8267,-3.912,-4.0028,-3.9832,-3.9447,-3.9029,-3.8714,-3.8079,0.0,-3.7299,0.0,0.0,0.0,0.0,0.0,-3.535,0.0,0.0,0.0,0.0,0.0,0.0,0.0,0.0,0.0,0.0,0.0,0.0,0.0,0.0,0.0,0.0,0.0,0.0,0.0,0.0,0.0,0.0,0.0,0.0,0.0,0.0,0.0,0.0,0.0,-3.3646,-3.3822,-3.4274,-3.5031,-3.5332,-3.5683,-3.6132,-3.6329,-3.6405,-3.6405,-3.6452,-3.6452,-3.6405,-3.6452,-3.6452,-3.6405,-3.6405,-3.6405,-3.6405,-3.6405,-3.6452,-3.6575,-3.7232,-3.781,-3.8313,-3.9145,-3.9572,-3.9697,-3.4397,-3.4397,-3.4397,-3.4424,-3.492,-3.5469,-3.6018,-3.6645,-3.7456,-3.8579,-3.8762,-3.9651,-4.195,-4.2185,0.0,0.0,0.0,-4.2892,-4.2892,0.0,-3.905,0.0,0.0,-3.79,0.0,0.0,0.0,-3.7011,-3.641,-3.5835,-3.5286,-3.4685,-3.4397,-3.4476,-3.5574,-3.6096,-3.6175,-3.7377,-3.7874,-3.7828,-3.7598,-3.7366,-3.716,0.0,-3.8457,-3.9117,-3.8385,0.0,0.0,-3.7356,-3.7235,0.0,0.0,0.0,0.0,0.0,0.0,0.0,0.0,0.0,0.0,-3.4262,0.0,0.0,0.0,0.0,-3.2793,0.0,0.0,0.0,0.0,0.0,-3.1588,-3.1078,0.0,0.0,0.0,0.0,0.0,0.0,0.0,0.0,0.0,0.0,0.0,0.0,0.0,0.0,-3.3136,-3.3621,-3.3922,-3.3947,-3.4931,-3.5508,-3.5533,-3.6107,-3.6405,-3.6405,-3.6593,-3.6593,-3.6405,-3.6593,-3.6593,-3.6405,-3.6405,-3.6405,-3.6405,-3.6405,-3.6499,-3.6789,-3.7904,-3.853,-3.8802,-3.8868,-3.922,-3.9697,-3.4397,-3.4397,-3.4397,-3.4397,-3.458,-3.4894,-3.5495,-3.6384,-3.7952,-4.0644,-4.1664,0.0,0.0,-4.6395,-4.663,0.0,0.0,-4.4565,-4.4119,-4.2004,0.0,0.0,0.0,-3.8449,0.0,0.0,0.0,0.0,-3.641,-3.5835,-3.5286,-3.4685,-3.4607,-3.4999,-3.5391,-3.5992,-3.6724,-3.7142,0.0,0.0,0.0,-3.7526,-3.7599,0.0,0.0,-3.8357,-3.8117,-3.8171,0.0,-3.8081,-3.7731,-3.745,-3.7343,-3.7023,-3.6679,-3.6691,-3.6672,0.0,0.0,0.0,-3.6922,-3.5894,0.0,0.0,0.0,0.0,0.0,0.0,0.0,0.0,0.0,0.0,-3.2228,-3.1615,-3.151,-3.1301,0.0,0.0,0.0,0.0,0.0,0.0,0.0,0.0,0.0,0.0,0.0,0.0,0.0,-3.4325,-3.476,-3.4931,-3.5705,-3.6081,-3.6081,-3.6329,-3.6405,-3.6405,-3.6593,-3.6593,-3.6405,-3.6615,-3.6593,-3.6405,-3.6546,-3.6593,-3.6615,-3.6781,-3.7151,-3.7607,-3.8347,-3.8981,-3.944,-3.9803,-3.9982,-3.9981,-3.445,-3.4397,-3.4397,-3.4397,-3.4397,-3.4607,-3.5208,0.0,0.0,0.0,-4.4122,0.0,-4.8826,0.0,-4.927,0.0,-4.8512,-4.697,-4.5111,-4.3859,0.0,-4.0488,-3.9913,0.0,0.0,0.0,0.0,0.0,0.0,-3.5913,-3.5574,-3.4763,-3.4607,-3.4972,-3.5208,-3.5809,-3.6698,-3.6907,-3.7351,0.0,0.0,-3.7386,0.0,0.0,-3.7279,-3.7811,0.0,-3.7664,-3.7896,-3.7777,-3.7579,-3.7402,-3.7248,-3.6928,-3.6707,-3.6824,-3.7029,-3.7236,-3.7412,-3.7837,0.0,-3.6933,-3.6991,0.0,-3.5552,0.0,0.0,0.0,0.0,0.0,0.0,0.0,-3.2829,-3.2228,-3.1928,-3.1615,0.0,-3.0973,0.0,0.0,0.0,0.0,0.0,0.0,0.0,0.0,0.0,0.0,0.0,0.0,-3.5173,-3.5344,-3.6028,-3.6452,-3.6499,-3.6499,-3.6499,-3.6499,-3.6828,-3.6828,-3.6499,-3.6937,-3.7039,-3.6849,-3.7194,-3.7365,-3.7461,-3.765,-3.7976,-3.8482,-3.9023,-3.9558,-3.9971,-4.0337,-4.0389,-4.0236,-3.4502,-3.4397,-3.4397,-3.4424,-3.445,-3.4633,-3.5234,0.0,-4.1559,0.0,-4.5846,-4.8564,-4.927,-5.0289,-5.0943,-5.0969,-5.1361,-5.0002,-4.6212,-4.6342,0.0,0.0,-4.1167,-4.088,-3.9756,0.0,0.0,0.0,0.0,-3.6096,-3.6044,-3.492,-3.4397,-3.4424,-3.4999,-3.5574,-3.6149,-3.6724,-3.7325,-3.7854,-3.732,-3.6854,-3.6455,-3.643,-3.69,-3.7473,-3.6701,-3.643,-3.6455,-3.6455,-3.6807,-3.7086,-3.6606,-3.6782,-3.7136,-3.7136,-3.7186,-3.7337,-3.7864,-3.804,-3.7965,-3.7412,0.0,0.0,0.0,0.0,-3.6924,0.0,0.0,0.0,0.0,0.0,0.0,-3.2829,-3.2254,-3.1667,-3.1156,0.0,0.0,0.0,0.0,0.0,0.0,0.0,0.0,0.0,0.0,0.0,0.0,0.0,-3.5156,-3.5111,-3.5991,-3.6546,-3.6709,-3.6709,-3.6709,-3.6709,-3.7299,-3.7253,-3.6785,-3.7581,-3.7862,-3.7696,-3.818,-3.8605,-3.8823,-3.8823,-3.902,-3.934,-3.9884,-4.0239,-4.0441,-4.0488,-4.0542,-4.0567,-3.4424,-3.4397,-3.4528,-3.4999,-3.5077,-3.526,0.0,0.0,0.0,0.0,-4.8146,-5.0838,-5.2694,-5.2798,-5.2877,-5.3295,-5.2276,0.0,0.0,0.0,0.0,-4.5555,-4.3597,-4.2239,-4.1533,-4.0122,0.0,-3.79,0.0,-3.5887,-3.5495,-3.4737,-3.4397,-3.4397,-3.4554,-3.5182,-3.6123,-3.6279,-3.6798,-3.7551,-3.7273,-3.7177,0.0,0.0,-3.6804,-3.7207,-3.6606,-3.6681,-3.696,-3.696,-3.7061,-3.7161,-3.701,-3.6832,-3.6631,-3.6631,-3.7161,-3.7814,-3.7965,-3.8617,-3.912,-3.8617,-3.8641,-3.8588,0.0,0.0,0.0,0.0,0.0,0.0,0.0,0.0,0.0,-3.3535,-3.2855,0.0,0.0,0.0,0.0,-3.3273,0.0,0.0,0.0,0.0,0.0,0.0,0.0,0.0,0.0,0.0,0.0,-3.5309,-3.6335,-3.6968,-3.7015,-3.7015,-3.7015,-3.7015,-3.7779,-3.7985,-3.768,-3.8482,-3.874,-3.8498,-3.8846,-3.9043,-3.9091,-3.931,-3.9689,-4.0129,-4.0259,-4.0647,-4.1065,-4.0844,-4.0896,-4.1073,-3.4789,-3.5182,-3.5547,-3.5626,0.0,0.0,-3.837,-4.0252,0.0,-4.6055,-4.9427,0.0,-5.2616,-5.3792,-5.4524,-5.4602,-5.3687,0.0,-5.1805,0.0,0.0,-4.7048,-4.5401,-4.3912,-4.2579,-4.0853,0.0,-3.8266,0.0,-3.594,-3.5626,-3.4789,-3.4397,-3.4397,-3.4685,-3.5243,-3.5999,-3.6493,-3.6955,-3.732,-3.7155,0.0,0.0,-3.6679,-3.6757,-3.7111,-3.6606,-3.6606,-3.6908,-3.7111,-3.7186,-3.7186,-3.7186,-3.7136,-3.7136,-3.7436,-3.7889,-3.8442,-3.8668,-3.922,-3.9572,-3.9019,-3.907,-3.9069,-3.8388,-3.8171,-3.8019,0.0,0.0,0.0,0.0,0.0,0.0,0.0,0.0,0.0,0.0,0.0,0.0,0.0,0.0,0.0,0.0,0.0,0.0,0.0,0.0,0.0,0.0,0.0,0.0,-3.5442,-3.6683,-3.7318,-3.7273,-3.7552,-3.768,-3.768,-3.8225,-3.8536,-3.8556,-3.922,-3.9452,-3.9355,-3.9786,-3.9988,-4.0135,-4.0308,-4.054,-4.0801,-4.0801,-4.101,-4.1274,-4.1147,-4.1147,-4.1274,-3.5391,-3.6201,-3.675,0.0,0.0,0.0,0.0,-4.2683,0.0,-4.6604,0.0,-5.2328,-5.1256,-5.3792,-5.5386,-5.4916,0.0,-5.3844,-5.1387,-5.1884,-5.0707,-4.7205,-4.6682,-4.5454,-4.3284,-4.1455,0.0,0.0,0.0,-3.6096,-3.607,-3.492,-3.4397,-3.4424,-3.4982,-3.5479,0.0,-3.7111,-3.7413,-3.718,-3.7185,-3.7235,-3.7184,-3.6782,-3.6933,-3.7236,-3.6883,-3.6631,-3.6581,-3.701,-3.7186,-3.7186,-3.7262,-3.7563,-3.8015,-3.8592,-3.8869,-3.8969,-3.9446,-3.9597,-3.9471,-3.9045,-3.902,-3.8943,-3.8214,-3.8171,-3.8192,-3.7954,-3.7433,-3.7045,0.0,0.0,0.0,0.0,0.0,0.0,0.0,0.0,0.0,0.0,0.0,0.0,0.0,0.0,0.0,0.0,0.0,0.0,0.0,0.0,0.0,-3.555,-3.6866,0.0,-3.7681,0.0,-3.8402,-3.8558,-3.8721,-3.8986,-3.9366,-3.9936,-4.0195,-4.027,-4.0713,-4.1097,-4.1324,-4.1324,-4.1324,-4.1324,-4.1324,-4.1324,-4.1324,-4.1324,-4.135,-4.1428,-3.5861,-3.6123,-3.6384,0.0,0.0,-4.1664,-4.4407,-4.7388,-4.9296,-4.9296,-5.1988,-5.3661,-5.3008,-5.3478,-5.3792,-5.3713,-5.3687,0.0,0.0,0.0,0.0,-5.0054,-4.7754,-4.5846,-4.4407,-4.2265,-4.0592,0.0,0.0,-3.6096,-3.607,-3.492,-3.4397,-3.4424,-3.4786,-3.5512,-3.6522,-3.7449,0.0,-3.7464,-3.7668,-3.7687,-3.7526,-3.7686,-3.7789,-3.7914,-3.8291,-3.7888,-3.7061,-3.7161,-3.7186,-3.7262,-3.7713,-3.7613,-3.7437,-3.799,-3.8492,-3.8944,-3.8994,-3.9019,-3.9045,-3.8944,-3.8567,-3.8239,-3.8287,-3.8026,-3.7789,-3.7932,-3.7702,-3.724,-3.6748,0.0,0.0,0.0,0.0,0.0,0.0,0.0,0.0,0.0,0.0,0.0,0.0,0.0,0.0,0.0,0.0,0.0,0.0,0.0,0.0,0.0,-3.6988,0.0,0.0,0.0,-3.8481,-3.942,-3.9394,-3.9681,-4.0181,-4.078,-4.1067,-4.1117,-4.1172,-4.1274,-4.1324,-4.1324,-4.1324,-4.1324,-4.1324,-4.1324,-4.1324,-4.1324,-4.1611,-4.2004,-3.6515,0.0,-3.7743,0.0,0.0,0.0,0.0,-4.9714,-5.1492,-4.9714,-5.0681,-5.1439,-5.1178,-5.2485,-5.3269,-5.2955,-5.2929,-5.2772,-5.2459,-5.1413,-5.0394,-4.9479,-4.7832,0.0,-4.433,-4.2631,-4.1063,-3.9599,0.0,0.0,-3.6096,-3.5547,-3.5129,-3.4894,-3.5522,-3.6333,0.0,0.0,0.0,-3.7299,-3.7629,-3.7749,-3.7834,-3.7964,-3.8191,-3.8442,-3.8442,-3.8266,-3.8065,-3.8065,-3.7864,-3.7713,-3.8291,-3.8467,-3.8542,-3.8793,-3.9094,-3.9295,-3.9295,-3.9295,-3.922,-3.8994,-3.8668,-3.8517,-3.8617,-3.8108,-3.7721,-3.8123,-3.7723,-3.7217,-3.7071,-3.6689,0.0,0.0,0.0,0.0,0.0,0.0,0.0,0.0,0.0,0.0,0.0,0.0,0.0,0.0,0.0,0.0,0.0,0.0,0.0,0.0,0.0,0.0,0.0,0.0,0.0,-3.9599,-3.9886,-4.0331,-4.0906,-4.1193,-4.1324,-4.1324,-4.1324,-4.1324,-4.1324,-4.1324,-4.1324,-4.1324,-4.1324,-4.1324,-4.135,-4.1638,-4.1925,-4.2211,-3.7665,-3.8449,0.0,0.0,-4.4016,0.0,-4.7074,-5.0289,-5.1962,-5.0054,-4.9819,-4.9819,-4.9819,-5.1831,-5.2955,-5.2354,-5.2302,-5.1884,-5.0864,-5.0446,-4.961,-4.825,-4.7414,-4.6003,-4.3912,-4.2813,-4.1376,0.0,0.0,0.0,0.0,-3.6227,-3.5896,0.0,0.0,0.0,0.0,0.0,-3.7334,-3.7292,-3.7769,-3.8059,-3.8191,-3.8316,-3.8642,-3.8994,-3.8517,-3.8592,-3.8944,-3.9045,-3.8668,-3.8291,-3.8868,-3.927,-3.9546,-3.9672,-3.9697,-3.9697,-3.9697,-3.9622,-3.9421,-3.902,-3.8768,-3.8693,-3.8693,-3.8111,-3.7602,-3.8057,-3.7588,-3.7201,-3.7505,-3.7208,0.0,0.0,0.0,0.0,0.0,0.0,0.0,0.0,0.0,0.0,0.0,0.0,0.0,0.0,0.0,0.0,0.0,0.0,0.0,0.0,0.0,-3.752,-3.8083,0.0,-3.9547,0.0,-4.02,-4.0723,-4.1324,-4.1324,-4.1324,-4.1324,-4.1324,-4.1324,-4.1324,-4.1324,-4.1324,-4.1324,-4.1324,-4.1402,-4.1559,-4.2004,-4.2368,-4.2578,0.0,0.0,0.0,0.0,0.0,0.0,-4.6552,-4.8643,-5.0681,-5.2014,-5.2171,-5.2171,-5.2171,-5.2406,-5.2328,-5.1727,-5.1675,-5.1413,-5.0838,-4.9296,-4.8355,-4.8198,-4.6656,-4.5192,-4.3965,-4.2813,-4.1559,0.0,0.0,0.0,0.0,0.0,0.0,0.0,0.0,0.0,0.0,-3.8002,-3.8019,-3.7932,-3.8712,-3.8994,-3.8894,-3.9346,-3.9572,-3.9622,-3.9546,-3.9245,-3.8994,-3.9446,-3.9245,-3.8894,-3.9446,-3.932,-3.9095,-3.9546,-3.9697,-3.9697,-3.9697,-3.932,-3.8944,-3.8894,-3.8467,-3.809,-3.809,-3.7662,-3.726,-3.731,-3.7213,-3.7248,-3.7762,-3.7802,-3.7776,0.0,0.0,0.0,0.0,0.0,0.0,0.0,0.0,0.0,0.0,0.0,0.0,0.0,0.0,0.0,0.0,0.0,0.0,-3.5745,0.0,-3.7286,-3.8632,-3.8736,0.0,-4.0357,-4.0383,-4.0723,-4.1324,-4.1324,-4.1324,-4.1324,-4.1324,-4.1324,-4.1324,-4.1324,-4.1324,-4.1324,-4.1324,-4.1638,-4.2133,-4.2185,-4.2866,-4.3755,0.0,0.0,0.0,0.0,0.0,0.0,0.0,-4.9087,-5.0132,-5.0838,-5.0943,-5.1073,-5.1439,-5.1152,-5.0838,-5.0603,-5.0289,-4.9845,-4.927,-4.825,-4.7519,-4.7179,-4.6186,-4.4905,-4.3389,-4.2918,-4.1925,0.0,0.0,0.0,0.0,0.0,0.0,0.0,0.0,-3.8324,-3.873,-3.8652,-3.8563,-3.8469,-3.8842,-3.8969,-3.8969,-3.9471,-3.9697,-3.9697,-3.9697,-3.9546,-3.9396,-3.9622,-3.932,-3.8969,-3.9521,-3.9546,-3.9396,-3.9622,-3.9697,-3.9697,-3.9697,-3.9521,-3.9371,-3.9371,-3.9195,-3.9019,-3.9019,-3.8316,-3.7688,-3.7688,-3.7177,-3.6828,-3.732,-3.732,-3.732,0.0,0.0,0.0,0.0,0.0,0.0,0.0,0.0,0.0,0.0,0.0,0.0,0.0,0.0,0.0,0.0,0.0,0.0,-3.5789,0.0,-3.7443,-3.871,-3.9076,-3.9651,-4.0409,-4.0775,-4.1089,-4.1324,-4.1324,-4.1324,-4.1324,-4.1324,-4.1324,-4.1324,-4.1324,-4.1324,-4.135,-4.169,-4.1977,-4.229,-4.2996,-4.352,-4.3912,-4.3572,0.0,-4.4278,0.0,-4.6604,-4.7336,-4.8407,-4.9035,-4.9401,-4.9401,-4.9401,-4.9688,-5.0446,-5.0159,-4.9819,-4.9662,-4.9296,-4.8747,-4.7989,-4.7388,-4.6839,-4.6264,-4.5663,0.0,-4.331,-4.3101,-4.2343,-4.0932,-4.02,0.0,0.0,0.0,0.0,0.0,-3.8972,-3.9207,-3.9577,-3.9272,-3.9128,-3.9032,-3.9171,-3.9221,-3.917,-3.9546,-3.9697,-3.9697,-3.9697,-3.9697,-3.9697,-3.9697,-3.9446,-3.917,-3.9572,-3.9697,-3.9697,-3.9697,-3.9697,-3.9697,-3.9697,-3.9697,-3.9697,-3.9697,-3.9697,-3.9697,-3.9697,-3.8818,-3.7914,-3.7686,-3.7054,-3.6593,-3.7015,-3.6968,-3.6968,-3.732,0.0,0.0,0.0,0.0,0.0,0.0,0.0,-3.5992,-3.4999,0.0,0.0,0.0,0.0,0.0,0.0,0.0,0.0,0.0,0.0,0.0,0.0,-3.9311,-3.9886,-4.0435,-4.1036,-4.1324,-4.1324,-4.1324,-4.1324,-4.1324,-4.1324,-4.1324,-4.1324,-4.1324,-4.1324,-4.1376,-4.1951,-4.2316,-4.2526,-4.3572,-4.3964,-4.4173,-4.514,-4.5584,-4.5895,-4.7043,-4.778,-4.7989,-4.744,-4.7832,-4.8198,-4.8198,-4.8198,-4.8643,-4.9766,-4.9897,-4.9688,-4.9139,-4.9087,-4.859,-4.7357,-4.6813,-4.6238,0.0,0.0,-4.446,-4.3912,-4.331,-4.2735,-4.2185,0.0,0.0,-4.0383,0.0,-3.9599,-3.9599,-3.9599,-3.9599,-3.9603,-3.9907,-3.9818,-3.9621,-3.9931,-3.9929,-3.9697,-3.9697,-3.9697,-3.9697,-3.9697,-3.9697,-3.9697,-3.9697,-3.9697,-3.9697,-3.9697,-3.9697,-3.9697,-3.9697,-3.9697,-3.9697,-3.9697,-3.9697,-3.9697,-3.9697,-3.9697,-3.9697,-3.9697,-3.8818,-3.7737,-3.6868,-3.6734,-3.6756,-3.7062,-3.7108,-3.7108,-3.7108,0.0,0.0,0.0,0.0,0.0,0.0,-3.6985,-3.675,-3.6149,0.0,0.0,0.0,0.0,0.0,0.0,0.0,0.0,-3.6644,-3.6876,0.0,-3.871,-3.9311,-3.9886,-4.0435,-4.1036,-4.1324,-4.1324,-4.1324,-4.1324,-4.1324,-4.1324,-4.1324,-4.1324,-4.1324,-4.1324,-4.1376,-4.1951,-4.25,-4.3075,-4.365,-4.4225,-4.4668,-4.6656,-4.71,-4.7492,-4.7858,-4.7728,-4.7675,-4.7885,-4.7728,-4.7597,-4.7597,-4.7937,-4.8172,-4.8146,-4.8486,-4.8826,0.0,-4.8355,-4.7728,0.0,-4.6421,-4.582,-4.5637,-4.467,-4.3885,-4.331,-4.2735,-4.216,-4.1585,0.0,0.0,0.0,-3.9677,-3.9808,-4.0148,-4.0148,-4.0383,-4.0726,-4.0659,-4.0461,-4.0184,-4.0109,-3.9929,-3.9697,-3.9697,-3.9697,-3.9697,-3.9697,-3.9697,-3.9697,-3.9697,-3.9697,-3.9697,-3.9697,-3.9697,-3.9697,-3.9697,-3.9697,-3.9697,-3.9697,-3.9697,-3.9697,-3.9697,-3.9697,-3.9697,-3.9697,-3.912,-3.8316,-3.7258,-3.7054,-3.7001,-3.6832,-3.6734,-3.6687,-3.6828,-3.6968,0.0,0.0,0.0,0.0,0.0,-3.7011,-3.6776,0.0,-3.594,0.0,0.0,0.0,0.0,0.0,0.0,0.0,0.0,-3.7723,0.0,-3.9311,-3.9886,-4.0461,-4.1036,-4.1219,-4.1324,-4.1324,-4.1324,-4.1324,-4.1324,-4.1324,-4.1324,-4.1324,-4.1324,-4.1533,-4.1951,-4.2526,-4.3101,-4.3676,-4.4251,-4.4565,-4.4746,-4.697,-4.731,-4.7466,-4.7257,-4.71,-4.7074,-4.7205,-4.71,-4.7022,-4.7022,-4.731,-4.7414,-4.7048,-4.7336,0.0,-4.8381,-4.7754,-4.7096,-4.6678,-4.5764,-4.5297,-4.5297,-4.4382,-4.3702,-4.3363,0.0,0.0,-4.1638,-4.1036,-4.0592,-4.0252,-4.0252,-4.0435,-4.0749,-4.0749,-4.0958,-4.1274,-4.1097,-4.0896,-4.0643,-4.0338,-4.0083,-3.9826,-3.9749,-3.9697,-3.9697,-3.9697,-3.9697,-3.9697,-3.9697,-3.9697,-3.9697,-3.9697,-3.9697,-3.9697,-3.9697,-3.9697,-3.9697,-3.9697,-3.9697,-3.9697,-3.9697,-3.9697,-3.9647,-3.9421,-3.912,-3.8592,-3.7412,-3.7186,-3.7059,-3.6647,-3.6499,-3.6452,-3.6593,-3.6734,-3.6875,-3.6968,0.0,0.0,0.0,0.0,0.0,0.0,-3.6523,0.0,0.0,0.0,0.0,0.0,0.0,0.0,-3.7639,-3.8344,0.0,-3.9913,-4.0252,-4.0723,-4.1324,-4.1324,-4.1324,-4.1324,-4.1324,-4.1324,-4.1324,-4.1324,-4.1324,-4.1324,-4.1324,-4.1664,-4.2264,-4.2788,-4.3363,-4.3938,-4.4513,-4.4668,-4.4772,-4.6316,-4.6473,0.0,0.0,-4.6133,0.0,-4.5767,-4.6107,-4.6421,-4.6421,-4.6499,-4.6499,-4.6421,-4.6499,-4.6708,-4.7179,0.0,0.0,0.0,-4.5062,-4.4668,-4.4668,-4.4147,-4.3833,-4.3912,-4.3232,-4.2631,-4.2159,-4.1585,-4.1324,-4.1324,-4.1324,-4.1324,-4.1324,-4.1324,-4.1324,-4.1324,-4.1324,-4.1147,-4.0896,-4.0643,-4.0338,-4.0083,-3.9826,-3.9749,-3.9749,-3.9697,-3.9697,-3.9697,-3.9697,-3.9697,-3.9697,-3.9697,-3.9697,-3.9697,-3.9697,-3.9697,-3.9697,-3.9697,-3.9697,-3.9697,-3.9697,-3.9697,-3.9572,-3.9095,-3.8969,-3.8617,-3.7538,-3.7262,-3.7061,-3.6556,-3.643,-3.6405,-3.6405,-3.6405,-3.6499,-3.6662,0.0,0.0,0.0,0.0,0.0,0.0,-3.7241,-3.709,0.0,0.0,0.0,0.0,0.0,-3.7612,-3.8684,-3.8789,-3.9337,-4.0409,-4.0461,-4.0749,-4.1324,-4.1324,-4.1324,-4.1324,-4.1324,-4.1324,-4.1324,-4.1324,-4.1324,-4.1324,-4.1324,-4.1664,-4.2342,-4.2814,-4.3389,-4.399,-4.4539,-4.4668,-4.4772,0.0,0.0,-4.6944,-4.6369,-4.6395,-4.6421,-4.629,-4.6029,-4.582,-4.582,-4.6578,-4.6787,-4.5924,-4.6604,-4.6839,-4.6107,-4.5973,-4.5924,-4.5637,-4.5062,-4.4668,-4.4668,-4.3755,-4.3415,-4.3912,-4.2474,-4.1664,-4.1507,-4.1376,-4.1324,-4.1324,-4.1324,-4.1324,-4.1324,-4.1324,-4.1324,-4.1324,-4.1324,-4.1147,-4.0896,-4.0846,-4.0643,-4.0389,-4.0134,-4.0032,-3.9981,-3.98,-3.9697,-3.9697,-3.9697,-3.9697,-3.9697,-3.9697,-3.9697,-3.9697,-3.9697,-3.9697,-3.9697,-3.9697,-3.9697,-3.9697,-3.9697,-3.9697,-3.9672,-3.9521,-3.9496,-3.9295,-3.8617,-3.8115,-3.7638,-3.7086,-3.6707,-3.6405,-3.6405,-3.6546,-3.6662,-3.6662,-3.6875,0.0,0.0,-3.7366,-3.7505,-3.7505,-3.7632,-3.7874,0.0,0.0,0.0,0.0,-3.8553,-3.8423,-3.871,-3.9547,-4.0148,-4.0409,-4.088,-4.1167,-4.1324,-4.1324,-4.1324,-4.1324,-4.1324,-4.1324,-4.1324,-4.1324,-4.1324,-4.1324,-4.1324,-4.1925,-4.284,-4.2971,-4.365,-4.4539,-4.467,-4.4668,-4.4879,-4.5166,-4.566,-4.6055,-4.5741,-4.5689,-4.5689,-4.5689,-4.5401,-4.5218,-4.5218,-4.5712,-4.5898,-4.5297,-4.5712,-4.5842,-4.5216,-4.5454,-4.5451,-4.5245,-4.467,-4.446,-4.4668,-4.3885,-4.3546,-4.3912,-4.2709,-4.1847,-4.1324,-4.1324,-4.1324,-4.1324,-4.1324,-4.1324,-4.1324,-4.1324,-4.1324,-4.1324,-4.1324,-4.1198,-4.1047,-4.0946,-4.0795,-4.0643,-4.0236,-4.0083,-4.0083,-3.9929,-3.98,-3.9749,-3.9826,-3.98,-3.9697,-3.9697,-3.9697,-3.9697,-3.9697,-3.9697,-3.9697,-3.9697,-3.9697,-3.9697,-3.9697,-3.9697,-3.9697,-3.9697,-3.9697,-3.9546,-3.8994,-3.8617,-3.8241,-3.7663,-3.7111,-3.6782,-3.6782,-3.665,-3.6593,-3.6662,-3.6734,0.0,-3.6922,-3.7292,-3.7565,-3.7565,-3.8126,-3.86,-3.8886,0.0,0.0,-3.9573,-3.9451,-3.9399,-3.9494,-4.0095,-4.054,-4.0827,-4.1167,-4.1324,-4.1324,-4.1324,-4.1324,-4.1324,-4.1324,-4.1324,-4.1324,-4.1324,-4.1324,-4.1324,-4.1611,-4.2213,-4.3049,-4.331,-4.3938,-4.4668,-4.4668,-4.4668,-4.4905,-4.446,-4.467,-4.4722,-4.4668,-4.48,-4.4826,-4.4694,-4.4668,-4.4668,-4.4668,-4.4746,-4.4826,-4.4694,-4.4879,-4.4931,-4.4748,-4.5271,-4.532,-4.4774,-4.4278,-4.4225,-4.4642,-4.4095,-4.3781,-4.3912,-4.3232,-4.2369,-4.1324,-4.1324,-4.1324,-4.1324,-4.1324,-4.1324,-4.1324,-4.1324,-4.1324,-4.1324,-4.1324,-4.1324,-4.1274,-4.1047,-4.0946,-4.0896,-4.044,-4.0236,-4.0236,-4.0134,-3.9981,-3.9852,-4.0032,-3.9981,-3.98,-3.98,-3.9749,-3.9749,-3.9697,-3.9697,-3.9697,-3.9697,-3.9697,-3.9697,-3.9697,-3.9697,-3.9697,-3.9697,-3.9697,-3.9572,-3.9094,-3.8969,-3.8718,-3.8241,-3.7688,-3.7287,-3.7186,-3.6832,-3.6553,-3.664,0.0,-3.6578,-3.6767,-3.7295,-3.7724,-3.7746,-3.8614,-3.9239,-3.9366,-3.9288,-3.941,0.0,-4.0031,-4.0265,-4.054,-4.054,-4.0801,-4.1298,-4.1324,-4.1324,-4.1324,-4.1324,-4.135,-4.1428,-4.135,-4.135,-4.1428,-4.135,-4.1324,-4.135,-4.1925,-4.25,-4.3075,-4.365,-4.4225,-4.4668,-4.4668,-4.4668,-4.4879,-4.3807,-4.4408,-4.4748,-4.4722,-4.5085,-4.5323,-4.4746,-4.4668,-4.4668,-4.4668,-4.5111,-4.5297,-4.4774,-4.5611,-4.5794,-4.48,-4.5271,-4.532,-4.4774,-4.4643,-4.4643,-4.4668,-4.3729,-4.3389,-4.3912,-4.284,-4.1977,-4.1324,-4.1324,-4.1324,-4.1324,-4.1324,-4.1324,-4.1324,-4.1324,-4.1324,-4.1324,-4.1324,-4.1324,-4.1324,-4.1248,-4.1274,-4.1198,-4.0896,-4.0795,-4.0744,-4.0287,-4.0236,-4.0364,-4.0185,-4.0236,-4.0364,-4.0134,-4.0032,-3.9981,-3.98,-3.9697,-3.9697,-3.9697,-3.9697,-3.9697,-3.9697,-3.9697,-3.9697,-3.9697,-3.9697,-3.9672,-3.9597,-3.9195,-3.8894,-3.8793,-3.8266,-3.7739,-3.7262,-3.7111,-3.6933,-3.6528,0.0,-3.7109,-3.7109,-3.7806,-3.838,-3.8597,-3.8991,-3.9492,-4.0155,-3.9812,-3.9969,-4.101,-4.0595,-4.0595,-4.1167,-4.1167,-4.1219,-4.1324,-4.1324,-4.1324,-4.1324,-4.1324,-4.1559,-4.2004,-4.1533,-4.1585,-4.2004,-4.1533,-4.1324,-4.135,-4.1925,-4.25,-4.3075,-4.365,-4.4225,-4.4668,-4.4668,-4.4668,-4.4826,-4.331,-4.4147,-4.4643,-4.433,-4.4748,-4.5007,-4.472,-4.4668,-4.4668,-4.4668,-4.4903,-4.5111,-4.5218,-4.5401,-4.5584,-4.5663,-4.5637,-4.5451,-4.5164,-4.485,-4.4668,-4.4668,-4.4225,-4.3781,-4.3415,-4.2605,-4.1873,-4.1324,-4.1324,-4.1324,-4.1324,-4.1324,-4.1324,-4.1324,-4.1324,-4.1324,-4.1324,-4.1324,-4.1324,-4.1324,-4.1324,-4.1324,-4.1274,-4.0997,-4.0896,-4.0896,-4.0643,-4.0542,-4.0491,-4.0542,-4.0542,-4.0466,-4.0338,-4.0338,-4.0287,-4.016,-3.9955,-3.9749,-3.9878,-3.98,-3.9749,-3.9878,-3.98,-3.9697,-3.9697,-3.9697,-3.9697,-3.9697,-3.9496,-3.932,-3.932,-3.8843,-3.8391,-3.814,-3.7839,0.0,0.0,-3.7682,-3.7931,-3.8051,-3.8683,-3.9162,-3.9261,-3.979,-4.0223,-4.0432,-4.0473,-4.065,-4.1071,-4.0937,-4.1036,-4.1298,-4.1324,-4.1324,-4.1324,-4.1324,-4.1324,-4.1324,-4.1324,-4.1611,-4.2211,-4.1899,-4.1925,-4.2185,-4.1899,-4.1768,-4.1821,-4.2396,-4.2971,-4.3546,-4.4121,-4.4487,-4.4668,-4.4668,-4.4668,-4.4772,-4.2971,-4.3676,-4.4278,-4.4095,-4.4434,-4.4668,-4.4668,-4.4668,-4.4668,-4.4668,-4.4668,-4.4903,-4.5503,-4.5323,-4.5506,-4.6395,-4.6212,-4.5921,-4.5846,-4.5401,-4.5009,-4.4694,-4.4591,-4.399,-4.284,-4.2396,-4.1873,-4.1324,-4.1324,-4.1324,-4.1324,-4.1324,-4.1324,-4.1324,-4.1324,-4.1324,-4.1324,-4.1324,-4.1324,-4.1324,-4.1324,-4.1324,-4.1274,-4.1047,-4.0997,-4.0997,-4.0946,-4.0795,-4.0694,-4.0846,-4.0795,-4.0669,-4.0593,-4.0593,-4.0593,-4.0491,-4.0211,-3.9955,-4.0134,-4.0032,-3.9955,-4.0083,-3.9981,-3.9852,-3.9749,-3.9749,-3.98,-3.9697,-3.9697,-3.9697,-3.9697,-3.9346,-3.907,-3.8944,0.0,0.0,0.0,-3.8536,-3.8661,-3.8907,-3.9368,-3.97,-3.98,-4.0386,-4.0744,-4.0593,-4.0997,-4.1198,-4.0997,-4.1198,-4.1324,-4.1324,-4.1324,-4.1324,-4.1324,-4.1324,-4.1324,-4.1324,-4.1324,-4.169,-4.2369,-4.229,-4.2368,-4.2604,-4.2473,-4.2369,-4.2396,-4.2971,-4.3467,-4.3938,-4.4513,-4.4668,-4.4668,-4.4668,-4.4668,-4.48,-4.2814,-4.3101,-4.3467,-4.4487,-4.4642,-4.4668,-4.4668,-4.4668,-4.4668,-4.4668,-4.4668,-4.4903,-4.5503,-4.6055,-4.6395,-4.6473,-4.6917,-4.697,-4.6447,-4.6369,-4.5872,-4.4774,-4.4225,-4.3468,-4.229,-4.2238,-4.1873,-4.1324,-4.1324,-4.1324,-4.1324,-4.1324,-4.1324,-4.1324,-4.1324,-4.1324,-4.1324,-4.1324,-4.1324,-4.1324,-4.1324,-4.1324,-4.1324,-4.1274,-4.1274,-4.1274,-4.0997,-4.1047,-4.1224,-4.0997,-4.1047,-4.1198,-4.0946,-4.0896,-4.0846,-4.0542,-4.044,-4.0466,-4.0466,-4.0466,-4.0389,-4.0185,-4.0287,-4.0313,-3.98,-3.9878,-3.9981,-3.9749,-3.9697,-3.9697,-3.9697,-3.9672,-3.9471,-3.8994,0.0,0.0,-3.851,-3.8891,-3.922,-3.9271,-3.9499,-3.9776,-4.0058,-4.0364,-4.0593,-4.0846,-4.1147,-4.1274,-4.1274,-4.1274,-4.1324,-4.1324,-4.1324,-4.1324,-4.1324,-4.1324,-4.1324,-4.1324,-4.1324,-4.1899,-4.2944,-4.2396,-4.2787,-4.3729,-4.318,-4.2971,-4.2997,-4.3572,-4.3833,-4.3938,-4.4513,-4.4668,-4.4668,-4.4668,-4.4668,-4.4694,-4.203,-4.3101,-4.399,-4.3676,-4.4198,-4.4668,-4.4668,-4.4668,-4.4668,-4.4668,-4.4668,-4.4903,-4.5503,-4.582,-4.6238,-4.6944,-4.7205,-4.7174,-4.7022,-4.7022,-4.6499,-4.5294,-4.4382,-4.3729,-4.3284,-4.2866,-4.2579,-4.2369,-4.2004,-4.1847,-4.1847,-4.1481,-4.1324,-4.1324,-4.1324,-4.1324,-4.1324,-4.1324,-4.1324,-4.1324,-4.1324,-4.1324,-4.1324,-4.1324,-4.1324,-4.1274,-4.1147,-4.1198,-4.1274,-4.1147,-4.1198,-4.1274,-4.1147,-4.1147,-4.1147,-4.1023,-4.1023,-4.1023,-4.1023,-4.077,-4.0491,-4.0593,-4.0696,-4.0694,-4.0487,-4.0383,-4.0304,-4.0199,-3.9923,-3.9697,-3.9697,-3.9826,-3.9853,-3.9702,0.0,-3.9753,-3.9701,-3.9753,-3.9931,-4.0234,-4.0363,-4.0542,-4.0795,-4.0946,-4.0946,-4.0896,-4.1147,-4.1198,-4.1047,-4.1198,-4.1324,-4.1324,-4.1324,-4.1324,-4.1324,-4.1324,-4.1324,-4.1324,-4.1664,-4.2265,-4.3023,-4.3154,-4.352,-4.3912,-4.365,-4.3546,-4.3572,-4.3781,-4.4095,-4.4434,-4.4643,-4.4668,-4.4668,-4.4668,-4.4957,-4.5164,-4.1716,-4.2997,-4.399,-4.3389,-4.4095,-4.4668,-4.4668,-4.4668,-4.4668,-4.4668,-4.4668,-4.5036,-4.582,-4.5898,-4.6369,-4.7492,-4.7597,-4.7597,-4.7597,-4.7257,-4.663,-4.5607,-4.4853,-4.4251,-4.3939,-4.3493,-4.3206,-4.3023,-4.2631,-4.2343,-4.2211,-4.1951,-4.1742,-4.1585,-4.1768,-4.1742,-4.1585,-4.1585,-4.1481,-4.1324,-4.1324,-4.1324,-4.1324,-4.1324,-4.1324,-4.1324,-4.1324,-4.1324,-4.1324,-4.1324,-4.1428,-4.1585,-4.1585,-4.1716,-4.1847,-4.1847,-4.1847,-4.1847,-4.1847,-4.1542,-4.1286,-4.1207,-4.1389,-4.149,-4.1102,-4.1099,-4.1071,-4.0866,-4.046,-4.0259,-4.0259,-4.021,-4.0236,-4.0236,-4.0287,-4.044,-4.0593,-4.0491,-4.0491,-4.0846,-4.0846,-4.0846,-4.0997,-4.1097,-4.1097,-4.0896,-4.1147,-4.1198,-4.1047,-4.1198,-4.1324,-4.1324,-4.1481,-4.1585,-4.1585,-4.1585,-4.1585,-4.1585,-4.216,-4.2735,-4.331,-4.3702,-4.3964,-4.4147,-4.4147,-4.4147,-4.4147,-4.4147,-4.4382,-4.4668,-4.4668,-4.4668,-4.4668,-4.4668,-4.5114,-4.5558,-4.2107,-4.2631,-4.3206,-4.3781,-4.433,-4.4668,-4.4668,-4.4668,-4.4668,-4.4668,-4.4668,-4.5166,-4.6342,-4.6473,-4.6917,-4.8068,-4.8172,-4.8172,-4.8172,-4.7127,-4.6238,-4.5663,-4.5581,-4.5062,-4.3912,-4.3939,-4.3598,-4.3023,-4.3023,-4.2735,-4.2238,-4.2762,-4.2709,-4.2238,-4.2762,-4.2709,-4.2211,-4.2211,-4.1847,-4.1324,-4.1324,-4.1324,-4.1324,-4.1324,-4.1324,-4.1324,-4.1324,-4.1324,-4.1324,-4.1324,-4.169,-4.2211,-4.2211,-4.2552,-4.3023,-4.3023,-4.3023,-4.3023,-4.3023,-4.3023,-4.2788,-4.2035,-4.2398,-4.271,-4.1646,-4.2034,-4.2371,-4.1569,-4.1389,-4.1389,-4.1389,-4.0875,-4.0517,-4.0517,-4.0744,-4.0896,-4.0896,-4.0896,-4.0896,-4.0896,-4.0643,-4.0517,-4.0517,-4.0744,-4.0896,-4.0896,-4.1174,-4.1324,-4.1324,-4.1324,-4.1324,-4.1324,-4.1873,-4.2211,-4.2211,-4.2211,-4.2211,-4.2238,-4.2762,-4.3337,-4.3912,-4.3912,-4.4199,-4.4668,-4.4668,-4.4668,-4.4668,-4.4668,-4.4668,-4.4668,-4.4668,-4.4668,-4.4668,-4.4668,-4.5059,-4.5637,-4.1611,-4.2683,-4.3546,-4.331,-4.4068,-4.4668,-4.4668,-4.4668,-4.4668,-4.4668,-4.4668,-4.4853,-4.5218,-4.5637,-4.6186,-4.6917,-4.7362,-4.7754,-4.8146,-4.7858,-4.7231,-4.6264,-4.5428,-4.4826,-4.4487,-4.446,-4.4382,-4.4225,-4.3807,-4.352,-4.3415,-4.3127,-4.2918,-4.2762,-4.2944,-4.2709,-4.2211,-4.2211,-4.1847,-4.1324,-4.1324,-4.1324,-4.1324,-4.1324,-4.1324,-4.1324,-4.1324,-4.1324,-4.1324,-4.1324,-4.169,-4.229,-4.2631,-4.2892,-4.3023,-4.3023,-4.3023,-4.3023,-4.3023,-4.331,-4.3493,-4.2814,-4.297,-4.3201,-4.2861,-4.2548,-4.2237,-4.2004,-4.1671,-4.1389,-4.1389,-4.1415,-4.1415,-4.1415,-4.1104,-4.0997,-4.1147,-4.0846,-4.0744,-4.1147,-4.0946,-4.0846,-4.1047,-4.1097,-4.138,-4.1771,-4.224,-4.25,-4.25,-4.25,-4.2317,-4.1925,-4.2474,-4.2579,-4.2211,-4.2579,-4.2579,-4.2238,-4.3154,-4.3493,-4.331,-4.4095,-4.4565,-4.4668,-4.4668,-4.4668,-4.4668,-4.4668,-4.4668,-4.4668,-4.4668,-4.4668,-4.4668,-4.4668,-4.5349,-4.6159,-4.2056,-4.2997,-4.3755,-4.3415,-4.4121,-4.4668,-4.4668,-4.4668,-4.4668,-4.4668,-4.4668,-4.4772,-4.5007,-4.5611,-4.6186,-4.6761,-4.7336,-4.7806,-4.8172,-4.7989,-4.7545,-4.6839,-4.5924,-4.5218,-4.4694,-4.4668,-4.4668,-4.4668,-4.4382,-4.4095,-4.3912,-4.3755,-4.3572,-4.3363,-4.3598,-4.3389,-4.2892,-4.2605,-4.216,-4.1638,-4.1402,-4.1455,-4.1664,-4.1664,-4.1794,-4.1951,-4.1742,-4.1664,-4.1664,-4.1664,-4.2186,-4.2996,-4.352,-4.3702,-4.3702,-4.3702,-4.3702,-4.3702,-4.3702,-4.3938,-4.4121,-4.3781,-4.3778,-4.3879,-4.3645,-4.3408,-4.3095,-4.2577,-4.2267,-4.1957,-4.175,-4.162,-4.1671,-4.193,-4.167,-4.1564,-4.19,-4.1671,-4.162,-4.1953,-4.1825,-4.1746,-4.1664,-4.1873,-4.2134,-4.2474,-4.2814,-4.3023,-4.3023,-4.3023,-4.2866,-4.2526,-4.3049,-4.318,-4.2892,-4.3415,-4.3415,-4.2892,-4.3781,-4.4042,-4.3729,-4.4408,-4.4668,-4.4668,-4.4668,-4.4853,-4.5062,-4.4826,-4.4824,-4.5007,-4.4772,-4.4668,-4.4668,-4.4668,-4.548,-4.6421,-4.3023,-4.3493,-4.3912,-4.3912,-4.433,-4.4668,-4.4668,-4.4774,-4.4746,-4.4746,-4.4746,-4.5036,-4.5637,-4.6107,-4.6656,-4.7226,-4.7858,-4.8172,-4.8172,-4.7702,-4.733,-4.7278,-4.6839,-4.6003,-4.4826,-4.4746,-4.472,-4.4668,-4.4668,-4.446,-4.3964,-4.4487,-4.4434,-4.3964,-4.4487,-4.4408,-4.3833,-4.331,-4.2735,-4.2159,-4.1611,-4.1716,-4.2211,-4.2159,-4.2474,-4.2944,-4.2369,-4.2238,-4.229,-4.2342,-4.3023,-4.3912,-4.4539,-4.4668,-4.4668,-4.4668,-4.4668,-4.4668,-4.4668,-4.4668,-4.4668,-4.4668,-4.4668,-4.4591,-4.4068,-4.4304,-4.4356,-4.331,-4.3101,-4.2944,-4.2473,-4.1899,-4.1716,-4.229,-4.2316,-4.2422,-4.2944,-4.3023,-4.2997,-4.2944,-4.2944,-4.2709,-4.2185,-4.2657,-4.3049,-4.3101,-4.3154,-4.318,-4.318,-4.318,-4.3154,-4.3101,-4.365,-4.3912,-4.3912,-4.4434,-4.4434,-4.3939,-4.446,-4.4642,-4.4643,-4.4696,-4.4668,-4.4668,-4.4774,-4.5059,-4.5584,-4.5036,-4.5085,-4.5558,-4.4957,-4.4668,-4.4668,-4.4668,-4.548,-4.6499,-4.3023,-4.3493,-4.3912,-4.3912,-4.433,-4.4668,-4.4668,-4.5085,-4.5373,-4.5373,-4.5373,-4.5663,-4.6238,-4.6003,-4.6212,-4.7174,-4.7858,-4.8172,-4.8172,-4.8068,-4.7806,-4.7304,-4.7205,-4.6604,-4.5454,-4.5373,-4.5138,-4.4668,-4.4668,-4.467,-4.4539,-4.467,-4.467,-4.4539,-4.467,-4.4408,-4.3912,-4.3729,-4.3101,-4.2211,-4.2081,-4.2107,-4.2159,-4.1664,-4.2134,-4.2944,-4.2369,-4.2448,-4.2918,-4.3363,-4.3363,-4.3389,-4.4408,-4.4668,-4.4668,-4.4668,-4.4668,-4.4668,-4.4668,-4.4668,-4.4668,-4.4668,-4.4668,-4.4696,-4.4565,-4.4278,-4.399,-4.3729,-4.3676,-4.365,-4.3572,-4.3389,-4.3363,-4.3493,-4.3127,-4.2866,-4.2997,-4.3023,-4.2866,-4.2396,-4.2343,-4.2134,-4.1559,-4.2422,-4.3206,-4.365,-4.4095,-4.4302,-4.4302,-4.4302,-4.4147,-4.3702,-4.4251,-4.433,-4.3885,-4.4434,-4.4434,-4.3939,-4.446,-4.4487,-4.4068,-4.4513,-4.4668,-4.4748,-4.5164,-4.5451,-4.5555,-4.548,-4.5451,-4.5558,-4.4957,-4.4668,-4.4668,-4.4668,-4.548,-4.6604,-4.378,-4.4068,-4.4278,-4.4278,-4.4539,-4.4826,-4.5114,-4.5428,-4.5715,-4.6003,-4.6029,-4.6159,-4.6447,-4.6447,-4.6787,-4.7675,-4.8015,-4.8172,-4.8172,-4.8172,-4.8041,-4.7754,-4.7728,-4.7336,-4.6417,-4.6391,-4.5816,-4.4668,-4.4668,-4.4668,-4.4668,-4.4668,-4.4668,-4.4668,-4.4668,-4.4408,-4.3912,-4.3572,-4.2971,-4.2185,-4.1873,-4.1925,-4.2185,-4.1847,-4.2422,-4.3363,-4.2788,-4.2944,-4.3467,-4.3781,-4.3859,-4.3938,-4.4485,-4.4668,-4.4668,-4.4668,-4.4668,-4.4668,-4.4668,-4.4668,-4.4668,-4.4668,-4.4668,-4.4668,-4.4668,-4.4487,-4.4199,-4.3938,-4.3912,-4.3781,-4.352,-4.3467,-4.3546,-4.3833,-4.3624,-4.352,-4.3807,-4.378,-4.3729,-4.3415,-4.3389,-4.3284,-4.2971,-4.3232,-4.3676,-4.4225,-4.4565,-4.4668,-4.4668,-4.4668,-4.4591,-4.4278,-4.4565,-4.4591,-4.4278,-4.4565,-4.4565,-4.4278,-4.4591,-4.4565,-4.4278,-4.4591,-4.4879,-4.5111,-4.5425,-4.5767,-4.6029,-4.6029,-4.5872,-4.5555,-4.5271,-4.4929,-4.4694,-4.5007,-4.5898,-4.7022,-4.4722,-4.4668,-4.4694,-4.4853,-4.4824,-4.5088,-4.5689,-4.5846,-4.6081,-4.6552,-4.663,-4.6656,-4.6761,-4.7205,-4.7675,-4.8146,-4.8172,-4.8172,-4.8172,-4.8172,-4.8172,-4.8172,-4.8172,-4.7911,-4.7278,-4.7174,-4.6365,-4.4824,-4.4824,-4.4826,-4.4668,-4.4668,-4.4668,-4.4668,-4.4668,-4.446,-4.399,-4.352,-4.2918,-4.2291,-4.1899,-4.1977,-4.2342,-4.2238,-4.2944,-4.3938,-4.3258,-4.3389,-4.3885,-4.399,-4.4278,-4.4591,-4.4696,-4.4668,-4.4668,-4.4668,-4.4668,-4.4668,-4.4668,-4.4668,-4.4694,-4.4853,-4.48,-4.4748,-4.4853,-4.4746,-4.4591,-4.4121,-4.4016,-4.3885,-4.3389,-4.331,-4.3467,-4.3938,-4.4016,-4.4173,-4.467,-4.4668,-4.4696,-4.4591,-4.4487,-4.4487,-4.4565,-4.4147,-4.4121,-4.4696,-4.4668,-4.4668,-4.4668,-4.4668,-4.4668,-4.4668,-4.4668,-4.4668,-4.4668,-4.4668,-4.4668,-4.4668,-4.4772,-4.4824,-4.4824,-4.4824,-4.5218,-4.5767,-4.5872,-4.6186,-4.663,-4.663,-4.6342,-4.5898,-4.582,-4.5454,-4.5114,-4.5634,-4.6469,-4.7357,-4.4884,-4.4668,-4.4824,-4.5401,-4.5506,-4.5689,-4.6264,-4.6787,-4.7069,-4.7205,-4.7205,-4.7414,-4.7911,-4.8015,-4.8094,-4.8172,-4.8172,-4.8172,-4.8172,-4.8172,-4.8172,-4.8172,-4.8172,-4.7911,-4.7278,-4.6839,-4.6238,-4.5506,-4.5506,-4.519,-4.4668,-4.4668,-4.4668,-4.4668,-4.4668,-4.4696,-4.4617,-4.4485,-4.3885,-4.2944,-4.3363,-4.3284,-4.284,-4.2343,-4.318,-4.446,-4.3389,-4.3389,-4.3938,-4.4434,-4.433,-4.4068,-4.4565,-4.4668,-4.4668,-4.4668,-4.4668,-4.4668,-4.4668,-4.4668,-4.4853,-4.5375,-4.5114,-4.4853,-4.5375,-4.5059,-4.4696,-4.4617,-4.4617,-4.4591,-4.4513,-4.4487,-4.4513,-4.4591,-4.4617,-4.4643,-4.4668,-4.4668,-4.4539,-4.4042,-4.3546,-4.3441,-4.3938,-4.3912,-4.4121,-4.4696,-4.4668,-4.4668,-4.4668,-4.4668,-4.4668,-4.4668,-4.4668,-4.4668,-4.4668,-4.4668,-4.4668,-4.4694,-4.5216,-4.5506,-4.5506,-4.5506,-4.582,-4.6395,-4.6891,-4.7096,-4.7205,-4.7205,-4.7122,-4.6991,-4.6552,-4.6316,-4.6316,-4.6891,-4.7148,-4.7357,-4.6223,-4.5875,-4.5741,-4.6062,-4.5558,-4.5532,-4.6761,-4.6891,-4.7074,-4.7728,-4.7806,-4.7911,-4.8146,-4.8172,-4.8172,-4.8172,-4.8172,-4.8172,-4.8172,-4.8172,-4.8172,-4.8172,-4.8172,-4.8068,-4.7806,-4.7571,-4.6996,-4.6107,-4.5454,-4.4929,-4.4668,-4.4668,-4.4668,-4.4668,-4.4668,-4.4539,-4.4251,-4.4251,-4.3781,-4.3049,-4.3284,-4.3258,-4.2997,-4.2735,-4.331,-4.4225,-4.4042,-4.4147,-4.4382,-4.4643,-4.4565,-4.4382,-4.4643,-4.4668,-4.4668,-4.4668,-4.4668,-4.4668,-4.4668,-4.4668,-4.4746,-4.5007,-4.5111,-4.5242,-4.5558,-4.5663,-4.5506,-4.4853,-4.4668,-4.4668,-4.4668,-4.4668,-4.4668,-4.4668,-4.4668,-4.4668,-4.4668,-4.4668,-4.4643,-4.4382,-4.4121,-4.4068,-4.433,-4.4356,-4.446,-4.4642,-4.4668,-4.4668,-4.4668,-4.4668,-4.4668,-4.4668,-4.4668,-4.4668,-4.4668,-4.4668,-4.485,-4.5245,-4.5451,-4.5581,-4.5637,-4.595,-4.6421,-4.697,-4.7231,-4.7278,-4.7304,-4.7675,-4.744,-4.6839,-4.6578,-4.6473,-4.6499,-4.6761,-4.7257,-4.7832]},{"header":{"parameterUnit":"m.s-1","parameterCategory":1,"la1":30.6,"la2":28.766,"lo1":-90.7593,"lo2":-88.6598,"dy":0.0162,"dx":0.0183,"nx":116,"ny":114,"refTime":"2024-03-06T06:00:00:Z","depth":0,"parameterNumber":3,"parameterNumberName":"V-component_of_WINDS"},"data":[0.0,0.0,0.0,0.0,0.0,0.0,0.0,0.0,0.0,0.0,0.0,0.0,0.0,0.0,0.0,0.0,0.0,0.0,0.0,0.0,0.0,0.0,0.0,0.0,0.0,0.0,0.0,0.0,0.0,0.0,0.0,0.0,0.0,0.0,0.0,0.0,0.0,0.0,0.0,0.0,0.0,0.0,0.0,0.0,0.0,0.0,0.0,0.0,0.0,0.0,0.0,0.0,0.0,0.0,0.0,0.0,0.0,0.0,0.0,0.0,0.0,0.0,0.0,0.0,0.0,0.0,0.0,0.0,0.0,0.0,0.0,0.0,0.0,0.0,0.0,0.0,0.0,0.0,0.0,0.0,0.0,0.0,0.0,0.0,0.0,0.0,0.0,0.0,0.0,0.0,0.0,0.0,0.0,0.0,0.0,0.0,0.0,0.0,0.0,0.0,0.0,0.0,0.0,0.0,0.0,0.0,0.0,0.0,0.0,0.0,0.0,0.0,0.0,0.0,0.0,0.0,0.0,0.0,0.0,0.0,0.0,0.0,0.0,0.0,0.0,0.0,0.0,0.0,0.0,0.0,0.0,0.0,0.0,0.0,0.0,0.0,0.0,0.0,0.0,0.0,0.0,0.0,0.0,0.0,0.0,0.0,0.0,0.0,0.0,0.0,0.0,0.0,0.0,0.0,0.0,0.0,0.0,0.0,0.0,0.0,0.0,0.0,0.0,0.0,0.0,0.0,0.0,0.0,0.0,0.0,0.0,0.0,0.0,0.0,0.0,0.0,0.0,0.0,0.0,0.0,0.0,0.0,0.0,0.0,0.0,0.0,0.0,0.0,0.0,0.0,0.0,0.0,0.0,0.0,0.0,0.0,0.0,0.0,0.0,0.0,0.0,0.0,0.0,0.0,0.0,0.0,0.0,0.0,0.0,0.0,0.0,0.0,0.0,0.0,0.0,0.0,0.0,0.0,0.0,0.0,0.0,0.0,0.0,0.0,0.0,0.0,0.0,0.0,0.0,0.0,0.0,0.0,0.0,0.0,0.0,0.0,0.0,0.0,0.0,0.0,0.0,0.0,0.0,0.0,0.0,0.0,0.0,0.0,0.0,0.0,0.0,0.0,0.0,0.0,0.0,0.0,0.0,0.0,0.0,0.0,0.0,0.0,0.0,0.0,0.0,0.0,0.0,0.0,0.0,0.0,0.0,0.0,0.0,0.0,0.0,0.0,0.0,0.0,0.0,0.0,0.0,0.0,0.0,0.0,0.0,0.0,0.0,0.0,0.0,0.0,0.0,0.0,0.0,0.0,0.0,0.0,0.0,0.0,0.0,0.0,0.0,0.0,0.0,0.0,0.0,0.0,0.0,0.0,0.0,0.0,0.0,0.0,0.0,0.0,0.0,0.0,0.0,0.0,0.0,0.0,0.0,0.0,0.0,0.0,0.0,0.0,0.0,0.0,0.0,0.0,0.0,0.0,0.0,0.0,0.0,0.0,0.0,0.0,0.0,0.0,0.0,0.0,0.0,0.0,0.0,0.0,0.0,0.0,0.0,0.0,0.0,0.0,0.0,0.0,0.0,0.0,0.0,0.0,0.0,0.0,0.0,0.0,0.0,0.0,0.0,0.0,0.0,0.0,0.0,0.0,0.0,0.0,0.0,0.0,0.0,0.0,0.0,0.0,0.0,0.0,0.0,0.0,0.0,0.0,0.0,0.0,0.0,0.0,0.0,0.0,0.0,0.0,0.0,0.0,0.0,0.0,0.0,0.0,0.0,0.0,0.0,0.0,0.0,0.0,0.0,0.0,0.0,0.0,0.0,0.0,0.0,0.0,0.0,0.0,0.0,0.0,0.0,0.0,0.0,0.0,0.0,0.0,0.0,0.0,0.0,0.0,0.0,0.0,0.0,0.0,0.0,0.0,0.0,0.0,0.0,0.0,0.0,0.0,0.0,0.0,0.0,0.0,0.0,0.0,0.0,0.0,0.0,0.0,0.0,0.0,0.0,0.0,0.0,0.0,0.0,0.0,0.0,0.0,0.0,0.0,0.0,0.0,0.0,0.0,0.0,0.0,0.0,0.0,0.0,0.0,0.0,0.0,0.0,0.0,0.0,0.0,0.0,0.0,0.0,0.0,0.0,0.0,0.0,0.0,0.0,0.0,0.0,0.0,0.0,0.0,0.0,0.0,0.0,0.0,0.0,0.0,0.0,0.0,0.0,0.0,0.0,0.0,0.0,0.0,0.0,0.0,0.0,0.0,0.0,0.0,0.0,0.0,0.0,0.0,0.0,0.0,0.0,0.0,0.0,0.0,0.0,0.0,0.0,0.0,0.0,0.0,0.0,0.0,0.0,0.0,0.0,0.0,0.0,0.0,0.0,0.0,0.0,0.0,0.0,0.0,0.0,0.0,0.0,0.0,0.0,0.0,0.0,0.0,0.0,0.0,0.0,0.0,0.0,0.0,0.0,0.0,0.0,0.0,0.0,0.0,0.0,0.0,0.0,0.0,0.0,0.0,0.0,0.0,0.0,0.0,0.0,0.0,0.0,0.0,0.0,0.0,0.0,0.0,0.0,0.0,0.0,0.0,0.0,0.0,0.0,0.0,0.0,0.0,0.0,0.0,0.0,0.0,0.0,0.0,0.0,0.0,0.0,0.0,0.0,0.0,0.0,0.0,0.0,0.0,0.0,0.0,0.0,0.0,0.0,0.0,0.0,0.0,0.0,0.0,0.0,0.0,0.0,0.0,0.0,0.0,0.0,0.0,0.0,0.0,0.0,0.0,0.0,0.0,0.0,0.0,0.0,0.0,0.0,0.0,0.0,0.0,0.0,0.0,0.0,0.0,0.0,0.0,0.0,0.0,0.0,0.0,0.0,0.0,0.0,0.0,0.0,0.0,0.0,0.0,0.0,0.0,0.0,0.0,0.0,0.0,0.0,0.0,0.0,0.0,0.0,0.0,0.0,0.0,0.0,0.0,0.0,0.0,0.0,0.0,0.0,0.0,0.0,0.0,0.0,0.0,0.0,0.0,0.0,0.0,0.0,0.0,0.0,0.0,0.0,0.0,0.0,0.0,0.0,0.0,0.0,0.0,0.0,0.0,0.0,0.0,0.0,0.0,0.0,0.0,0.0,0.0,0.0,0.0,0.0,0.0,0.0,0.0,0.0,0.0,0.0,0.0,0.0,0.0,0.0,0.0,0.0,0.0,0.0,0.0,0.0,0.0,0.0,0.0,0.0,0.0,0.0,0.0,0.0,0.0,0.0,0.0,0.0,0.0,0.0,0.0,0.0,0.0,0.0,0.0,0.0,0.0,0.0,0.0,0.0,0.0,0.0,0.0,0.0,0.0,0.0,0.0,0.0,0.0,0.0,0.0,0.0,0.0,0.0,0.0,0.0,0.0,0.0,0.0,0.0,0.0,0.0,0.0,0.0,0.0,0.0,0.0,0.0,0.0,0.0,0.0,0.0,0.0,0.0,0.0,0.0,0.0,0.0,0.0,0.0,0.0,0.0,0.0,0.0,0.0,0.0,0.0,0.0,0.0,0.0,0.0,0.0,0.0,0.0,0.0,0.0,0.0,0.0,0.0,0.0,0.0,0.0,0.0,0.0,0.0,0.0,0.0,0.0,0.0,0.0,0.0,0.0,0.0,0.0,0.0,0.0,0.0,0.0,0.0,0.0,0.0,0.0,0.0,0.0,0.0,0.0,0.0,0.0,0.0,0.0,0.0,0.0,0.0,0.0,0.0,0.0,0.0,0.0,0.0,0.0,0.0,0.0,0.0,0.0,0.0,0.0,0.0,0.0,0.0,0.0,0.0,0.0,0.0,0.0,0.0,0.0,0.0,0.0,0.0,0.0,0.0,0.0,0.0,0.0,0.0,0.0,0.0,0.0,0.0,0.0,0.0,0.0,0.0,0.0,0.0,0.0,0.0,0.0,0.0,0.0,0.0,0.0,0.0,0.0,0.0,0.0,0.0,0.0,0.0,0.0,0.0,0.0,0.0,0.0,0.0,0.0,0.0,0.0,0.0,0.0,0.0,0.0,0.0,0.0,0.0,0.0,0.0,0.0,0.0,0.0,0.0,0.0,0.0,0.0,0.0,0.0,0.0,0.0,0.0,0.0,0.0,0.0,0.0,0.0,0.0,0.0,0.0,0.0,0.0,0.0,0.0,0.0,0.0,0.0,0.0,0.0,0.0,0.0,0.0,0.0,0.0,0.0,0.0,0.0,0.0,0.0,0.0,0.0,0.0,0.0,0.0,0.0,0.0,0.0,0.0,0.0,0.0,0.0,0.0,0.0,0.0,0.0,0.0,0.0,0.0,0.0,0.0,0.0,0.0,0.0,0.0,0.0,0.0,0.0,0.0,0.0,0.0,0.0,0.0,0.0,0.0,0.0,0.0,0.0,0.0,0.0,0.0,0.0,0.0,0.0,0.0,0.0,0.0,0.0,0.0,0.0,0.0,0.0,0.0,0.0,0.0,0.0,0.0,0.0,0.0,0.0,0.0,0.0,0.0,0.0,0.0,0.0,0.0,0.0,0.0,0.0,0.0,0.0,0.0,0.0,0.0,0.0,0.0,0.0,0.0,0.0,0.0,0.0,0.0,0.0,0.0,0.0,0.0,0.0,0.0,0.0,0.0,0.0,0.0,0.0,0.0,0.0,0.0,0.0,0.0,0.0,0.0,0.0,0.0,0.0,0.0,0.0,0.0,0.0,0.0,0.0,0.0,0.0,0.0,0.0,0.0,0.0,0.0,0.0,0.0,0.0,0.0,0.0,0.0,0.0,0.0,0.0,0.0,0.0,0.0,0.0,0.0,0.0,0.0,0.0,0.0,0.0,0.0,0.0,0.0,0.0,0.0,0.0,0.0,0.0,0.0,0.0,0.0,0.0,0.0,0.0,0.0,0.0,0.0,0.0,0.0,0.0,0.0,0.0,0.0,0.0,0.0,0.0,0.0,0.0,0.0,0.0,0.0,0.0,0.0,0.0,0.0,0.0,0.0,0.0,0.0,0.0,0.0,0.0,0.0,0.0,0.0,0.0,0.0,0.0,0.0,0.0,0.0,0.0,0.0,0.0,0.0,0.0,0.0,0.0,0.0,0.0,0.0,0.0,0.0,0.0,0.0,0.0,0.0,0.0,0.0,0.0,0.0,0.0,0.0,0.0,0.0,0.0,0.0,0.0,0.0,0.0,0.0,0.0,0.0,0.0,0.0,0.0,0.0,0.0,0.0,0.0,0.0,0.0,0.0,0.0,0.0,0.0,0.0,0.0,0.0,0.0,0.0,0.0,0.0,0.0,0.0,0.0,0.0,0.0,0.0,0.0,0.0,0.0,0.0,0.0,0.0,0.0,0.0,0.0,0.0,0.0,0.0,0.0,0.0,0.0,0.0,0.0,0.0,0.0,0.0,0.0,0.0,0.0,0.0,0.0,0.0,0.0,0.0,0.0,0.0,0.0,0.0,0.0,0.0,0.0,0.0,0.0,0.0,0.0,0.0,0.0,0.0,0.0,0.0,0.0,0.0,0.0,0.0,0.0,0.0,0.0,0.0,0.0,0.0,0.0,0.0,0.0,0.0,0.0,0.0,0.0,0.0,0.0,0.0,0.0,0.0,0.0,0.0,0.0,0.0,0.0,0.0,0.0,0.0,0.0,0.0,0.0,0.0,0.0,0.0,0.0,0.0,0.0,0.0,0.0,0.0,0.0,0.0,0.0,0.0,0.0,0.0,0.0,0.0,0.0,0.0,0.0,0.0,0.0,0.0,0.0,0.0,0.0,0.0,0.0,0.0,0.0,0.0,0.0,0.0,0.0,0.0,0.0,0.0,0.0,0.0,0.0,0.0,0.0,0.0,0.0,0.0,0.0,0.0,0.0,0.0,0.0,0.0,0.0,0.0,0.0,0.0,0.0,0.0,0.0,0.0,0.0,0.0,0.0,0.0,0.0,0.0,0.0,0.0,0.0,0.0,0.0,0.0,0.0,0.0,0.0,0.0,0.0,0.0,0.0,0.0,0.0,0.0,0.0,0.0,0.0,0.0,0.0,0.0,0.0,0.0,0.0,0.0,0.0,0.0,0.0,0.0,0.0,0.0,0.0,0.0,0.0,0.0,0.0,0.0,3.7967,0.0,0.0,0.0,0.0,0.0,0.0,0.0,0.0,0.0,0.0,0.0,0.0,0.0,0.0,0.0,0.0,0.0,0.0,0.0,0.0,0.0,0.0,0.0,0.0,0.0,0.0,0.0,0.0,0.0,0.0,0.0,0.0,0.0,0.0,0.0,0.0,0.0,3.8202,3.8202,3.8522,3.9475,4.1075,4.0973,4.0457,3.9627,0.0,0.0,0.0,0.0,0.0,0.0,0.0,0.0,0.0,0.0,0.0,0.0,0.0,0.0,0.0,0.0,0.0,0.0,0.0,0.0,0.0,0.0,0.0,0.0,0.0,0.0,0.0,0.0,0.0,0.0,0.0,0.0,0.0,0.0,0.0,0.0,0.0,0.0,0.0,0.0,0.0,0.0,0.0,0.0,0.0,0.0,0.0,0.0,0.0,0.0,0.0,0.0,0.0,0.0,0.0,0.0,0.0,0.0,0.0,0.0,0.0,0.0,0.0,0.0,0.0,0.0,0.0,0.0,0.0,0.0,0.0,3.9734,0.0,0.0,0.0,0.0,0.0,0.0,0.0,0.0,0.0,0.0,0.0,0.0,0.0,0.0,0.0,0.0,0.0,0.0,0.0,0.0,0.0,0.0,0.0,3.8202,3.8202,3.8202,3.8202,3.8202,0.0,0.0,0.0,0.0,3.8202,3.8202,3.8202,3.8202,3.8335,3.8535,3.9786,4.127,4.3016,4.4456,4.4318,4.2788,4.194,0.0,0.0,0.0,0.0,0.0,0.0,0.0,0.0,0.0,0.0,0.0,0.0,0.0,0.0,0.0,0.0,0.0,0.0,0.0,0.0,0.0,0.0,0.0,0.0,0.0,0.0,0.0,0.0,0.0,0.0,0.0,0.0,0.0,0.0,0.0,0.0,0.0,0.0,0.0,0.0,0.0,0.0,0.0,0.0,0.0,0.0,0.0,0.0,0.0,0.0,0.0,0.0,0.0,0.0,0.0,0.0,0.0,0.0,0.0,0.0,0.0,0.0,0.0,4.8507,4.9244,4.9817,4.9817,4.9817,4.9649,4.6562,4.4251,4.2618,0.0,0.0,0.0,0.0,0.0,0.0,0.0,0.0,0.0,0.0,0.0,0.0,0.0,0.0,0.0,0.0,0.0,0.0,0.0,0.0,0.0,0.0,3.8202,3.8202,3.8202,3.8202,3.8202,3.8202,3.8202,3.8202,3.8202,3.8202,3.8202,3.8202,3.8202,3.8764,3.9854,4.3381,4.555,4.6438,4.8874,4.9962,4.9594,4.5403,4.3591,4.3631,0.0,0.0,0.0,0.0,0.0,0.0,0.0,0.0,0.0,0.0,0.0,0.0,0.0,0.0,0.0,0.0,0.0,0.0,0.0,0.0,0.0,0.0,0.0,0.0,0.0,0.0,0.0,0.0,0.0,0.0,0.0,0.0,0.0,0.0,0.0,0.0,0.0,0.0,0.0,0.0,0.0,4.4158,4.3532,0.0,0.0,0.0,0.0,0.0,0.0,0.0,0.0,0.0,0.0,0.0,0.0,0.0,4.7404,4.878,5.0992,5.2202,5.2438,5.3923,5.4666,5.4768,5.4768,5.4768,5.4734,5.4227,0.0,4.5731,4.493,0.0,0.0,0.0,0.0,0.0,0.0,0.0,0.0,0.0,0.0,0.0,0.0,0.0,0.0,0.0,0.0,0.0,0.0,0.0,0.0,0.0,3.8551,3.8754,3.8754,3.977,3.9915,3.8841,3.9421,3.9334,3.826,3.8202,3.8202,3.8202,3.8538,4.0062,4.287,4.6354,4.9062,5.0922,5.2857,5.3943,5.4176,5.2045,4.9316,4.6243,4.5417,0.0,0.0,0.0,0.0,0.0,0.0,0.0,0.0,0.0,0.0,0.0,0.0,0.0,0.0,0.0,0.0,0.0,0.0,0.0,0.0,0.0,0.0,0.0,0.0,0.0,0.0,0.0,0.0,0.0,0.0,0.0,0.0,0.0,0.0,0.0,0.0,0.0,0.0,0.0,4.4953,4.5351,4.3797,4.4986,4.5348,0.0,0.0,0.0,0.0,0.0,0.0,0.0,0.0,0.0,4.9681,5.0889,5.2404,5.4292,5.578,5.6964,5.7808,5.8927,5.9471,5.9471,5.9471,5.9471,5.9471,5.9471,5.72,5.318,4.9034,4.6413,4.4812,0.0,0.0,0.0,0.0,4.316,4.353,0.0,0.0,0.0,0.0,0.0,0.0,0.0,0.0,0.0,0.0,0.0,0.0,3.8638,3.9276,3.9828,4.0147,4.1337,4.1482,4.0031,4.035,3.9973,3.8522,3.8289,3.8202,3.8202,3.9632,4.2108,4.5703,4.943,5.2533,5.5007,5.6861,5.8023,5.856,5.817,5.4989,4.9882,4.9085,4.7648,4.5773,0.0,0.0,0.0,0.0,0.0,0.0,0.0,0.0,0.0,0.0,0.0,0.0,0.0,0.0,0.0,0.0,0.0,0.0,0.0,0.0,0.0,0.0,0.0,0.0,0.0,0.0,0.0,0.0,0.0,0.0,0.0,0.0,0.0,0.0,0.0,0.0,0.0,4.5846,4.6605,4.3986,4.6337,4.7198,0.0,0.0,0.0,0.0,0.0,0.0,4.9115,5.1294,5.3247,5.4933,5.6187,5.7848,5.9877,6.0622,6.167,6.299,6.3362,6.3599,6.3802,6.3599,6.3429,6.3226,6.3226,6.2076,5.9708,5.3551,4.997,4.8155,4.5862,4.513,4.5446,4.6136,4.6401,4.6566,0.0,0.0,0.0,0.0,0.0,0.0,0.0,0.0,0.0,0.0,0.0,3.8667,3.9857,4.0583,4.1482,4.2702,4.2353,4.2063,4.1947,4.0292,3.9247,3.916,3.8551,3.8202,3.8202,4.191,4.51,4.7676,5.2974,5.6431,5.8036,6.1165,6.2983,6.3566,6.2204,5.922,5.4988,5.2922,5.0902,4.8903,4.7001,0.0,0.0,0.0,0.0,0.0,0.0,0.0,0.0,0.0,0.0,0.0,0.0,0.0,0.0,0.0,0.0,0.0,0.0,0.0,0.0,0.0,0.0,0.0,0.0,0.0,0.0,0.0,0.0,0.0,0.0,0.0,0.0,0.0,0.0,0.0,0.0,0.0,0.0,4.4331,4.8487,0.0,0.0,0.0,0.0,5.0424,5.1328,5.2438,5.3886,5.5577,5.7509,5.9708,6.1907,6.3802,6.529,6.6034,6.6812,6.7557,6.6914,6.6948,6.759,6.6914,6.6203,6.5527,6.5527,6.4681,6.2922,5.8321,5.5141,5.2942,5.0642,4.9357,4.8751,4.8785,4.8849,4.8849,0.0,0.0,0.0,0.0,0.0,0.0,0.0,0.0,3.8202,3.8202,3.8899,4.006,4.1773,4.3282,4.485,4.6534,4.6475,4.5882,4.4807,4.2785,4.136,4.0704,3.9624,4.0372,4.3198,4.5842,4.9466,5.4173,5.8184,6.1158,6.3131,6.4724,6.5802,6.6278,6.5785,6.4186,6.1554,5.6766,5.311,5.0327,4.8131,4.5902,0.0,0.0,0.0,0.0,0.0,0.0,0.0,0.0,0.0,0.0,0.0,0.0,0.0,0.0,0.0,0.0,0.0,0.0,0.0,0.0,0.0,0.0,0.0,0.0,0.0,0.0,0.0,0.0,0.0,0.0,0.0,0.0,0.0,0.0,0.0,0.0,0.0,4.9792,5.3872,0.0,5.2539,5.338,5.4289,5.463,5.6759,5.8484,5.9464,6.1429,6.3328,6.5053,6.5899,6.7049,6.8571,6.8842,6.9113,6.9383,6.9113,6.8876,6.8673,6.8402,6.7861,6.7117,6.7117,6.6,6.4038,6.1975,5.9235,5.6055,5.3348,5.2401,5.2604,5.2604,5.2909,5.3315,0.0,0.0,0.0,0.0,0.0,0.0,0.0,0.0,3.8202,3.8202,3.9509,4.125,4.3398,4.5547,4.7608,4.9475,4.9117,4.8108,4.6618,4.3905,4.2053,4.1322,4.0681,4.2478,4.6886,4.9275,5.3189,5.8702,6.2003,6.4525,6.6249,6.7367,6.8013,6.8341,6.8109,6.7446,6.622,6.132,5.6993,5.3182,5.0514,4.8689,4.7064,0.0,0.0,0.0,0.0,0.0,0.0,0.0,0.0,0.0,0.0,0.0,0.0,0.0,0.0,0.0,0.0,0.0,0.0,0.0,0.0,0.0,0.0,0.0,0.0,0.0,0.0,0.0,0.0,0.0,0.0,0.0,0.0,0.0,0.0,0.0,5.5509,5.4845,5.905,6.0886,5.8106,5.895,5.9798,6.0148,6.2245,6.3971,6.4952,6.6406,6.776,6.9011,6.9282,6.9789,7.0567,7.0804,7.0804,7.0567,7.006,6.9553,6.9079,6.8571,6.7895,6.7151,6.7421,6.6406,6.4546,6.4072,6.211,5.9133,5.6427,5.5513,5.5683,5.5683,5.5852,5.6089,0.0,0.0,0.0,0.0,0.0,0.0,0.0,3.7796,3.8173,3.8202,3.9915,4.2121,4.4705,4.7259,4.9611,5.1585,4.9881,4.8312,4.732,4.338,4.1054,4.0908,4.1753,4.4353,4.8927,5.2156,5.6091,6.0818,6.427,6.6362,6.7215,6.8972,6.9798,6.9765,6.9036,6.8705,6.8572,6.6419,6.2643,5.7767,5.4415,5.302,5.2327,0.0,0.0,0.0,0.0,0.0,0.0,0.0,0.0,0.0,0.0,0.0,0.0,0.0,0.0,0.0,0.0,0.0,0.0,0.0,0.0,0.0,0.0,0.0,0.0,0.0,0.0,0.0,0.0,0.0,0.0,0.0,0.0,0.0,5.0593,5.595,5.9554,5.914,6.3748,6.5831,6.2956,6.4613,6.6203,6.6948,6.7658,6.8741,7.0195,7.0263,7.0601,7.1312,7.2022,7.2022,7.1312,7.2022,7.1988,7.1278,6.9823,6.9113,6.9045,6.7557,6.6474,6.5797,6.6508,6.5967,6.4613,6.458,6.37,6.2178,5.9945,5.8626,5.7983,5.7949,5.7476,5.6833,0.0,0.0,0.0,0.0,0.0,0.0,3.7244,3.7447,3.7709,3.8144,4.0699,4.3631,4.665,4.9291,5.1991,5.4836,5.1643,4.9184,4.8606,4.4004,4.1706,4.2553,4.4134,4.7986,5.4301,5.6178,5.989,6.5679,6.7182,6.8305,6.9085,6.9604,6.9798,6.9765,6.9599,6.95,6.9401,6.8274,6.6353,6.3736,5.9076,5.5633,5.299,0.0,0.0,0.0,0.0,0.0,0.0,0.0,0.0,0.0,0.0,0.0,0.0,0.0,0.0,0.0,0.0,0.0,0.0,0.0,0.0,0.0,0.0,0.0,0.0,0.0,0.0,0.0,0.0,0.0,0.0,0.0,5.2345,5.4845,5.5229,5.9784,6.3619,6.5,6.8543,7.0331,6.8977,6.9891,7.0635,7.0838,7.1548,7.2124,7.2563,7.209,7.1887,7.209,7.1785,7.1515,7.1312,7.1515,7.1244,7.05,7.0094,6.962,6.9079,6.8673,6.803,6.7286,6.6948,6.5967,6.4546,6.4038,6.326,6.2279,6.1129,6.0554,6.0216,5.9099,5.822,5.7509,0.0,0.0,0.0,0.0,0.0,0.0,3.678,3.7128,3.7535,3.8115,4.125,4.4327,4.6737,4.9524,5.2078,5.4226,5.0801,4.8225,4.7524,4.4112,4.2802,4.4376,4.6986,5.1327,5.7645,5.9652,6.3098,6.8076,6.8804,6.9368,6.9798,6.9798,6.9964,7.0262,7.0262,7.0428,7.0693,7.0262,6.9599,6.8473,6.4564,6.1185,5.8104,5.5156,5.3964,5.3533,5.0518,5.0419,5.1249,4.7703,0.0,0.0,0.0,0.0,0.0,0.0,0.0,0.0,0.0,0.0,0.0,0.0,0.0,0.0,0.0,0.0,0.0,0.0,0.0,0.0,0.0,0.0,0.0,0.0,5.6507,5.9858,6.1588,6.4548,6.7517,7.022,7.2438,7.3612,7.3172,7.3544,7.3781,7.3781,7.4187,7.4289,7.3984,7.3274,7.2699,7.2428,7.1988,7.1616,7.1312,7.1616,7.1379,7.0635,7.0026,6.9519,6.9079,6.8436,6.7557,0.0,6.6406,6.5324,6.3666,6.3565,6.3057,0.0,0.0,0.0,0.0,0.0,5.8254,5.7814,0.0,0.0,0.0,0.0,0.0,0.0,3.6199,3.6809,3.7447,3.8115,4.1453,4.4269,4.5547,4.8333,5.0481,5.1323,4.8344,4.6072,4.5069,4.3903,4.4273,4.6493,5.0188,5.4598,5.9786,6.2601,6.5603,6.8804,6.9372,6.967,6.9798,6.9798,7.0129,7.0792,7.0858,7.1256,7.1885,7.1951,7.2018,7.1819,6.9864,6.7645,6.5028,6.0225,5.9926,6.1459,5.6713,5.4394,5.3235,5.0783,0.0,0.0,0.0,0.0,0.0,0.0,0.0,0.0,0.0,0.0,0.0,0.0,0.0,0.0,0.0,0.0,0.0,0.0,0.0,0.0,0.0,0.0,0.0,0.0,6.0765,6.4765,6.8518,6.9635,7.1194,7.4242,7.527,7.5709,7.5709,7.5709,7.5709,7.5709,7.5608,7.5303,7.4661,0.0,0.0,0.0,0.0,7.1853,7.1176,7.1751,7.165,7.0906,6.9688,6.9011,6.8808,6.7523,6.6136,6.4749,6.5324,6.441,6.255,6.3159,6.2888,6.2009,6.0723,6.0148,5.981,5.849,5.7915,5.778,0.0,0.0,0.0,0.0,0.0,0.0,3.6141,3.6431,3.6896,3.8057,4.0699,4.2934,4.4211,4.5837,4.7695,4.9872,4.6679,4.4384,4.399,4.4084,4.6037,5.0245,5.4219,5.8434,6.2854,6.436,6.6577,6.9566,6.8814,6.8879,6.9798,6.9798,6.9864,7.003,7.0626,7.0991,7.1156,7.1753,7.2018,7.1951,7.1521,6.9334,6.6022,6.3272,6.1848,6.102,5.8833,5.9396,6.0556,5.6581,5.5719,5.5719,5.2042,4.916,0.0,0.0,0.0,0.0,0.0,0.0,0.0,0.0,0.0,0.0,0.0,0.0,0.0,0.0,0.0,0.0,0.0,0.0,0.0,6.0431,6.4428,6.8393,7.229,7.3117,7.3656,7.4512,7.527,7.5709,7.5709,7.5709,7.5709,7.5709,7.5168,7.4762,7.4627,7.3341,0.0,7.2394,7.1244,7.0534,7.0398,6.9958,6.935,6.8571,0.0,0.0,6.7252,6.7557,6.688,6.5459,6.5019,6.4241,6.326,6.2787,6.1806,6.0588,6.0926,6.0317,5.9201,5.8896,5.8051,5.7002,0.0,0.0,0.0,0.0,0.0,0.0,3.617,3.6606,3.7157,3.8086,4.0176,4.1831,4.2469,4.3689,4.4937,4.6214,4.4008,4.2986,4.3936,4.5427,4.8432,5.3128,5.6567,6.0239,6.4307,6.4538,6.6048,6.8928,6.8221,6.8221,6.8928,6.9526,6.9997,7.0361,7.0726,7.1322,7.2051,7.2382,7.2746,7.3045,7.2713,7.1455,6.9666,6.8208,6.6982,6.5823,6.4332,6.4034,6.3835,6.0556,5.9198,5.8403,5.5454,5.2771,5.0286,0.0,0.0,0.0,0.0,0.0,0.0,0.0,0.0,0.0,0.0,0.0,0.0,0.0,0.0,4.9756,5.1943,0.0,6.0225,6.4233,6.7874,7.1037,7.3369,7.4344,7.4882,7.5121,7.5168,7.5303,7.5676,7.5371,7.5303,7.5676,7.5033,7.4458,7.4052,7.3003,7.2225,7.1853,7.077,7.0195,7.0195,6.9451,6.891,6.8504,6.8504,6.8098,6.7354,6.7354,6.6542,6.5121,6.4749,6.3768,6.2347,6.1569,6.0791,6.0114,6.0148,5.9471,5.8457,5.8457,5.7983,5.734,0.0,0.0,0.0,0.0,0.0,0.0,0.0,3.678,3.7389,3.8115,3.9683,4.0728,4.0728,4.1512,4.2063,4.2063,4.1686,4.2449,4.4732,4.7378,5.0925,5.5583,5.8364,6.1368,6.4702,6.4273,6.5242,6.7811,6.7599,6.785,6.8442,6.9534,7.0431,7.1123,7.1256,7.1985,7.3111,7.3243,7.3641,7.4155,7.3541,7.331,7.3243,7.2481,7.1686,7.0693,6.9235,6.7082,6.4763,6.314,6.1053,5.8933,5.7873,5.6051,5.3665,5.0651,4.9756,0.0,0.0,0.0,0.0,0.0,0.0,0.0,0.0,4.6543,4.7504,4.8961,5.1148,5.3735,5.6779,6.0324,6.3935,6.7479,7.0367,7.2523,7.3374,7.428,7.4936,7.5175,7.4816,7.4897,7.5642,7.4897,7.4695,7.5439,7.4796,7.4119,7.351,7.2665,7.1921,7.1345,7.0297,6.9755,6.9755,6.9011,6.8673,6.8639,6.8132,6.7827,6.7658,6.7083,6.6,6.458,6.4309,6.3091,6.1264,6.0588,6.0148,5.9844,5.9235,5.8558,5.7881,5.7881,5.7712,5.7476,0.0,0.0,0.0,0.0,0.0,0.0,0.0,0.0,3.6838,3.8057,3.8899,3.9421,3.9421,3.9015,3.8725,3.8725,4.1221,4.3963,4.6693,4.9582,5.3208,5.7698,6.0574,6.2626,6.3914,6.4414,6.5341,6.6573,6.7018,6.8044,6.9503,7.0526,7.1309,7.1918,7.2581,7.2945,7.3144,7.3773,7.4105,7.4221,7.4122,7.4089,7.3972,7.3276,7.2117,7.0693,6.9235,6.6452,6.357,6.3935,6.2212,5.996,6.0456,5.9098,5.6614,5.3069,5.022,4.7703,4.5251,4.4291,4.4194,4.5284,4.5616,4.651,0.0,0.0,5.2042,5.35,5.6051,5.8369,5.9429,6.261,6.6055,6.9069,7.06,7.1923,7.3274,7.3409,7.3373,7.342,7.4114,7.4897,7.5642,7.4424,7.3916,7.4695,7.4052,7.3578,7.3477,7.2191,7.1413,7.1312,6.9248,6.8166,6.8166,6.7455,6.7083,6.7083,6.7624,6.7557,6.6948,6.6846,6.6,6.4546,6.3193,6.211,6.1298,6.1197,6.0385,5.9133,5.9032,5.8558,5.7881,5.7881,5.707,5.5953,0.0,0.0,0.0,0.0,0.0,0.0,0.0,0.0,0.0,3.7622,3.8231,3.8609,3.8609,3.8376,3.8202,3.8202,4.0118,4.2918,4.6729,4.9543,5.3227,5.8049,6.0469,6.2465,6.4045,6.3921,6.4544,6.6016,6.6036,6.6502,6.7374,6.845,6.9393,7.0138,7.0115,7.1026,7.2575,7.2532,7.3149,7.4221,7.4221,7.3906,7.3409,7.225,7.0096,6.7579,6.6519,6.4365,0.0,6.0854,6.0291,6.0059,6.0357,5.8933,5.6514,5.337,5.0916,4.8796,4.6576,4.5748,4.5781,4.6808,4.8365,5.0253,5.2605,5.4394,5.5951,5.7409,6.0026,6.2411,6.357,6.6088,6.8506,0.0,7.1154,7.1948,7.2579,7.1999,7.1425,7.1023,7.04,7.121,7.4119,7.3071,7.2699,7.3883,7.2868,7.2225,7.2225,7.0838,7.0026,7.0026,6.8639,6.7895,6.7895,6.7184,6.6812,6.6812,6.7117,6.688,6.617,6.617,6.5358,6.3869,6.1907,6.1163,6.1197,5.9877,5.9201,5.8964,5.8524,5.7915,5.7306,5.7712,5.7239,5.6359,0.0,0.0,0.0,0.0,0.0,0.0,0.0,0.0,0.0,0.0,3.7825,3.8144,3.797,3.8115,3.8144,3.797,3.945,4.2063,4.604,4.903,5.2804,5.7565,5.9626,6.1614,6.3652,6.3315,6.3786,6.5233,6.5413,6.5741,6.6154,6.7227,6.8245,6.9019,6.8579,6.9523,7.1464,7.1006,7.1648,7.2927,7.3159,7.259,7.1374,6.9721,6.668,6.3276,6.3153,6.1218,5.8469,5.6846,5.6746,5.7409,5.8005,5.7077,5.5256,5.2572,5.032,4.8431,4.7206,4.704,4.757,4.9127,5.1545,5.4063,5.5918,5.8038,5.996,6.1218,6.3471,6.5425,6.6088,6.7844,6.9434,7.0163,7.0726,7.1156,7.1355,7.0309,6.9185,6.8204,6.6522,6.6778,7.0265,7.0242,7.077,7.2462,7.1413,7.0703,7.0703,6.9485,6.8774,6.8774,6.7996,6.759,6.759,6.7083,6.6812,6.6812,6.6609,6.6203,6.5662,6.5256,6.4275,6.2821,6.1163,6.052,6.0554,5.8863,5.8389,5.8626,5.7881,5.7273,5.6833,5.7171,5.6833,5.619,0.0,0.0,0.0,0.0,0.0,0.0,0.0,0.0,0.0,0.0,0.0,0.0,0.0,3.7854,3.797,3.7389,3.9625,4.2179,4.4763,4.8537,5.2397,5.6287,5.8319,6.0206,6.2096,6.2822,6.3399,6.4072,6.5627,6.6667,6.7246,6.8231,6.8962,6.9563,6.9563,6.9594,6.9651,6.9651,6.9683,6.9791,7.0576,6.96,6.7429,6.5358,6.186,5.8195,5.9614,5.6912,5.2638,5.2608,5.1645,5.0883,5.2937,5.3566,5.3069,5.0916,4.7703,4.5152,4.651,4.7404,4.8829,5.2373,5.4924,5.7309,6.0258,6.2577,6.4332,6.5094,6.6452,6.7069,6.569,6.6684,6.791,6.8639,6.8771,6.9036,6.9765,6.824,6.6446,6.5024,6.3133,6.2293,0.0,6.5488,6.7861,7.0128,6.9586,6.918,6.918,6.8368,6.7929,6.7929,6.7218,6.6846,6.6846,6.6812,6.6812,6.6812,6.6068,6.5696,6.5628,6.4241,6.2787,6.1366,6.1298,6.0452,5.9066,5.9032,5.8558,5.7848,5.7137,5.6833,5.6731,5.6021,5.531,5.4668,0.0,0.0,0.0,0.0,0.0,0.0,0.0,0.0,0.0,0.0,0.0,0.0,0.0,0.0,0.0,0.0,3.9102,4.0757,4.2905,4.6214,4.9465,5.2484,5.6055,5.8493,5.9568,6.1048,6.2122,6.2761,6.3304,6.3872,6.4529,6.4805,6.5442,6.6157,6.5772,6.6393,6.7693,6.7293,6.7111,6.7042,6.689,6.5841,6.4092,6.0633,5.7205,5.4019,0.0,5.0066,4.8548,4.7107,4.7243,4.8233,4.9458,4.9491,4.8663,4.6445,4.598,4.6477,4.7968,5.0286,5.3202,5.6879,5.9429,6.1583,6.3537,6.4895,6.5591,6.4862,6.3968,6.314,6.2643,6.2577,6.3272,6.5492,6.622,6.6949,6.8175,6.7098,6.528,6.2815,6.1621,0.0,0.0,0.0,0.0,6.688,6.7336,6.759,6.759,6.732,6.7184,6.7184,6.644,6.6068,6.6068,6.5595,6.5358,6.5324,6.4613,6.3971,6.3463,6.2482,6.1501,6.0486,6.0013,5.9505,5.8964,5.8457,5.7848,5.7137,5.69,5.619,5.531,5.5074,5.4499,5.3923,0.0,0.0,0.0,0.0,0.0,0.0,0.0,0.0,0.0,0.0,0.0,0.0,0.0,0.0,0.0,0.0,0.0,3.9567,4.1279,4.3747,4.6272,4.8856,5.2136,5.4429,5.5562,5.681,5.7739,5.8348,5.8813,5.9248,5.9684,6.038,6.1027,6.1585,6.1438,6.2114,6.3377,6.3294,6.2637,6.1768,6.1898,6.0389,5.7762,5.4587,5.1621,0.0,4.5335,4.4243,4.4304,4.3557,4.4201,4.5498,4.6183,4.6113,4.5616,4.4956,4.598,4.7901,5.0684,5.3699,5.6912,6.0324,6.2808,6.4597,6.526,6.579,6.5591,6.3603,6.1682,5.9993,5.8933,5.8369,5.8833,6.1251,6.2212,6.3471,6.5757,6.4729,6.3121,6.1493,6.0284,5.9437,0.0,0.0,0.0,6.4337,6.5387,6.601,6.6281,6.6635,6.6812,6.6812,6.6068,6.5696,6.5696,6.4952,6.4478,6.4208,6.3734,6.299,6.1975,6.1535,6.0723,5.9674,5.9235,5.8863,5.8592,5.8084,5.7611,5.7137,5.663,5.5818,5.4938,5.4397,5.3923,5.3585,0.0,0.0,0.0,0.0,0.0,0.0,0.0,0.0,0.0,0.0,0.0,0.0,0.0,0.0,0.0,0.0,0.0,0.0,3.9915,4.1279,4.3137,4.5547,4.694,4.8537,5.0394,5.0481,5.083,5.1468,5.2688,5.3297,5.3355,5.5213,5.6055,5.6084,5.6665,5.6926,5.6982,5.7673,5.6476,5.424,5.5717,5.3498,4.9186,4.7743,4.5508,4.2785,4.0648,3.9849,4.01,4.1917,4.2618,4.2837,4.3484,4.3731,4.4194,4.6411,4.7703,4.9491,5.4456,5.7508,5.9926,6.2775,6.5028,6.632,6.5525,6.5227,6.4266,6.1384,5.9429,5.7409,0.0,0.0,5.4759,5.6382,5.7409,5.9297,6.2941,6.1649,6.0589,0.0,0.0,0.0,0.0,0.0,0.0,6.2647,0.0,6.4555,6.5363,6.6281,6.677,6.677,6.6034,6.5662,6.5696,6.4918,6.4174,6.3463,6.3463,6.2685,6.1231,6.1231,6.0419,5.8964,5.8964,5.8558,5.7881,5.7848,5.7814,5.7679,5.6224,5.5649,5.548,5.4025,5.3518,5.3518,0.0,0.0,0.0,0.0,0.0,0.0,0.0,0.0,0.0,0.0,0.0,0.0,0.0,0.0,0.0,0.0,0.0,0.0,3.8667,4.035,4.1628,4.2295,4.4908,4.6592,4.7085,4.8043,4.8827,4.9465,4.9785,5.0191,5.0714,5.1207,5.1439,5.1439,5.1585,5.1643,5.1664,5.1816,5.1,4.9485,4.9404,4.8371,4.6655,4.437,4.3031,4.2188,4.0299,3.9284,3.9133,4.0961,4.2718,4.4276,4.4991,4.5616,4.651,4.873,5.1413,5.446,5.7939,6.1285,6.42,6.6055,6.6519,6.6187,6.4929,6.251,5.9728,5.6812,5.287,4.9558,4.8266,0.0,0.0,5.5289,5.88,0.0,6.526,6.5227,0.0,6.3637,0.0,6.2278,6.1194,6.1136,0.0,0.0,6.2857,6.3817,6.5329,6.6145,6.6592,6.6592,6.5478,6.5073,6.5446,6.4363,6.3429,6.2685,6.2685,6.1873,6.0419,6.0419,5.9573,5.8186,5.8186,5.8051,5.7848,5.7306,5.707,5.6934,5.5446,5.4871,5.4769,5.3856,5.3518,5.3518,0.0,0.0,0.0,0.0,0.0,0.0,0.0,0.0,0.0,0.0,0.0,0.0,0.0,0.0,0.0,0.0,0.0,0.0,0.0,3.9218,3.9828,3.9828,4.1541,4.2498,4.2498,4.3224,4.3747,4.4095,4.4676,4.514,4.5518,4.6359,4.6766,4.6766,4.7085,4.7201,4.7218,4.7512,4.656,0.0,0.0,4.3889,4.2441,4.0946,4.0422,4.03,3.9291,3.9387,4.0328,4.2323,4.42,4.5947,4.7669,4.8498,4.9491,5.3003,5.5487,5.7839,6.1417,6.4332,6.6419,6.6618,6.6353,6.5227,6.2179,5.9164,5.5875,5.198,4.8196,4.5142,4.3778,4.5211,4.7883,0.0,0.0,0.0,6.4057,6.4597,6.4796,0.0,6.4763,0.0,6.3282,6.2884,6.2818,0.0,6.3149,6.3735,6.5,6.5856,6.6302,6.6302,6.5446,6.4821,6.4544,6.3518,6.2651,6.1907,6.1907,6.1095,5.9641,5.9641,5.8998,5.7881,0.0,5.7712,5.7408,5.7306,5.7103,5.6697,5.5547,5.5074,5.4938,5.389,5.3518,5.3518,0.0,0.0,0.0,0.0,0.0,0.0,0.0,0.0,0.0,0.0,3.6809,0.0,0.0,0.0,0.0,0.0,0.0,0.0,0.0,0.0,3.8202,3.8202,3.8202,3.8202,3.8202,3.8202,3.8202,3.8202,3.9305,3.9857,3.9886,4.157,4.2353,4.2382,4.2963,4.3224,4.3267,4.3921,4.2824,4.0779,4.142,4.0241,3.8086,0.0,3.8028,3.7941,3.7941,3.9475,4.1918,4.4336,4.6188,4.8001,5.1083,5.2177,5.3271,5.8071,5.9628,6.0622,6.463,6.6784,6.7546,6.5955,6.526,6.367,5.8634,5.5412,5.2152,4.7429,4.4659,4.2492,4.0547,4.2004,4.4594,4.7707,0.0,5.6482,6.173,6.252,6.3537,6.6452,6.5525,6.473,6.4929,6.42,6.4001,6.4763,6.4275,6.4238,6.4814,6.5731,6.6119,6.5962,6.5572,6.4731,6.3451,6.2854,6.2178,6.1434,6.1366,6.0554,5.9167,5.9066,5.8592,5.7881,0.0,0.0,5.7002,5.7509,5.7374,5.6731,5.5886,5.5581,5.5412,5.4025,5.3518,5.3518,0.0,0.0,0.0,0.0,0.0,0.0,0.0,0.0,0.0,0.0,3.6402,3.6925,0.0,0.0,0.0,0.0,0.0,0.0,0.0,0.0,0.0,3.8202,3.8202,3.8202,3.8202,3.8202,3.8202,3.8202,3.8434,3.8522,3.8551,3.887,3.9044,3.9044,3.916,3.9218,3.9189,3.9343,3.913,3.8696,3.8847,3.8315,3.7476,3.7476,0.0,0.0,3.6635,3.7736,3.9712,4.3172,4.7107,5.1149,5.4659,5.6581,5.8237,6.155,6.3338,6.473,6.6672,6.8307,6.8937,6.685,6.4531,6.155,5.7044,5.1977,4.7364,4.4139,4.1305,3.9116,3.8139,4.1116,4.4917,4.8429,5.3081,5.8078,6.3305,6.4001,6.5061,0.0,6.7049,6.6618,6.7811,0.0,0.0,0.0,0.0,6.5891,6.5613,6.6357,6.6278,6.5216,6.5134,6.4489,6.3182,6.3242,6.2956,6.2178,6.1603,6.0825,5.9877,5.9302,5.8592,5.7881,5.7881,0.0,5.7679,5.7171,5.6934,5.6664,5.531,5.4769,5.4668,5.3822,5.3518,5.3518,0.0,0.0,0.0,0.0,0.0,0.0,0.0,3.4922,3.5473,3.707,3.7302,3.7418,3.7709,3.7738,3.7738,0.0,0.0,0.0,0.0,0.0,0.0,3.8202,3.8202,3.8202,3.8202,3.8202,3.8202,3.8202,0.0,3.8202,3.8202,3.8202,3.8202,3.8202,3.8202,3.8202,3.8202,3.8202,3.8202,3.8202,3.8202,3.8028,3.7738,0.0,0.0,0.0,3.6315,3.734,3.9204,4.246,4.619,5.0367,5.5509,5.8437,6.0564,6.3317,6.4988,6.625,6.7516,6.8142,6.7925,6.5853,6.2486,5.8338,5.341,4.8674,4.4301,4.0737,3.8591,3.7188,3.6507,3.9204,4.2479,4.5437,4.9725,5.4608,6.0158,6.1599,6.3617,6.7632,6.7512,6.7116,0.0,0.0,0.0,0.0,0.0,6.5818,6.6156,6.6168,6.5891,6.5454,6.4686,6.4036,6.3549,6.2892,6.2272,6.1616,6.1278,6.0541,5.9539,5.9167,5.8592,5.7881,5.7881,0.0,5.7306,5.6934,5.6799,5.6664,5.5175,5.4837,5.504,5.3923,5.3518,5.3518,0.0,0.0,0.0,0.0,0.0,0.0,0.0,3.5479,3.6083,3.8032,3.8214,3.7933,3.7213,3.7345,3.7447,0.0,0.0,0.0,0.0,0.0,0.0,0.0,0.0,0.0,3.8202,0.0,0.0,0.0,3.8202,0.0,0.0,0.0,0.0,0.0,3.8202,3.8202,3.8202,3.8202,3.8202,0.0,0.0,3.7912,0.0,0.0,0.0,0.0,0.0,3.6851,3.8477,4.1157,4.4048,4.7505,5.314,5.7604,6.1225,6.307,6.4919,6.656,6.731,6.7254,6.6468,6.4445,6.0489,5.561,5.018,4.5923,4.2013,3.8058,3.669,3.6038,3.5587,3.7421,3.9793,4.2266,4.559,5.0041,5.6245,5.8203,6.1033,0.0,6.6746,0.0,6.6226,0.0,0.0,0.0,0.0,0.0,6.612,6.5688,6.5425,6.5392,6.4218,6.37,6.3835,6.2405,6.1488,6.1077,6.074,6.0078,5.9085,5.8781,5.8346,5.7845,5.7845,0.0,0.0,5.7036,5.6934,5.6697,5.5513,5.5243,5.5344,5.4363,5.389,5.3754,0.0,0.0,0.0,0.0,0.0,0.0,0.0,3.577,3.615,3.8216,3.8284,3.782,3.6805,3.7506,3.7912,0.0,0.0,0.0,0.0,0.0,0.0,0.0,0.0,0.0,0.0,0.0,0.0,0.0,0.0,0.0,0.0,0.0,0.0,0.0,0.0,0.0,3.8202,3.8202,0.0,0.0,0.0,0.0,0.0,0.0,0.0,0.0,0.0,3.5049,3.6032,3.8238,4.0561,4.3002,4.5596,5.2644,5.9989,5.9781,6.2667,6.5885,6.5689,6.6047,6.5873,6.3479,5.9531,5.4794,4.9433,4.4392,4.004,3.7095,3.6004,3.5554,3.5519,3.6673,3.8604,4.1434,4.3239,4.6769,5.3883,5.5301,5.8116,6.4817,0.0,0.0,0.0,0.0,0.0,0.0,0.0,0.0,6.5073,6.5259,6.4988,6.4081,6.3782,6.3615,6.3615,6.2356,6.1676,6.1609,6.0269,5.9566,5.9404,5.8102,5.7506,5.7625,5.7625,0.0,0.0,5.778,5.7408,5.6799,5.6664,5.5818,5.4769,5.531,5.5074,5.46,0.0,0.0,0.0,0.0,0.0,0.0,3.4683,3.4491,3.5252,3.8286,3.8303,3.7937,3.7748,3.773,3.7497,3.6744,0.0,0.0,0.0,0.0,0.0,0.0,0.0,0.0,0.0,0.0,3.8202,3.8202,3.8202,0.0,0.0,0.0,0.0,0.0,0.0,0.0,0.0,3.8202,0.0,0.0,0.0,0.0,0.0,0.0,0.0,0.0,0.0,0.0,3.5014,3.6254,3.7582,3.8907,3.9638,4.4481,5.0592,5.405,5.8278,6.2013,6.2973,6.3723,6.3902,6.2441,5.7299,5.1601,4.7741,4.2954,3.8677,3.6339,3.5683,3.5519,3.5519,3.5959,3.6942,3.8861,3.9589,4.2023,4.7884,4.9544,5.2786,5.9766,6.0544,0.0,0.0,0.0,0.0,0.0,0.0,0.0,6.2399,6.3707,6.4427,6.4183,6.3715,6.3202,6.278,6.1792,6.1417,6.1506,6.0471,5.9816,5.946,5.8428,5.7763,5.7439,5.7439,0.0,0.0,5.7043,5.6942,5.7009,5.6135,5.577,5.5742,5.5574,5.5408,5.531,0.0,0.0,0.0,0.0,0.0,3.1372,3.3859,3.3698,3.4514,3.7821,3.8025,3.8025,3.846,3.7663,3.7172,3.715,3.707,0.0,0.0,0.0,0.0,0.0,0.0,0.0,0.0,0.0,3.8202,3.8202,3.8202,3.8202,0.0,0.0,0.0,0.0,0.0,0.0,0.0,0.0,0.0,0.0,0.0,0.0,0.0,0.0,0.0,0.0,0.0,0.0,0.0,0.0,0.0,3.5945,3.577,3.8121,4.2084,4.7801,5.3219,5.773,5.9083,6.0538,6.1418,6.0345,5.5135,4.9485,4.6391,4.1931,3.7914,3.5922,3.5519,3.5519,3.5519,3.5519,3.5938,3.7195,3.7404,3.9134,4.4081,4.5542,4.854,0.0,0.0,0.0,0.0,0.0,0.0,0.0,0.0,0.0,0.0,6.195,6.2747,6.301,6.2415,6.1829,6.1339,6.0576,6.0269,6.0407,5.9455,5.8848,5.8444,5.7562,5.6876,5.642,0.0,0.0,0.0,5.6312,5.6563,5.7189,5.6185,5.6023,5.6368,5.6065,5.5902,5.5877,0.0,0.0,0.0,0.0,0.0,0.0,3.3825,3.3734,3.4205,3.6669,3.7433,3.792,3.8443,3.7218,3.7099,3.9015,3.7418,0.0,0.0,0.0,0.0,0.0,0.0,0.0,0.0,0.0,3.8202,3.8202,3.8202,3.8202,3.8202,3.8202,0.0,0.0,0.0,0.0,0.0,0.0,0.0,0.0,0.0,0.0,0.0,0.0,0.0,0.0,0.0,0.0,0.0,0.0,0.0,0.0,0.0,3.4927,3.6422,4.1174,4.7765,5.3513,5.3912,5.6541,5.8737,5.7002,5.3408,4.9316,4.5588,4.1511,3.7914,3.5922,3.5519,3.5519,3.5519,3.5519,3.5938,3.7195,3.7404,3.9134,4.4,4.4504,4.6306,0.0,0.0,0.0,0.0,0.0,0.0,0.0,0.0,0.0,0.0,6.0106,5.9736,5.9736,5.9408,5.9253,5.9253,5.8479,5.8131,5.8131,5.6739,5.6075,5.6075,5.4652,5.4147,0.0,0.0,0.0,0.0,5.5889,5.6465,5.7289,5.7256,5.6821,5.6285,5.6988,5.6821,5.6318,0.0,0.0,0.0,0.0,0.0,0.0,0.0,3.201,3.2869,3.533,3.5817,3.6231,3.7082,3.6776,3.6884,3.7817,3.6925,0.0,0.0,0.0,0.0,0.0,0.0,0.0,0.0,3.8202,3.8202,3.8202,3.8202,3.8202,3.8202,3.8202,3.8202,3.8202,0.0,0.0,0.0,0.0,0.0,0.0,0.0,0.0,0.0,0.0,0.0,0.0,0.0,0.0,0.0,0.0,0.0,0.0,0.0,0.0,0.0,3.7099,4.1902,4.7016,4.8715,5.0994,5.2702,5.1968,4.8633,4.5021,4.3173,3.9841,3.6836,3.5734,3.5519,3.5519,3.5519,3.5519,3.6058,3.7793,3.8093,3.9097,0.0,0.0,0.0,5.0401,0.0,0.0,0.0,0.0,0.0,0.0,0.0,0.0,0.0,5.8519,5.8573,5.9986,5.9491,5.8953,5.8432,5.8211,5.7864,5.7435,5.6441,5.5778,5.5379,5.4462,0.0,0.0,0.0,0.0,0.0,5.5482,5.6034,5.6872,5.6872,5.6816,5.68,5.7001,5.7043,5.6988,0.0,0.0,0.0,0.0,0.0,0.0,0.0,3.0914,3.1724,3.3565,3.4086,3.4831,3.6306,3.6294,3.6662,3.7904,3.7215,0.0,0.0,0.0,0.0,0.0,0.0,0.0,3.8202,3.8202,3.8434,3.8928,3.8928,3.8928,3.8928,3.8928,3.8667,3.8202,3.8202,3.8202,0.0,0.0,0.0,0.0,0.0,0.0,3.5183,0.0,0.0,0.0,0.0,0.0,0.0,0.0,0.0,0.0,0.0,0.0,0.0,0.0,3.7594,4.1037,4.3885,4.6337,4.8073,4.7703,4.5062,4.2286,4.1132,3.8603,3.6297,3.5639,3.5519,3.5519,3.5519,3.5519,3.5968,3.7434,3.7853,3.8721,0.0,0.0,0.0,0.0,0.0,0.0,0.0,0.0,0.0,0.0,0.0,0.0,0.0,5.7543,5.7616,5.8665,5.8062,5.7504,5.7022,5.6743,5.6402,5.5968,5.5008,5.4357,5.3999,5.3272,0.0,0.0,0.0,0.0,0.0,5.4285,5.4861,5.5668,5.5668,5.5948,5.6342,5.6342,5.6647,5.7063,0.0,0.0,0.0,0.0,0.0,0.0,0.0,3.0544,3.093,3.1732,3.2482,3.3738,3.5874,3.5683,3.638,3.8783,0.0,0.0,0.0,0.0,0.0,0.0,0.0,0.0,3.8202,3.8173,3.8725,3.9973,4.006,4.0089,4.0031,4.0118,3.9479,3.826,3.826,3.8231,3.8173,0.0,0.0,0.0,3.6896,3.6373,0.0,0.0,0.0,0.0,0.0,0.0,0.0,0.0,0.0,0.0,0.0,0.0,0.0,0.0,0.0,0.0,0.0,4.2386,4.437,4.3907,4.2402,4.0696,3.9499,3.7764,0.0,3.5639,3.5519,3.5519,3.5579,3.5549,3.5759,3.6507,3.7105,3.8182,0.0,4.2363,0.0,0.0,0.0,0.0,0.0,0.0,0.0,0.0,0.0,0.0,0.0,5.7064,5.6765,5.6248,5.5538,5.5179,5.5119,5.4521,5.4162,5.4042,5.2815,5.2187,5.2127,5.1498,0.0,0.0,0.0,0.0,0.0,5.2606,5.3152,5.3976,5.3976,5.4485,5.5231,5.5231,5.5749,5.6525,0.0,0.0,0.0,0.0,0.0,0.0,0.0,0.0,0.0,0.0,3.2486,3.3578,3.408,3.4898,3.5828,0.0,0.0,0.0,0.0,0.0,0.0,0.0,0.0,0.0,3.8202,3.7767,3.7883,3.8638,3.9625,3.9857,3.9421,4.0408,4.0176,3.8957,3.8957,3.8667,3.8202,3.8057,0.0,0.0,3.768,3.6896,0.0,0.0,0.0,0.0,3.4399,3.4399,0.0,0.0,0.0,0.0,0.0,0.0,0.0,0.0,3.4516,3.484,3.5873,0.0,3.8642,3.8822,3.8156,3.7382,0.0,3.6417,3.5699,3.5549,3.5519,3.5669,3.6178,3.5848,3.6028,3.7674,3.8063,3.8871,4.0876,0.0,0.0,0.0,0.0,0.0,0.0,0.0,0.0,0.0,0.0,0.0,0.0,5.6645,5.6368,5.6218,5.5538,5.494,5.4431,5.4281,5.3683,5.2665,5.2366,5.1947,5.1439,5.1289,0.0,0.0,0.0,0.0,5.2606,5.2606,5.3152,5.3976,5.3976,5.4105,5.4317,5.4317,5.4443,5.4611,0.0,0.0,0.0,0.0,0.0,0.0,0.0,0.0,0.0,0.0,0.0,3.362,3.3877,3.5038,0.0,0.0,0.0,0.0,0.0,0.0,0.0,0.0,0.0,3.6983,3.7331,3.7331,3.7767,3.8667,3.9915,4.0379,4.0089,4.0786,4.0408,3.9189,3.887,3.8551,3.8202,3.8202,3.7999,3.7738,3.8057,0.0,0.0,0.0,0.0,0.0,3.4748,3.4661,0.0,3.4399,3.4399,3.4399,0.0,0.0,0.0,0.0,3.4399,3.4428,3.453,3.5331,3.6265,3.6645,3.648,3.6335,3.6802,3.6178,3.5579,3.5908,3.5699,3.5609,3.5968,3.5998,3.6297,3.7345,3.8272,0.0,0.0,0.0,0.0,0.0,0.0,0.0,0.0,0.0,0.0,0.0,0.0,0.0,0.0,5.6196,5.6047,5.5718,5.5388,5.488,5.4221,5.3892,5.3204,5.2187,5.1887,5.1558,5.1229,5.1229,5.1229,0.0,0.0,0.0,5.1957,5.1957,5.2245,5.274,5.274,5.3007,5.3371,5.3371,5.3632,5.3976,0.0,0.0,0.0,0.0,0.0,0.0,0.0,0.0,0.0,0.0,0.0,0.0,0.0,0.0,0.0,0.0,0.0,0.0,0.0,0.0,0.0,0.0,3.646,3.6315,3.6577,3.707,3.797,3.9334,4.0815,4.1482,4.1395,4.1599,4.0844,3.9305,3.8638,3.8289,3.8202,3.8202,3.8202,3.8202,3.8202,0.0,0.0,0.0,0.0,0.0,0.0,0.0,0.0,3.4399,3.4399,3.4399,3.4399,0.0,0.0,0.0,0.0,0.0,3.4578,3.5239,3.5908,3.5984,3.6179,3.6514,3.7131,3.6417,3.5818,3.6357,3.5968,3.5579,3.5759,3.6237,3.6686,0.0,0.0,0.0,0.0,0.0,0.0,0.0,0.0,0.0,0.0,0.0,0.0,0.0,0.0,0.0,0.0,5.5718,5.5777,5.5209,5.5179,5.482,5.4072,5.3473,5.2785,5.2037,5.1498,5.1229,5.1229,5.1229,5.1229,0.0,0.0,0.0,5.1199,5.1109,5.1079,5.1079,5.1079,5.153,5.2258,5.235,5.2918,5.3545,0.0,0.0,0.0,0.0,0.0,0.0,0.0,0.0,0.0,0.0,0.0,0.0,0.0,0.0,0.0,0.0,0.0,0.0,0.0,0.0,0.0,3.5712,3.5595,3.6293,3.7883,3.7506,3.8173,3.9973,4.2353,4.3253,4.2731,4.3805,4.276,3.9944,3.9334,3.8725,3.8202,3.8202,3.8202,3.8202,3.8202,0.0,0.0,0.0,0.0,0.0,0.0,0.0,0.0,3.4399,3.4399,3.4399,3.4399,0.0,0.0,0.0,0.0,0.0,3.5302,3.6365,3.6934,3.5461,3.6077,3.696,3.6683,3.6477,3.6357,3.6477,3.5968,3.5848,3.6926,3.7195,3.7644,0.0,0.0,4.4586,0.0,0.0,0.0,0.0,0.0,0.0,0.0,0.0,0.0,0.0,0.0,0.0,0.0,5.5299,5.5299,5.5179,5.5179,5.461,5.3354,5.3234,5.2576,5.1379,5.1259,5.1229,5.1229,5.1229,5.1229,0.0,0.0,5.1229,5.1169,5.0584,5.0345,5.0345,5.0345,5.0437,5.0635,5.1222,5.1526,5.1618,0.0,0.0,0.0,0.0,0.0,0.0,0.0,0.0,0.0,0.0,0.0,0.0,0.0,0.0,0.0,0.0,0.0,0.0,0.0,0.0,3.5712,3.6373,3.6054,3.6286,3.7157,3.826,3.9596,4.1163,4.3398,4.4501,4.4531,4.3747,4.2034,3.9596,3.8957,3.8492,3.8202,3.8202,3.8202,3.8202,0.0,0.0,0.0,0.0,0.0,0.0,0.0,0.0,0.0,0.0,3.469,3.4399,3.4399,0.0,0.0,0.0,0.0,0.0,3.515,3.6315,3.7098,3.5925,3.6912,3.821,3.8088,3.7255,3.672,3.7375,3.6716,3.6417,3.7704,3.8811,4.0457,4.324,0.0,0.0,0.0,0.0,0.0,0.0,0.0,0.0,0.0,0.0,0.0,0.0,0.0,0.0,0.0,0.0,5.482,5.5179,5.5179,5.4551,5.3204,5.3174,5.2516,5.1229,5.1229,5.1229,5.1229,5.1229,5.1229,5.1229,0.0,5.0973,5.0614,5.0315,4.9986,4.9763,5.0046,5.0032,4.9793,5.0451,5.0853,5.1229,0.0,0.0,0.0,0.0,0.0,0.0,0.0,0.0,0.0,0.0,0.0,0.0,0.0,0.0,0.0,0.0,0.0,0.0,0.0,3.5683,3.5857,3.6809,3.6925,3.7186,3.7651,3.9712,4.157,4.3195,4.5082,4.604,4.604,4.366,4.1424,3.9392,3.8725,3.8347,3.8202,3.8202,3.8202,3.8202,0.0,0.0,0.0,0.0,0.0,0.0,0.0,0.0,0.0,0.0,0.0,0.0,0.0,0.0,0.0,3.4631,3.4698,3.476,3.5112,3.6166,3.7104,3.6811,3.7942,3.9258,3.9582,3.8482,3.7764,3.905,3.8302,3.7704,3.8691,4.0606,0.0,4.695,4.8356,0.0,0.0,0.0,0.0,0.0,0.0,0.0,0.0,0.0,0.0,0.0,0.0,0.0,0.0,0.0,5.4281,5.494,5.479,5.4162,5.2965,5.2965,5.2366,5.1229,5.1229,5.1229,5.1229,5.1229,5.1229,5.1229,5.1229,5.0794,5.0196,5.0016,4.9613,4.912,4.9583,4.9673,4.9553,5.0016,5.0614,5.1229,0.0,0.0,0.0,0.0,0.0,0.0,0.0,0.0,0.0,0.0,0.0,0.0,0.0,0.0,0.0,0.0,0.0,0.0,0.0,3.5421,3.545,3.5537,3.7738,3.9828,4.1628,4.2411,4.4008,4.643,4.8391,4.8449,4.6662,4.4763,4.2498,4.0002,3.9392,3.8783,3.8202,3.8202,3.8202,3.8202,3.8202,0.0,0.0,0.0,0.0,0.0,0.0,0.0,0.0,0.0,0.0,0.0,0.0,0.0,3.4462,3.4631,3.4698,3.4882,3.584,3.6624,3.7377,3.8088,3.8805,3.9553,4.0187,4.0217,4.0487,4.1841,4.1025,4.0157,4.0247,4.2372,4.5005,4.7758,0.0,0.0,0.0,0.0,0.0,0.0,0.0,0.0,0.0,0.0,0.0,0.0,0.0,0.0,0.0,0.0,0.0,5.4251,5.3653,5.2995,5.2276,5.2276,5.1917,5.1229,5.1229,5.1229,5.1229,5.1229,5.1229,5.1229,5.1229,5.0794,5.0136,4.9583,4.8955,4.8356,4.8416,4.9134,5.0136,5.0166,5.0614,5.1229,0.0,0.0,0.0,0.0,0.0,0.0,0.0,0.0,0.0,0.0,0.0,0.0,0.0,0.0,0.0,0.0,0.0,0.0,0.0,3.5392,3.5915,3.707,3.8463,4.0292,4.2615,4.4066,4.5837,4.7967,4.9146,4.8275,4.5605,4.4066,4.2005,3.9509,3.887,3.8434,3.8202,3.8202,3.8202,3.8202,3.8202,3.8202,0.0,0.0,0.0,0.0,0.0,0.0,0.0,0.0,3.527,3.4399,3.4399,3.4399,3.4462,3.4735,3.4765,3.4857,3.5558,3.6458,3.7198,3.7221,3.8332,3.9881,4.1765,4.1893,4.2141,4.3838,4.3778,4.3569,4.4018,0.0,4.7638,5.0301,0.0,0.0,0.0,0.0,0.0,0.0,0.0,0.0,0.0,0.0,0.0,0.0,0.0,0.0,0.0,0.0,0.0,5.3563,5.3324,5.2875,5.2217,5.2187,5.1858,5.1229,5.1229,5.1229,5.1199,5.0734,5.0554,5.0554,5.0182,4.9643,4.9015,4.8745,4.8267,4.7728,4.8117,4.9075,5.0196,5.0196,5.0345,5.0614,0.0,0.0,0.0,0.0,0.0,0.0,0.0,0.0,0.0,0.0,0.0,0.0,0.0,0.0,0.0,0.0,0.0,0.0,3.5712,3.5508,3.6148,3.7854,3.8754,4.0205,4.2353,4.4676,4.6824,4.8663,4.9349,4.8014,4.485,4.3573,4.1976,4.0089,3.9189,3.8928,3.9102,3.8696,3.8405,3.8202,3.8202,3.8202,0.0,0.0,0.0,0.0,0.0,0.0,0.0,0.0,3.5473,3.4399,3.4399,3.4399,3.4433,3.4735,3.4949,3.5159,3.5591,3.6343,3.6999,3.7071,3.8093,4.0008,4.3439,4.3928,4.4227,4.6411,4.6352,4.6082,4.6561,4.7369,0.0,0.0,0.0,0.0,0.0,0.0,0.0,0.0,0.0,0.0,0.0,0.0,0.0,0.0,0.0,0.0,0.0,0.0,0.0,0.0,5.2665,5.2247,5.1588,5.1588,5.1349,5.0853,5.069,5.072,5.09,5.0405,5.0076,4.9912,4.9464,4.894,4.8297,4.8297,4.7908,4.7369,4.7788,4.8656,4.9613,4.9613,4.9837,5.0255,0.0,0.0,0.0,0.0,0.0,0.0,0.0,0.0,0.0,0.0,0.0,0.0,0.0,0.0,0.0,0.0,0.0,0.0,3.6315,3.577,3.6002,3.7244,3.8522,3.9799,4.1047,4.4211,4.6795,4.8663,4.932,4.7985,4.4821,4.3573,4.2673,4.2005,4.0699,4.0466,4.0989,3.9741,3.8812,3.8202,3.8202,3.8202,3.8202,0.0,0.0,0.0,0.0,0.0,0.0,0.0,3.5473,3.4399,3.4399,3.4399,3.4462,3.4631,3.5272,3.5942,3.6145,3.6343,3.6806,3.8063,3.8422,3.9828,4.5125,4.6279,4.7027,4.9657,4.8716,4.7339,4.7339,4.7339,0.0,0.0,0.0,0.0,0.0,0.0,0.0,0.0,0.0,0.0,0.0,0.0,0.0,0.0,0.0,0.0,0.0,0.0,0.0,0.0,5.1558,5.09,5.0196,5.0196,5.0196,5.0166,4.9583,4.9613,5.0196,5.0196,4.9883,4.9299,4.9299,4.891,4.8267,4.8267,4.7908,4.7309,4.7309,4.7728,4.8297,4.8297,4.9105,5.0166,0.0,0.0,0.0,0.0,0.0,0.0,0.0,0.0,0.0,0.0,0.0,0.0,0.0,0.0,0.0,0.0,0.0,0.0,3.6344,3.6577,3.6896,3.7273,3.8522,3.9392,3.977,4.2034,4.4589,4.7329,4.7143,4.5372,4.2237,4.276,4.1947,4.0089,4.1076,4.0844,3.9741,3.9363,3.8812,3.8202,3.8202,3.8202,3.8202,0.0,0.0,0.0,0.0,0.0,0.0,0.0,0.0,0.0,3.4399,3.4719,3.5078,3.4781,3.5492,3.6241,3.5663,3.6573,3.7804,3.8267,3.9835,4.2141,4.5544,4.5963,4.6621,5.0182,5.0451,4.9912,4.9418,4.9763,0.0,0.0,0.0,0.0,0.0,0.0,0.0,0.0,0.0,0.0,0.0,0.0,0.0,0.0,0.0,0.0,0.0,0.0,0.0,0.0,5.0584,5.0212,4.9553,4.9553,4.9553,4.9553,4.9419,4.9613,5.0166,4.9284,4.8775,4.8566,4.8087,4.7788,4.7608,4.7608,4.7489,4.7369,4.7818,4.8117,4.8356,4.885,4.8925,4.8925,0.0,0.0,0.0,0.0,0.0,0.0,0.0,0.0,0.0,0.0,3.8202,3.8202,0.0,0.0,0.0,0.0,0.0,0.0,3.707,3.6954,3.7128,3.7651,3.8173,3.8928,3.9944,4.1366,4.2905,4.456,4.4676,4.3485,4.1134,4.2673,4.2702,4.1512,4.2963,4.2673,4.1076,4.0583,3.9509,3.8202,3.8202,3.8202,3.8202,0.0,0.0,0.0,0.0,0.0,0.0,0.0,0.0,0.0,3.4486,3.469,3.502,3.5073,3.5878,3.6658,3.6437,3.7317,3.8495,3.9379,4.1033,4.3159,4.6052,4.7818,4.9673,5.2576,5.2546,5.1798,5.1139,5.1139,0.0,0.0,0.0,0.0,0.0,0.0,0.0,0.0,0.0,0.0,0.0,0.0,0.0,0.0,0.0,0.0,0.0,0.0,0.0,0.0,5.0002,4.9553,4.894,4.891,4.891,4.891,4.8626,4.8835,4.9434,4.8656,4.8147,4.7878,4.7489,4.7309,4.7309,4.7309,4.7309,4.7339,4.7728,4.7908,4.7938,4.8356,4.8386,4.8356,0.0,0.0,3.0885,3.1655,0.0,0.0,0.0,0.0,0.0,0.0,3.8202,3.8202,0.0,0.0,0.0,0.0,0.0,0.0,0.0,3.7128,3.6983,3.8144,3.7738,3.8551,4.0873,4.1512,4.1541,4.0931,4.2208,4.2179,4.096,4.3079,4.4298,4.4763,4.5605,4.5169,4.3747,4.244,4.0466,3.8202,3.8202,3.8202,3.8202,3.8202,0.0,0.0,0.0,0.0,0.0,0.0,0.0,0.0,3.469,3.4486,3.467,3.5488,3.6305,3.7163,3.7901,3.8346,3.905,4.0995,4.2321,4.3908,4.689,5.096,5.4401,5.5418,0.0,5.3054,5.2336,0.0,0.0,0.0,0.0,0.0,0.0,0.0,0.0,0.0,0.0,0.0,0.0,0.0,0.0,0.0,0.0,0.0,0.0,0.0,0.0,4.9986,4.9494,4.891,4.8207,4.8207,4.8207,0.0,4.7578,4.7608,4.8207,4.8207,4.7878,4.7309,4.7309,4.7309,4.7309,4.7309,4.7309,4.7309,4.7309,4.7309,4.7309,4.7309,4.7698,4.8207,0.0,0.0,3.245,3.3829,0.0,0.0,0.0,0.0,0.0,0.0,0.0,0.0,0.0,0.0,0.0,0.0,0.0,0.0,0.0,3.7941,3.7912,3.8202,3.858,3.9044,3.9596,3.9741,3.9741,3.9625,4.0873,4.0844,3.9683,4.3108,4.424,4.3485,4.5663,4.5082,4.2411,4.1076,3.9625,3.8202,3.8202,3.8202,3.8202,3.8202,3.8202,0.0,0.0,0.0,0.0,0.0,0.0,0.0,3.5247,3.5258,3.5395,3.5639,3.6698,3.7771,3.7491,3.8674,4.0307,4.1811,4.5364,4.8701,4.9388,5.1588,5.3054,5.1768,5.2845,5.3623,5.2426,0.0,0.0,0.0,0.0,0.0,0.0,0.0,0.0,0.0,0.0,0.0,0.0,0.0,0.0,0.0,0.0,0.0,0.0,0.0,0.0,4.8716,4.8566,4.8177,4.7519,4.7519,4.7519,0.0,4.7369,4.7369,4.7519,4.7519,4.7429,4.7309,4.7309,4.7309,4.7309,4.7309,4.7309,4.7309,4.7309,4.7309,4.7309,4.7309,4.7399,4.7519,0.0,0.0,0.0,0.0,0.0,0.0,0.0,0.0,0.0,0.0,0.0,0.0,0.0,3.8202,0.0,0.0,3.8202,3.8202,3.8202,3.8202,3.8202,3.8202,3.8841,3.9044,3.8725,3.9044,3.9044,3.8725,3.9712,4.0002,3.9683,4.2324,4.3515,4.3544,4.5518,4.4792,4.2063,4.1337,3.9944,3.8202,3.8202,3.8202,3.8202,3.8202,3.8202,3.8202,3.8202,0.0,0.0,0.0,0.0,0.0,0.0,0.0,3.5647,3.6394,3.7016,3.7618,3.802,3.9205,4.0935,4.321,4.6561,4.9374,4.9703,5.0571,5.1066,4.9972,5.1887,5.3294,0.0,0.0,0.0,0.0,0.0,0.0,0.0,0.0,0.0,0.0,0.0,0.0,0.0,0.0,0.0,0.0,0.0,0.0,0.0,4.87,4.8446,4.8745,4.8147,4.7818,4.7788,4.7459,4.7309,4.7309,4.7309,4.7309,4.7309,4.7309,4.7309,4.7309,4.7309,4.7309,4.7309,4.7309,4.7309,4.7309,4.7309,4.7309,4.7309,4.7309,4.7309,4.7309,0.0,0.0,0.0,0.0,0.0,0.0,0.0,0.0,0.0,0.0,0.0,0.0,0.0,3.8202,3.8202,0.0,0.0,0.0,3.8202,3.8202,3.8202,3.8202,3.8841,3.8957,3.8376,3.8928,3.8928,3.8376,3.8928,3.9567,4.0292,4.1744,4.2992,4.4037,4.5198,4.4356,4.2092,4.186,4.0379,3.8202,3.8202,3.8202,3.8202,3.8202,3.8202,3.8202,3.8202,3.8202,3.8115,3.7622,0.0,0.0,0.0,0.0,3.5869,3.725,3.7399,3.7399,3.8792,3.9928,4.1414,4.4257,4.6561,4.8237,4.8656,4.906,4.9269,4.9179,5.099,0.0,0.0,0.0,0.0,0.0,0.0,0.0,0.0,0.0,0.0,0.0,0.0,0.0,0.0,0.0,0.0,0.0,0.0,0.0,4.894,4.7788,4.7698,4.894,4.7758,4.7399,4.7938,4.7399,4.707,4.695,4.695,4.695,4.695,4.707,4.7189,4.7309,4.7309,4.7309,4.7309,4.7309,4.7309,4.7309,4.7309,4.7309,4.7309,4.7309,4.7309,4.7309,0.0,0.0,0.0,0.0,0.0,0.0,0.0,0.0,0.0,0.0,3.8202,3.8202,3.8202,3.8202,3.8202,3.8202,3.8202,3.8202,3.8202,0.0,0.0,3.8202,3.8841,3.916,3.9073,3.916,3.916,3.9073,3.916,3.9799,4.1018,4.2876,4.3834,4.4037,4.4705,4.3921,4.2005,4.0844,3.9538,3.8202,3.8202,3.8202,3.8202,3.8202,3.8202,3.8202,3.8202,3.8202,3.8202,3.8115,3.7738,0.0,0.0,0.0,3.6629,3.7575,3.7902,3.8169,3.9092,4.0726,4.2381,4.3389,4.5544,4.7309,4.683,4.8027,4.9149,0.0,0.0,0.0,0.0,0.0,0.0,0.0,0.0,0.0,0.0,0.0,0.0,0.0,0.0,0.0,0.0,0.0,0.0,0.0,0.0,0.0,4.7549,4.686,4.68,4.7549,4.683,4.6501,4.6591,4.6501,4.6142,4.5574,4.5574,4.5574,4.5574,4.6172,4.677,4.7309,4.7309,4.7309,4.7309,4.7309,4.7309,4.7309,4.7309,4.7309,4.7309,4.7309,4.7309,4.7309,0.0,0.0,0.0,0.0,0.0,0.0,0.0,0.0,0.0,0.0,0.0,3.8202,3.8202,3.8202,3.8202,3.8202,3.8202,3.8202,3.8202,3.8202,3.8202,3.8202,3.8492,3.8638,3.8638,3.8638,3.8638,3.8638,3.9363,4.0379,4.1686,4.3253,4.3805,4.3456,4.3718,4.276,4.0931,4.035,3.9363,3.8202,3.8202,3.8202,3.8202,3.8202,3.8202,3.8202,3.8202,3.8202,3.8202,3.8202,3.8028,3.7796,3.7796,0.0,0.0,0.0,3.8039,3.8269,3.9606,4.0876,4.2111,4.309,4.4496,4.5663,4.5723,4.6711,4.7549,4.7249,0.0,0.0,0.0,0.0,0.0,0.0,0.0,0.0,0.0,0.0,0.0,0.0,0.0,0.0,0.0,0.0,0.0,0.0,0.0,4.6352,4.6741,4.6112,4.6052,4.6741,4.6112,4.5933,4.6279,4.5933,4.5603,4.5304,4.5304,4.5304,4.5304,4.5603,4.6112,4.68,4.7549,4.7638,4.7339,4.7698,4.7638,4.7309,4.7309,4.7309,4.7309,4.7309,4.7309,4.7309,0.0,0.0,0.0,0.0,0.0,0.0,0.0,0.0,0.0,0.0,0.0,3.8202,3.8202,0.0,0.0,0.0,3.8202,3.8202,3.8202,3.8202,3.8202,3.8202,3.8202,3.8202,3.8202,3.8202,3.8202,3.8202,3.9479,4.0873,4.2353,4.3631,4.4124,4.395,4.3631,4.2411,4.0583,4.0437,3.9712,3.8667,3.8347,3.8202,3.8202,3.8202,3.8202,3.8202,3.8202,3.8202,3.8202,3.8202,3.8202,3.8202,3.8202,3.7883,0.0,0.0,0.0,3.8161,3.943,4.0173,4.0868,4.1966,4.305,4.3988,4.4646,0.0,4.6052,0.0,0.0,0.0,0.0,0.0,0.0,0.0,0.0,0.0,0.0,0.0,0.0,0.0,0.0,0.0,0.0,0.0,0.0,0.0,0.0,4.5514,4.6022,4.5424,4.5364,4.6022,4.5394,4.5304,4.5813,4.5155,4.4796,4.4796,4.4796,4.4796,4.4796,4.4975,4.5334,4.5903,4.7219,4.7519,4.71,4.7758,4.7758,4.7309,4.7309,4.7309,4.7309,4.7309,4.7309,4.7309,0.0,0.0,0.0,0.0,0.0,0.0,0.0,0.0,0.0,0.0,0.0,3.8202,3.8202,3.8202,3.8202,3.8202,3.8202,3.8202,3.8202,3.8202,3.8202,3.8202,3.8202,0.0,3.8202,3.8202,3.8202,3.8202,3.9479,4.1076,4.2963,4.424,4.5488,4.6546,4.5343,4.3747,4.1947,4.1308,4.0641,3.9886,3.8696,3.8202,3.8202,3.8202,3.8202,3.8202,3.8202,3.8202,3.8202,0.0,0.0,0.0,0.0,3.8173,3.8211,0.0,0.0,0.0,3.8007,3.8216,3.8537,3.9185,4.0942,4.268,0.0,0.0,0.0,0.0,0.0,0.0,0.0,0.0,0.0,0.0,0.0,0.0,0.0,0.0,0.0,0.0,0.0,0.0,0.0,0.0,0.0,0.0,0.0,4.5304,4.5334,4.4736,4.4676,4.5334,4.4706,4.4377,4.4407,4.3738,4.3379,4.3379,4.3379,4.3379,4.3409,4.4077,4.4377,4.4496,4.5843,4.6369,4.6369,4.71,4.7339,4.7309,4.7309,4.7309,4.7309,4.7309,4.7309,4.7309,0.0,0.0,0.0,0.0,0.0,0.0,0.0,0.0,0.0,0.0,0.0,0.0,0.0,3.8202,3.8202,3.8202,3.8202,3.8202,3.8202,3.8202,3.8202,3.8202,3.8202,3.8202,3.8202,3.8202,3.8202,3.8202,3.9102,4.0525,4.244,4.3282,4.4356,4.5576,4.5082,4.3863,4.2034,4.0931,3.9857,3.8841,3.8376,3.8202,3.8202,3.8202,3.8463,3.8841,3.8841,0.0,0.0,0.0,0.0,0.0,0.0,0.0,3.8153,3.7996,3.7813,3.7621,3.7352,3.731,3.7558,3.8317,3.94,4.0487,4.1257,4.2791,0.0,0.0,0.0,0.0,0.0,0.0,0.0,0.0,0.0,0.0,0.0,0.0,0.0,0.0,0.0,0.0,0.0,0.0,0.0,0.0,0.0,0.0,4.4646,4.4007,4.3738,4.3977,4.3768,4.3648,4.3648,4.3409,4.329,4.329,4.329,4.329,4.329,4.3529,4.3648,4.3708,4.4646,4.5514,4.6339,4.704,4.7309,4.7309,4.7309,4.7309,4.7309,4.7309,4.7309,4.7309,0.0,0.0,0.0,3.8202,0.0,3.8202,3.8202,3.8202,3.8202,3.8202,0.0,0.0,0.0,0.0,3.8202,3.8202,3.8202,3.8202,3.8202,3.8202,3.8202,3.8202,3.8202,3.8202,3.8202,3.7999,3.7999,3.8202,3.8638,3.9857,4.1773,4.2382,4.3369,4.456,4.4124,4.3369,4.2324,4.1221,4.0147,3.9131,3.8725,3.8667,3.8841,3.8841,3.9102,3.9509,3.9509,0.0,0.0,0.0,0.0,0.0,0.0,0.0,0.0,3.766,3.7346,3.7061,3.6599,3.631,3.6438,3.7604,3.8175,3.8746,3.9822,0.0,0.0,0.0,0.0,0.0,0.0,0.0,0.0,0.0,0.0,0.0,0.0,0.0,0.0,0.0,0.0,0.0,0.0,0.0,0.0,0.0,0.0,0.0,4.3958,4.3529,4.329,4.329,4.329,4.329,4.329,4.329,4.329,4.329,4.329,4.329,4.329,4.329,4.329,4.3319,4.3768,4.4616,4.5693,4.6352,4.677,4.698,4.698,4.71,4.7309,4.7309,4.7309,4.7309,0.0,3.8202,3.8202,3.8202,3.8202,3.8202,3.8202,3.8202,3.8202,3.8202,0.0,0.0,0.0,0.0,0.0,3.8231,3.8231,3.8231,3.8202,3.8202,3.8202,3.8202,3.8231,3.8231,3.8231,3.768,3.7651,3.826,3.8231,3.9189,4.1076,4.1715,4.2673,4.3863,4.2615,4.2382,4.2876,4.2295,4.1657,4.0931,3.9712,3.9567,4.0089,4.0089,4.0118,4.0118,4.0118,4.0147,0.0,4.0147,0.0,0.0,0.0,0.0,0.0,0.0,3.6809,3.6206,0.0,0.0,0.0,3.6734,3.7164,0.0,3.9014,0.0,0.0,0.0,0.0,0.0,0.0,0.0,0.0,0.0,0.0,0.0,0.0,0.0,0.0,0.0,0.0,0.0,0.0,0.0,0.0,0.0,0.0,4.329,4.329,4.329,4.329,4.329,4.329,4.329,4.329,4.329,4.329,4.329,4.329,4.329,4.329,4.329,4.329,4.329,4.329,4.3648,4.4347,4.5005,4.5693,4.6279,4.6279,4.6741,4.7309,4.7309,4.7309,4.7309,3.8202,3.8202,3.8202,3.8202,3.8202,3.8202,3.8202,3.8202,3.8202,0.0,0.0,0.0,3.8202,3.8638,3.8928,3.8928,3.8928,3.8725,3.8231,3.8202,3.8202,3.8202,3.8667,3.8928,3.8928,3.8754,3.8957,3.9567,3.8638,3.8957,4.0379,4.0118,4.067,4.1889,4.1541,4.1192,4.0873,4.0728,4.0292,3.9741,3.9828,3.9944,4.0089,4.0089,4.0408,0.0,0.0,4.1134,4.1482,0.0,4.0699,4.0408,0.0,0.0,3.7999,0.0,0.0,3.6089,3.5185,0.0,0.0,0.0,0.0,0.0,3.7191,3.8153,0.0,0.0,0.0,0.0,0.0,0.0,0.0,0.0,0.0,0.0,0.0,0.0,0.0,0.0,0.0,0.0,0.0,0.0,0.0,0.0,4.329,4.329,4.329,4.329,4.329,4.329,4.329,4.329,4.329,4.329,4.329,4.329,4.329,4.329,4.329,4.329,4.329,4.329,4.329,4.3409,4.3618,4.4317,4.5274,4.6279,4.6279,4.6741,4.7309,4.7309,4.7309,4.7309,3.8202,3.8202,3.8202,3.8202,3.8434,3.8522,3.8231,3.8434,3.8522,0.0,0.0,0.0,3.8957,3.9596,3.9886,3.9596,3.9567,3.9421,3.9015,3.8986,3.8986,3.8986,3.9363,3.9567,3.9567,3.9044,3.9102,3.9712,3.8463,3.8347,3.9305,3.8957,3.9189,3.9886,3.9886,3.9683,3.9334,3.9596,3.9654,3.9596,3.9944,4.0583,4.1308,4.1308,4.1715,0.0,0.0,0.0,4.2411,4.2005,4.1337,0.0,0.0,0.0,0.0,0.0,0.0,3.6119,3.5273,3.4806,3.4756,0.0,0.0,0.0,3.635,3.7011,3.7694,0.0,0.0,0.0,0.0,0.0,0.0,0.0,0.0,0.0,0.0,0.0,0.0,0.0,0.0,0.0,0.0,0.0,0.0,4.329,4.329,4.329,4.329,4.329,4.329,4.329,4.329,4.329,4.329,4.329,4.329,4.329,4.329,4.329,4.329,4.329,4.329,4.329,4.329,4.329,4.3319,4.3708,4.4676,4.5903,4.5903,4.6471,4.7309,4.7309,4.7309,4.7309,0.0,3.8202,3.8231,3.8289,3.8812,3.9015,3.8492,3.887,3.9015,0.0,3.8986,3.9654,4.0263,4.0844,4.0931,4.0263,4.0205,4.0176,4.0089,4.0089,4.0089,4.0089,4.0176,4.0205,4.0205,3.9015,3.8725,3.9421,3.8057,3.7709,3.8318,3.8231,3.8202,3.8202,3.8202,3.8202,3.8231,3.8841,3.9479,4.0118,4.0263,4.1395,4.2992,4.3079,4.3456,4.3979,4.3979,4.3602,4.3079,4.3021,4.1744,0.0,0.0,0.0,0.0,0.0,3.6838,3.6206,3.5711,3.503,3.468,0.0,0.0,0.0,3.6071,3.619,3.6301,0.0,0.0,0.0,0.0,0.0,0.0,0.0,0.0,0.0,0.0,0.0,0.0,0.0,0.0,0.0,0.0,4.308,4.308,4.308,4.314,4.323,4.329,4.329,4.329,4.329,4.329,4.329,4.329,4.329,4.329,4.329,4.329,4.329,4.329,4.329,4.329,4.329,4.329,4.329,4.329,4.329,4.4107,4.5304,4.5304,4.6112,4.7309,4.7309,4.7309,4.7309,3.8202,3.8202,3.8376,3.8899,3.9102,3.9334,3.9683,3.9421,3.9334,3.9683,4.0321,4.0989,4.1628,4.1831,4.1628,4.096,4.0902,4.067,4.0147,4.0089,4.0089,4.0089,4.0612,4.0902,4.0902,4.0118,4.006,4.0728,3.8899,3.8376,3.8986,3.8463,3.8202,3.8202,3.8202,3.8202,3.8202,3.8347,3.9044,4.0176,4.1279,4.2237,4.305,4.3602,4.3892,4.3979,4.3979,4.3921,4.3718,4.3166,4.2063,4.0786,0.0,0.0,0.0,3.7651,0.0,0.0,0.0,0.0,0.0,0.0,0.0,0.0,3.5211,3.5307,3.5551,0.0,0.0,0.0,0.0,0.0,0.0,0.0,0.0,0.0,0.0,0.0,0.0,0.0,0.0,0.0,0.0,4.1773,4.1773,4.1773,4.2252,4.2791,4.326,4.329,4.329,4.329,4.329,4.329,4.329,4.329,4.329,4.329,4.329,4.329,4.329,4.329,4.329,4.329,4.329,4.329,4.329,4.329,4.4107,4.5304,4.5304,4.6112,4.7309,4.7309,4.7309,4.7309,3.8202,3.8202,3.8405,3.9073,3.945,3.9741,4.006,4.0118,4.0263,4.0554,4.1744,4.2557,4.2557,4.2847,4.2644,4.1686,4.1599,4.1453,4.1105,4.1105,4.1105,4.1105,4.1424,4.1599,4.1599,4.0931,4.0583,4.0583,3.9334,3.8696,3.8696,3.8347,3.8202,3.8202,3.8202,3.8202,3.8231,3.8551,3.9247,4.0147,4.0815,4.2063,4.3515,4.3863,4.4385,4.4937,4.4937,4.4531,4.3892,4.3224,4.215,0.0,0.0,4.0147,3.945,0.0,3.7841,3.7274,0.0,0.0,0.0,3.5427,0.0,0.0,0.0,3.4902,3.5053,0.0,0.0,0.0,0.0,0.0,0.0,0.0,0.0,0.0,0.0,0.0,0.0,0.0,0.0,0.0,0.0,4.1422,4.1422,4.1422,4.1722,4.2013,4.2342,4.2372,4.2521,4.2851,4.2851,4.3,4.329,4.329,4.329,4.329,4.329,4.329,4.329,4.329,4.329,4.329,4.329,4.329,4.329,4.329,4.3858,4.4825,4.5155,4.5933,4.686,4.7189,4.7309,4.7309,3.8202,3.8202,3.8405,3.9073,3.9683,4.0147,4.0263,4.0757,4.1192,4.1424,4.2934,4.3834,4.3398,4.3747,4.3689,4.2905,4.2382,4.2237,4.2615,4.2295,4.2092,4.2092,4.2092,4.2092,4.2092,4.1424,4.0757,4.0089,3.9509,3.887,3.8202,3.8202,3.8202,3.8202,3.8347,3.8405,3.8434,3.9102,3.9741,4.0292,4.0292,4.1686,4.3834,4.4066,4.4836,4.581,4.5972,4.5186,4.3978,4.3497,4.2449,4.1372,4.1215,4.0808,0.0,0.0,0.0,0.0,0.0,0.0,0.0,0.0,0.0,3.5385,0.0,0.0,0.0,0.0,0.0,0.0,0.0,0.0,0.0,0.0,0.0,0.0,0.0,0.0,0.0,0.0,0.0,0.0,0.0,4.0958,4.1017,4.1175,4.1175,4.1197,4.1384,4.1422,4.1662,4.2201,4.2321,4.265,4.315,4.323,4.329,4.329,4.329,4.329,4.329,4.329,4.329,4.329,4.329,4.329,4.329,4.329,4.3618,4.4197,4.4855,4.5603,4.6381,4.692,4.7189,4.7309,3.8202,3.8202,3.8405,3.9073,3.9683,4.0292,4.0902,4.1047,4.1512,4.2615,4.3485,4.4153,4.4618,4.4269,4.4385,4.5372,4.3398,4.2789,4.4472,4.3021,4.2092,4.2092,4.2092,4.2092,4.2092,4.1424,4.0757,4.0089,3.9509,3.887,3.8202,3.8202,3.8202,3.8231,3.8812,3.9102,3.9131,3.9741,4.0379,4.0989,4.0989,4.1831,0.0,4.4356,4.5055,4.5464,4.6241,4.5537,4.4294,0.0,4.3578,4.2401,0.0,4.1418,4.1361,0.0,0.0,0.0,0.0,0.0,0.0,0.0,3.6182,0.0,0.0,0.0,0.0,0.0,0.0,0.0,0.0,0.0,0.0,0.0,0.0,0.0,0.0,0.0,0.0,0.0,0.0,0.0,0.0,0.0,3.9675,4.0457,4.0338,4.0606,4.1354,4.1422,4.1414,4.1542,4.2081,4.244,4.25,4.303,4.329,4.329,4.329,4.329,4.329,4.329,4.329,4.329,4.329,4.329,4.329,4.329,4.3349,4.3469,4.4167,4.5214,4.6279,4.6369,4.68,4.7309,3.8202,3.8202,3.8405,3.9073,3.9421,3.9799,4.0408,4.1482,4.2382,4.2934,4.4211,4.5198,4.543,4.5227,4.514,4.5285,4.4008,4.3369,0.0,0.0,4.2092,4.2092,4.2092,4.2092,4.2092,4.1831,4.1337,4.067,4.0031,3.9392,3.8783,3.8376,3.8405,3.8783,3.9073,3.9392,3.977,4.0408,4.0844,4.1134,0.0,4.2005,0.0,4.3456,4.4327,4.5113,4.5464,4.4953,4.4151,0.0,4.3571,0.0,0.0,0.0,0.0,0.0,0.0,0.0,0.0,0.0,0.0,0.0,0.0,0.0,3.6295,0.0,3.574,0.0,0.0,0.0,0.0,0.0,0.0,0.0,0.0,0.0,0.0,0.0,0.0,0.0,0.0,0.0,0.0,0.0,0.0,0.0,0.0,3.9913,4.0786,4.0816,4.1175,4.1961,4.2261,4.259,4.291,4.314,4.329,4.329,4.329,4.329,4.329,4.329,4.329,4.329,4.329,4.329,4.329,4.329,4.329,4.3349,4.4047,4.4885,4.5813,4.6591,4.707,4.7309,3.8202,3.8202,3.8347,3.8841,3.9073,3.9392,4.0002,4.1453,4.2586,4.2934,4.4211,4.5372,4.6069,4.6156,4.6243,4.6446,4.5576,4.4821,0.0,0.0,4.2469,0.0,0.0,0.0,0.0,4.2092,4.1773,4.1105,4.0437,3.9799,3.9189,3.8522,3.8463,3.8957,3.9305,3.9683,4.0147,4.1018,4.1366,4.1424,4.1971,4.2216,4.2315,4.2969,4.3831,4.4749,4.4923,4.4586,4.4017,4.4242,4.3708,0.0,4.2625,0.0,0.0,0.0,0.0,0.0,4.1573,0.0,0.0,0.0,0.0,0.0,0.0,0.0,0.0,0.0,0.0,0.0,0.0,0.0,0.0,0.0,0.0,0.0,0.0,0.0,0.0,0.0,0.0,0.0,0.0,0.0,0.0,0.0,0.0,0.0,4.0098,4.0307,4.0846,4.1841,4.2201,4.262,4.306,4.32,4.329,4.329,4.325,4.325,4.329,4.325,4.325,4.329,4.329,4.329,4.329,4.329,4.325,4.33,4.4176,4.4762,4.5257,4.6548,4.716,4.7309,3.8202,3.8202,3.8202,3.8231,3.8783,3.9392,4.0002,4.0699,4.1599,4.2847,4.305,4.4037,4.6488,4.6749,0.0,0.0,0.0,4.7637,4.7637,0.0,4.3369,0.0,0.0,4.2092,0.0,0.0,0.0,4.1105,4.0437,3.9799,3.9189,3.8522,3.8202,3.8289,3.9509,4.0089,4.0176,4.1512,4.2063,4.2104,4.231,4.2514,4.2747,0.0,4.3948,4.4408,4.5042,0.0,0.0,4.4225,4.4276,0.0,0.0,0.0,0.0,0.0,0.0,0.0,0.0,0.0,0.0,4.0293,0.0,0.0,0.0,0.0,3.7641,0.0,0.0,0.0,0.0,0.0,3.516,3.4516,0.0,0.0,0.0,0.0,0.0,0.0,0.0,0.0,0.0,0.0,0.0,0.0,0.0,0.0,3.9403,4.0068,4.0427,4.0457,4.1722,4.241,4.244,4.303,4.329,4.329,4.313,4.313,4.329,4.313,4.313,4.329,4.329,4.329,4.329,4.329,4.321,4.3169,4.4477,4.4815,4.4735,4.5913,4.6741,4.7309,3.8202,3.8202,3.8202,3.8202,3.8405,3.8754,3.9421,4.0408,4.215,4.514,4.6272,0.0,0.0,5.1527,5.1788,0.0,0.0,4.9494,4.9107,4.665,0.0,0.0,0.0,4.2702,0.0,0.0,0.0,0.0,4.0437,3.9799,3.9189,3.8522,3.8434,3.887,3.9305,3.9973,4.0786,4.125,0.0,0.0,0.0,4.279,4.3348,0.0,0.0,4.3931,4.414,4.43,0.0,4.4686,4.4471,4.4043,4.3723,4.3637,4.3519,4.315,4.3319,0.0,0.0,0.0,4.3518,4.2494,0.0,0.0,0.0,0.0,0.0,0.0,0.0,0.0,0.0,0.0,3.5793,3.5189,3.5072,3.484,0.0,0.0,0.0,0.0,0.0,0.0,0.0,0.0,0.0,0.0,0.0,0.0,0.0,4.0547,4.1151,4.1722,4.2551,4.3,4.3,4.32,4.329,4.329,4.313,4.313,4.329,4.3061,4.313,4.329,4.317,4.313,4.3061,4.297,4.3116,4.3548,4.4406,4.4942,4.5371,4.6194,4.6709,4.7019,3.826,3.8202,3.8202,3.8202,3.8202,3.8434,3.9102,0.0,0.0,0.0,4.8895,0.0,5.4226,0.0,5.472,0.0,5.3878,5.2165,5.0211,4.8711,0.0,4.4966,4.4327,0.0,0.0,0.0,0.0,0.0,0.0,3.9886,3.9509,3.8609,3.8434,3.8841,3.9102,3.977,4.0757,4.0989,4.1482,0.0,0.0,4.2913,0.0,0.0,4.3264,4.3785,0.0,4.3808,4.4175,4.4329,4.4292,4.4084,4.3805,4.3717,4.3648,4.3498,4.3837,4.4377,4.4586,4.4893,0.0,4.3917,4.3407,0.0,4.1811,0.0,0.0,0.0,0.0,0.0,0.0,0.0,3.646,3.5793,3.5537,3.5189,0.0,3.4399,0.0,0.0,0.0,0.0,0.0,0.0,0.0,0.0,0.0,0.0,0.0,0.0,4.1364,4.1936,4.2841,4.325,4.321,4.321,4.321,4.321,4.293,4.293,4.321,4.3248,4.3367,4.3528,4.3645,4.3653,4.3571,4.3407,4.359,4.3978,4.4595,4.5008,4.5478,4.63,4.6668,4.68,3.8318,3.8202,3.8202,3.8231,3.826,3.8463,3.9131,0.0,4.6156,0.0,5.0917,5.3936,5.472,5.5852,5.6578,5.6607,5.7042,5.5533,5.1323,5.1468,0.0,0.0,4.5721,4.5401,4.4153,0.0,0.0,0.0,0.0,4.0089,4.0031,3.8783,3.8202,3.8231,3.887,3.9509,4.0147,4.0786,4.1453,4.2133,4.2555,4.296,4.3349,4.3319,4.3588,4.3972,4.3449,4.3319,4.3349,4.3349,4.3768,4.4197,4.3529,4.3738,4.4257,4.4257,4.4317,4.4496,4.5125,4.5334,4.5244,4.4586,0.0,0.0,0.0,0.0,4.2383,0.0,0.0,0.0,0.0,0.0,0.0,3.646,3.5822,3.5247,3.4603,0.0,0.0,0.0,0.0,0.0,0.0,0.0,0.0,0.0,0.0,0.0,0.0,0.0,4.1071,4.1109,4.2514,4.317,4.2981,4.2981,4.2981,4.2981,4.2625,4.2666,4.307,4.3519,4.3844,4.4039,4.4703,4.4803,4.4562,4.4562,4.4494,4.4368,4.4982,4.5084,4.5112,4.6168,4.6535,4.6565,3.8231,3.8202,3.8347,3.887,3.8957,3.916,0.0,0.0,0.0,0.0,5.3471,5.6461,5.8523,5.8639,5.8726,5.919,5.8058,0.0,0.0,0.0,0.0,5.0705,4.8526,4.6911,4.6127,4.456,0.0,4.2092,0.0,3.9857,3.9421,3.858,3.8202,3.8202,3.8376,3.9073,4.0118,4.0292,4.1139,4.2351,4.2596,4.3146,0.0,0.0,4.3668,4.4146,4.3529,4.3618,4.4047,4.4047,4.4167,4.4287,4.4107,4.3798,4.3559,4.3559,4.4287,4.5065,4.5244,4.6022,4.6621,4.592,4.5645,4.528,0.0,0.0,0.0,0.0,0.0,0.0,0.0,0.0,0.0,3.7244,3.6489,0.0,0.0,0.0,0.0,3.6954,0.0,0.0,0.0,0.0,0.0,0.0,0.0,0.0,0.0,0.0,0.0,4.0888,4.2169,4.2809,4.2769,4.2769,4.2769,4.2769,4.2984,4.3219,4.3537,4.3978,4.4272,4.4482,4.449,4.4422,4.4379,4.4237,4.437,4.4763,4.4909,4.5243,4.5707,4.6166,4.6225,4.612,3.8638,3.9073,3.9479,3.9567,0.0,0.0,4.2615,4.4705,0.0,5.1149,5.4894,0.0,5.8435,5.9742,6.0555,6.0642,5.9626,0.0,5.7536,0.0,0.0,5.2252,5.0423,4.8769,4.7288,4.5372,0.0,4.2498,0.0,3.9915,3.9567,3.8638,3.8202,3.8202,3.8522,3.9228,4.0334,4.0887,4.1679,4.2555,4.2648,0.0,0.0,4.3519,4.3708,4.4227,4.3529,4.3529,4.3888,4.4227,4.4317,4.4317,4.4317,4.4257,4.4257,4.4515,4.5155,4.5813,4.6082,4.6741,4.716,4.6501,4.6152,4.5845,4.5245,4.43,4.3448,0.0,0.0,0.0,0.0,0.0,0.0,0.0,0.0,0.0,0.0,0.0,0.0,0.0,0.0,0.0,0.0,0.0,0.0,0.0,0.0,0.0,0.0,0.0,0.0,4.0772,4.2385,4.3024,4.2596,4.282,4.2966,4.2966,4.3111,4.3462,4.3965,4.4526,4.4789,4.4875,4.5068,4.5098,4.4967,4.4865,4.5024,4.5314,4.5314,4.5547,4.594,4.6001,4.6001,4.594,3.9305,4.0205,4.0815,0.0,0.0,0.0,0.0,4.7404,0.0,5.1759,0.0,5.8116,5.6926,5.9742,6.1513,6.099,0.0,5.98,5.7071,5.7623,5.6316,5.2426,5.1846,5.0481,4.8072,4.604,0.0,0.0,0.0,4.0089,4.006,3.8783,3.8202,3.8231,3.8937,3.9751,0.0,4.1854,4.2474,4.2677,4.2777,4.3404,4.4216,4.3738,4.3917,4.4377,4.3858,4.3559,4.3499,4.4107,4.4317,4.4317,4.4407,4.4766,4.5304,4.5992,4.6219,4.6441,4.701,4.7189,4.704,4.6429,4.6092,4.5798,4.5341,4.43,4.3453,4.3661,4.2404,4.1233,0.0,0.0,0.0,0.0,0.0,0.0,0.0,0.0,0.0,0.0,0.0,0.0,0.0,0.0,0.0,0.0,0.0,0.0,0.0,0.0,0.0,4.0626,4.2691,0.0,4.2497,0.0,4.3215,4.339,4.3193,4.3584,4.4397,4.504,4.5332,4.5318,4.5917,4.6046,4.5895,4.5895,4.5895,4.5895,4.5895,4.5895,4.5895,4.5895,4.5924,4.6011,3.9828,4.0118,4.0408,0.0,0.0,4.6272,4.9427,5.263,5.4749,5.4749,5.7739,5.9597,5.8871,5.9393,5.9742,5.9655,5.9626,0.0,0.0,0.0,0.0,5.5591,5.3036,5.0917,4.9427,4.694,4.5082,0.0,0.0,4.0089,4.006,3.8783,3.8202,3.8231,3.906,4.0139,4.128,4.1867,0.0,4.2532,4.3237,4.3737,4.4132,4.4713,4.5035,4.5185,4.5633,4.5053,4.4167,4.4287,4.4317,4.4407,4.4945,4.4825,4.4616,4.5274,4.5873,4.6309,4.6471,4.6501,4.6429,4.6309,4.5861,4.5371,4.5126,4.4424,4.3856,4.3732,4.2896,4.2,4.1445,0.0,0.0,0.0,0.0,0.0,0.0,0.0,0.0,0.0,0.0,0.0,0.0,0.0,0.0,0.0,0.0,0.0,0.0,0.0,0.0,0.0,4.1807,0.0,0.0,0.0,4.2831,4.3877,4.3848,4.4167,4.4821,4.549,4.581,4.5766,4.5927,4.594,4.5895,4.5895,4.5895,4.5895,4.5895,4.5895,4.5895,4.5895,4.6214,4.665,4.0554,0.0,4.1918,0.0,0.0,0.0,0.0,5.5213,5.7187,5.5213,5.6287,5.7129,5.6839,5.829,5.9161,5.8813,5.8784,5.861,5.8261,5.71,5.5968,5.4952,5.3123,0.0,4.9233,4.7346,4.5605,4.3979,0.0,0.0,4.0089,3.9479,3.9015,3.8754,3.9974,4.0977,0.0,0.0,0.0,4.2625,4.3478,4.4198,4.4691,4.5143,4.5514,4.5813,4.5813,4.5603,4.5364,4.5364,4.5125,4.4945,4.5633,4.5843,4.5933,4.6232,4.6591,4.683,4.683,4.683,4.6741,4.6369,4.6082,4.5801,4.5717,4.4816,4.4068,4.4341,4.3396,4.2438,4.1994,4.1288,0.0,0.0,0.0,0.0,0.0,0.0,0.0,0.0,0.0,0.0,0.0,0.0,0.0,0.0,0.0,0.0,0.0,0.0,0.0,0.0,0.0,0.0,0.0,0.0,0.0,4.3979,4.4298,4.4792,4.543,4.575,4.5895,4.5895,4.5895,4.5895,4.5895,4.5895,4.5895,4.5895,4.5895,4.5895,4.5924,4.6243,4.6563,4.6778,4.1831,4.2702,0.0,0.0,4.8885,0.0,5.2281,5.5852,5.771,5.5591,5.5329,5.5329,5.5329,5.7565,5.8813,5.8145,5.8087,5.7623,5.649,5.6026,5.5097,5.3588,5.2659,5.1091,4.8769,4.7445,4.5953,0.0,0.0,0.0,0.0,4.0234,3.9954,0.0,0.0,0.0,0.0,0.0,4.2854,4.2994,4.4027,4.4858,4.5514,4.5663,4.6052,4.6471,4.5903,4.5992,4.6309,4.6429,4.6082,4.5633,4.6322,4.68,4.713,4.7279,4.7309,4.7309,4.7309,4.7219,4.698,4.6399,4.6202,4.6112,4.6112,4.5019,4.4221,4.4757,4.3719,4.2607,4.2392,4.1872,0.0,0.0,0.0,0.0,0.0,0.0,0.0,0.0,0.0,0.0,0.0,0.0,0.0,0.0,0.0,0.0,0.0,0.0,0.0,0.0,0.0,4.2222,4.2295,0.0,4.3921,0.0,4.4647,4.5227,4.5895,4.5895,4.5895,4.5895,4.5895,4.5895,4.5895,4.5895,4.5895,4.5895,4.5895,4.5982,4.6156,4.665,4.6952,4.7184,0.0,0.0,0.0,0.0,0.0,0.0,5.1701,5.4023,5.6287,5.7768,5.7942,5.7942,5.7942,5.8203,5.8116,5.7448,5.739,5.71,5.6461,5.4749,5.3704,5.353,5.1817,5.0191,4.8721,4.7445,4.6156,0.0,0.0,0.0,0.0,0.0,0.0,0.0,0.0,0.0,0.0,4.3048,4.3448,4.3732,4.5226,4.596,4.6249,4.689,4.716,4.7219,4.713,4.677,4.6369,4.701,4.677,4.6352,4.701,4.686,4.6488,4.713,4.7309,4.7309,4.7309,4.686,4.6411,4.6352,4.5843,4.5394,4.5394,4.4784,4.4306,4.4366,4.3475,4.2566,4.2216,4.2075,4.2046,0.0,0.0,0.0,0.0,0.0,0.0,0.0,0.0,0.0,0.0,0.0,0.0,0.0,0.0,0.0,0.0,0.0,0.0,4.0403,0.0,4.196,4.2905,4.3021,0.0,4.4821,4.485,4.5227,4.5895,4.5895,4.5895,4.5895,4.5895,4.5895,4.5895,4.5895,4.5895,4.5895,4.5895,4.6243,4.6691,4.6749,4.7503,4.8489,0.0,0.0,0.0,0.0,0.0,0.0,0.0,5.4517,5.5678,5.6461,5.6578,5.6723,5.7129,5.681,5.6461,5.62,5.5852,5.5358,5.472,5.3588,5.2775,5.2397,5.1294,4.9872,4.8188,4.7666,4.6563,0.0,0.0,0.0,0.0,0.0,0.0,0.0,0.0,4.2656,4.3394,4.3881,4.4167,4.4352,4.5679,4.6237,4.6339,4.704,4.7309,4.7309,4.7309,4.713,4.695,4.7219,4.686,4.6441,4.71,4.713,4.695,4.7219,4.7309,4.7309,4.7309,4.71,4.692,4.692,4.6711,4.6501,4.6501,4.5663,4.4915,4.4915,4.3916,4.293,4.2555,4.2555,4.2555,0.0,0.0,0.0,0.0,0.0,0.0,0.0,0.0,0.0,0.0,0.0,0.0,0.0,0.0,0.0,0.0,0.0,0.0,4.0364,0.0,4.1767,4.2992,4.3398,4.4037,4.4879,4.5285,4.5634,4.5895,4.5895,4.5895,4.5895,4.5895,4.5895,4.5895,4.5895,4.5895,4.5924,4.6301,4.6621,4.6865,4.7648,4.8228,4.8769,4.8391,0.0,4.9175,0.0,5.1759,5.2572,5.3762,5.4458,5.4865,5.4865,5.4865,5.5184,5.6026,5.5707,5.5329,5.5155,5.4749,5.4139,5.3297,5.263,5.202,5.1381,5.0714,0.0,4.8101,4.7869,4.7027,4.5459,4.4647,0.0,0.0,0.0,0.0,0.0,4.3282,4.3544,4.4051,4.4584,4.4814,4.5001,4.6066,4.6535,4.6681,4.713,4.7309,4.7309,4.7309,4.7309,4.7309,4.7309,4.701,4.6681,4.716,4.7309,4.7309,4.7309,4.7309,4.7309,4.7309,4.7309,4.7309,4.7309,4.7309,4.7309,4.7309,4.6262,4.5185,4.4713,4.3867,4.313,4.2769,4.2809,4.2809,4.2555,0.0,0.0,0.0,0.0,0.0,0.0,0.0,3.9973,3.887,0.0,0.0,0.0,0.0,0.0,0.0,0.0,0.0,0.0,0.0,0.0,0.0,4.366,4.4298,4.4908,4.5576,4.5895,4.5895,4.5895,4.5895,4.5895,4.5895,4.5895,4.5895,4.5895,4.5895,4.5953,4.6592,4.6894,4.723,4.8286,4.8827,4.9059,5.0133,5.0627,5.1083,5.2362,5.3065,5.3297,5.2688,5.3123,5.353,5.353,5.353,5.4023,5.5271,5.5416,5.5184,5.4575,5.4517,5.3965,5.271,5.1991,5.1352,0.0,0.0,4.9378,4.8663,4.8101,4.7462,4.6749,0.0,0.0,4.485,0.0,4.3979,4.3979,4.3979,4.3979,4.408,4.4909,4.5404,4.5679,4.6547,4.7062,4.7309,4.7309,4.7309,4.7309,4.7309,4.7309,4.7309,4.7309,4.7309,4.7309,4.7309,4.7309,4.7309,4.7309,4.7309,4.7309,4.7309,4.7309,4.7309,4.7309,4.7309,4.7309,4.7309,4.6262,4.4874,4.3358,4.301,4.2941,4.2729,4.2688,4.2688,4.2688,0.0,0.0,0.0,0.0,0.0,0.0,4.1076,4.0815,4.0147,0.0,0.0,0.0,0.0,0.0,0.0,0.0,0.0,4.1328,4.1226,0.0,4.2992,4.366,4.4298,4.4908,4.5576,4.5895,4.5895,4.5895,4.5895,4.5895,4.5895,4.5895,4.5895,4.5895,4.5895,4.5953,4.6592,4.7201,4.784,4.8478,4.9117,4.9717,5.1817,5.231,5.2746,5.3152,5.3007,5.2949,5.3181,5.3007,5.2862,5.2862,5.3239,5.35,5.3471,5.3849,5.4226,0.0,5.3704,5.3007,0.0,5.1556,5.0888,5.0685,4.9611,4.874,4.8101,4.7462,4.6824,4.6185,0.0,0.0,0.0,4.4066,4.4211,4.4589,4.4589,4.485,4.533,4.5756,4.6035,4.6329,4.6755,4.7062,4.7309,4.7309,4.7309,4.7309,4.7309,4.7309,4.7309,4.7309,4.7309,4.7309,4.7309,4.7309,4.7309,4.7309,4.7309,4.7309,4.7309,4.7309,4.7309,4.7309,4.7309,4.7309,4.7309,4.6621,4.5562,4.4206,4.3867,4.3707,4.303,4.301,4.305,4.293,4.2809,0.0,0.0,0.0,0.0,0.0,4.1105,4.0844,0.0,3.9915,0.0,0.0,0.0,0.0,0.0,0.0,0.0,0.0,4.1988,0.0,4.366,4.4298,4.4937,4.5576,4.5779,4.5895,4.5895,4.5895,4.5895,4.5895,4.5895,4.5895,4.5895,4.5895,4.6127,4.6592,4.723,4.7869,4.8508,4.9146,4.9494,4.9805,5.2165,5.2543,5.2717,5.2484,5.231,5.2281,5.2426,5.231,5.2223,5.2223,5.2543,5.2659,5.2252,5.2572,0.0,5.3733,5.3036,5.242,5.1955,5.0938,5.0307,5.0307,4.9291,4.8537,4.8159,0.0,0.0,4.6243,4.5576,4.5082,4.4705,4.4705,4.4908,4.5256,4.5256,4.5488,4.594,4.6046,4.6225,4.6447,4.6712,4.6931,4.7149,4.7266,4.7309,4.7309,4.7309,4.7309,4.7309,4.7309,4.7309,4.7309,4.7309,4.7309,4.7309,4.7309,4.7309,4.7309,4.7309,4.7309,4.7309,4.7309,4.7309,4.7249,4.698,4.6621,4.5891,4.4586,4.4317,4.4067,4.3289,4.321,4.325,4.313,4.301,4.289,4.2809,0.0,0.0,0.0,0.0,0.0,0.0,4.0651,0.0,0.0,0.0,0.0,0.0,0.0,0.0,4.1802,4.2586,0.0,4.4327,4.4705,4.5227,4.5895,4.5895,4.5895,4.5895,4.5895,4.5895,4.5895,4.5895,4.5895,4.5895,4.5895,4.6272,4.6836,4.7521,4.8159,4.8798,4.9436,4.9717,4.9834,5.1439,5.1614,0.0,0.0,5.1236,0.0,5.083,5.1207,5.1556,5.1556,5.1643,5.1643,5.1556,5.1643,5.1875,5.2397,0.0,0.0,0.0,5.0046,4.9717,4.9717,4.903,4.8682,4.8663,4.8014,4.7346,4.672,4.6185,4.5895,4.5895,4.5895,4.5895,4.5895,4.5895,4.5895,4.5895,4.5895,4.6001,4.6225,4.6447,4.6712,4.6931,4.7149,4.7266,4.7266,4.7309,4.7309,4.7309,4.7309,4.7309,4.7309,4.7309,4.7309,4.7309,4.7309,4.7309,4.7309,4.7309,4.7309,4.7309,4.7309,4.7309,4.716,4.6488,4.6339,4.6022,4.4736,4.4407,4.4167,4.3469,4.3319,4.329,4.329,4.329,4.321,4.3021,0.0,0.0,0.0,0.0,0.0,0.0,4.1634,4.1192,0.0,0.0,0.0,0.0,0.0,4.1773,4.2963,4.3079,4.3689,4.4879,4.4937,4.5256,4.5895,4.5895,4.5895,4.5895,4.5895,4.5895,4.5895,4.5895,4.5895,4.5895,4.5895,4.6272,4.6923,4.755,4.8188,4.8856,4.9465,4.9717,4.9834,0.0,0.0,5.2136,5.1497,5.1527,5.1556,5.141,5.112,5.0888,5.0888,5.173,5.1962,5.1004,5.1759,5.202,5.1207,5.117,5.1004,5.0685,5.0046,4.9717,4.9717,4.8595,4.8217,4.8663,4.7172,4.6272,4.6098,4.5953,4.5895,4.5895,4.5895,4.5895,4.5895,4.5895,4.5895,4.5895,4.5895,4.6001,4.6225,4.6269,4.6447,4.6668,4.6887,4.6975,4.7019,4.7222,4.7309,4.7309,4.7309,4.7309,4.7309,4.7309,4.7309,4.7309,4.7309,4.7309,4.7309,4.7309,4.7309,4.7309,4.7309,4.7309,4.7279,4.71,4.707,4.683,4.6022,4.5424,4.4855,4.4197,4.3648,4.329,4.329,4.317,4.3021,4.3021,4.289,0.0,0.0,4.2514,4.2392,4.2392,4.207,4.2063,0.0,0.0,0.0,0.0,4.2818,4.2673,4.2992,4.3921,4.4589,4.4879,4.5401,4.5721,4.5895,4.5895,4.5895,4.5895,4.5895,4.5895,4.5895,4.5895,4.5895,4.5895,4.5895,4.6563,4.7579,4.7724,4.8478,4.9465,4.9611,4.9717,4.9843,5.0162,5.0822,5.1149,5.0801,5.0743,5.0743,5.0743,5.0423,5.022,5.022,5.088,5.0975,5.0307,5.088,5.1025,5.0328,5.0481,5.0589,5.0249,4.9611,4.9378,4.9717,4.874,4.8362,4.8663,4.7433,4.6475,4.5895,4.5895,4.5895,4.5895,4.5895,4.5895,4.5895,4.5895,4.5895,4.5895,4.5895,4.5956,4.609,4.618,4.6314,4.6447,4.68,4.6931,4.6931,4.7062,4.7222,4.7266,4.7149,4.7222,4.7309,4.7309,4.7309,4.7309,4.7309,4.7309,4.7309,4.7309,4.7309,4.7309,4.7309,4.7309,4.7309,4.7309,4.7309,4.713,4.6471,4.6022,4.5574,4.4885,4.4227,4.3738,4.3738,4.3389,4.313,4.3021,4.301,0.0,4.285,4.2994,4.3119,4.3119,4.3094,4.3248,4.3568,0.0,0.0,4.395,4.4007,4.3949,4.3863,4.4531,4.5024,4.5343,4.5721,4.5895,4.5895,4.5895,4.5895,4.5895,4.5895,4.5895,4.5895,4.5895,4.5895,4.5895,4.6214,4.6882,4.7811,4.8101,4.8798,4.9717,4.9717,4.9717,4.9872,4.9378,4.9611,4.9669,4.9717,4.9756,4.9785,4.9746,4.9717,4.9717,4.9717,4.9805,4.9785,4.9746,4.9843,4.9901,4.9698,5.0278,5.0444,4.9727,4.9175,4.9117,4.9688,4.8972,4.8624,4.8663,4.8014,4.7056,4.5895,4.5895,4.5895,4.5895,4.5895,4.5895,4.5895,4.5895,4.5895,4.5895,4.5895,4.5895,4.594,4.609,4.618,4.6225,4.6624,4.68,4.68,4.6887,4.7019,4.7179,4.6975,4.7019,4.7222,4.7222,4.7266,4.7266,4.7309,4.7309,4.7309,4.7309,4.7309,4.7309,4.7309,4.7309,4.7309,4.7309,4.7309,4.716,4.6591,4.6339,4.6142,4.5574,4.4915,4.4436,4.4317,4.3798,4.3369,4.309,0.0,4.3399,4.3239,4.3764,4.4169,4.4098,4.4225,4.4352,4.4397,4.4309,4.4253,0.0,4.4851,4.5113,4.5024,4.5024,4.5314,4.5866,4.5895,4.5895,4.5895,4.5895,4.5924,4.6011,4.5924,4.5924,4.6011,4.5924,4.5895,4.5924,4.6563,4.7201,4.784,4.8478,4.9117,4.9717,4.9717,4.9717,4.9843,4.8653,4.932,4.9698,4.9669,5.0182,5.0336,4.9805,4.9717,4.9717,4.9717,5.0211,5.0307,4.9727,5.0656,5.0859,4.9756,5.0278,5.0444,4.9727,4.9582,4.9582,4.9717,4.8566,4.8188,4.8663,4.7579,4.6621,4.5895,4.5895,4.5895,4.5895,4.5895,4.5895,4.5895,4.5895,4.5895,4.5895,4.5895,4.5895,4.5895,4.5911,4.594,4.5956,4.6225,4.6314,4.6358,4.6756,4.68,4.6741,4.6844,4.68,4.6741,4.6887,4.6975,4.7019,4.7222,4.7309,4.7309,4.7309,4.7309,4.7309,4.7309,4.7309,4.7309,4.7309,4.7309,4.7279,4.7189,4.6711,4.6249,4.613,4.5603,4.4975,4.4407,4.4227,4.3917,4.3339,0.0,4.4127,4.4127,4.456,4.4739,4.4499,4.4363,4.4442,4.4792,4.4313,4.4487,4.5547,4.5184,4.5184,4.5721,4.5721,4.5779,4.5895,4.5895,4.5895,4.5895,4.5895,4.6156,4.665,4.6127,4.6185,4.665,4.6127,4.5895,4.5924,4.6563,4.7201,4.784,4.8478,4.9117,4.9717,4.9717,4.9717,4.9785,4.8101,4.903,4.9582,4.9233,4.9698,5.0095,4.9776,4.9717,4.9717,4.9717,4.9979,5.0211,5.022,5.0423,5.0627,5.0714,5.0685,5.0589,5.027,4.9921,4.9717,4.9717,4.9117,4.8624,4.8217,4.7317,4.6505,4.5895,4.5895,4.5895,4.5895,4.5895,4.5895,4.5895,4.5895,4.5895,4.5895,4.5895,4.5895,4.5895,4.5895,4.5895,4.594,4.6135,4.6225,4.6225,4.6447,4.6535,4.658,4.6535,4.6535,4.6653,4.6712,4.6712,4.6756,4.6917,4.7092,4.7266,4.7106,4.7222,4.7266,4.7106,4.7222,4.7309,4.7309,4.7309,4.7309,4.7309,4.707,4.686,4.686,4.6292,4.5753,4.5454,4.5095,0.0,0.0,4.4512,4.4608,4.4454,4.4993,4.525,4.5165,4.5272,4.5464,4.5801,4.5346,4.5345,4.6016,4.5665,4.5576,4.5866,4.5895,4.5895,4.5895,4.5895,4.5895,4.5895,4.5895,4.6214,4.6778,4.6534,4.6563,4.6749,4.6534,4.6388,4.6446,4.7085,4.7724,4.8362,4.9001,4.9407,4.9717,4.9717,4.9717,4.9834,4.7724,4.8613,4.9175,4.8972,4.9349,4.9717,4.9717,4.9717,4.9717,4.9717,4.9717,4.9979,5.0647,5.0336,5.054,5.1527,5.1323,5.1112,5.0917,5.0423,4.9988,4.9746,4.9524,4.8856,4.7579,4.7085,4.6505,4.5895,4.5895,4.5895,4.5895,4.5895,4.5895,4.5895,4.5895,4.5895,4.5895,4.5895,4.5895,4.5895,4.5895,4.5895,4.594,4.609,4.6135,4.6135,4.618,4.6314,4.6403,4.6269,4.6314,4.6476,4.6491,4.6491,4.6491,4.658,4.6873,4.7092,4.6887,4.6975,4.7092,4.6931,4.7019,4.7179,4.7266,4.7266,4.7222,4.7309,4.7309,4.7309,4.7309,4.689,4.6459,4.6309,0.0,0.0,0.0,4.5119,4.5166,4.4955,4.5588,4.5973,4.5886,4.6153,4.6358,4.6491,4.6135,4.5956,4.6135,4.5956,4.5895,4.5895,4.5895,4.5895,4.5895,4.5895,4.5895,4.5895,4.5895,4.6301,4.7056,4.6865,4.6952,4.7213,4.7068,4.7056,4.7085,4.7724,4.8275,4.8798,4.9436,4.9717,4.9717,4.9717,4.9717,4.9756,4.755,4.7869,4.8275,4.9407,4.9688,4.9717,4.9717,4.9717,4.9717,4.9717,4.9717,4.9979,5.0647,5.1149,5.1527,5.1614,5.2107,5.2165,5.1585,5.1497,5.0946,4.9727,4.9117,4.817,4.6865,4.6807,4.6505,4.5895,4.5895,4.5895,4.5895,4.5895,4.5895,4.5895,4.5895,4.5895,4.5895,4.5895,4.5895,4.5895,4.5895,4.5895,4.5895,4.594,4.594,4.594,4.6135,4.609,4.5985,4.6135,4.609,4.5956,4.618,4.6225,4.6269,4.6535,4.6624,4.6653,4.6653,4.6653,4.6668,4.6844,4.6756,4.6785,4.7222,4.7106,4.7019,4.7266,4.7309,4.7309,4.7309,4.7279,4.704,4.6369,0.0,0.0,4.509,4.5535,4.5921,4.5878,4.6658,4.7089,4.6798,4.6638,4.6491,4.6269,4.6001,4.594,4.594,4.594,4.5895,4.5895,4.5895,4.5895,4.5895,4.5895,4.5895,4.5895,4.5895,4.6534,4.7695,4.7085,4.7416,4.8566,4.7956,4.7724,4.7753,4.8391,4.8682,4.8798,4.9436,4.9717,4.9717,4.9717,4.9717,4.9746,4.6679,4.7869,4.8856,4.8613,4.9194,4.9717,4.9717,4.9717,4.9717,4.9717,4.9717,4.9979,5.0647,5.0888,5.1352,5.2136,5.2426,5.2507,5.2223,5.2223,5.1643,5.0415,4.9291,4.846,4.7967,4.7608,4.7288,4.7056,4.665,4.6475,4.6475,4.6069,4.5895,4.5895,4.5895,4.5895,4.5895,4.5895,4.5895,4.5895,4.5895,4.5895,4.5895,4.5895,4.5895,4.594,4.6001,4.5956,4.594,4.6001,4.5956,4.594,4.6001,4.6001,4.6001,4.6164,4.6164,4.6164,4.6164,4.6387,4.658,4.6491,4.6919,4.7437,4.7614,4.7702,4.782,4.7908,4.7578,4.7309,4.7309,4.7149,4.6973,4.6691,0.0,4.6442,4.6075,4.634,4.6444,4.6182,4.6432,4.6535,4.6314,4.618,4.618,4.6225,4.6001,4.5956,4.609,4.5956,4.5895,4.5895,4.5895,4.5895,4.5895,4.5895,4.5895,4.5895,4.6272,4.694,4.7782,4.7927,4.8228,4.8663,4.8478,4.8362,4.8391,4.8624,4.8972,4.9349,4.9582,4.9717,4.9717,4.9717,4.993,5.027,4.633,4.7753,4.8856,4.8188,4.8972,4.9717,4.9717,4.9717,4.9717,4.9717,4.9717,5.0017,5.0888,5.0975,5.1497,5.2746,5.2862,5.2862,5.2862,5.2484,5.1788,5.0763,4.9814,4.9146,4.8692,4.8304,4.7985,4.7782,4.7346,4.7027,4.6778,4.6592,4.6359,4.6185,4.6388,4.6359,4.6185,4.6185,4.6069,4.5895,4.5895,4.5895,4.5895,4.5895,4.5895,4.5895,4.5895,4.5895,4.5895,4.5895,4.6011,4.6185,4.6185,4.633,4.6475,4.6475,4.6475,4.6475,4.6475,4.6748,4.6871,4.6576,4.7195,4.7834,4.7807,4.8015,4.8194,4.806,4.7688,4.7346,4.7346,4.708,4.68,4.68,4.6756,4.6624,4.6491,4.658,4.658,4.6269,4.6269,4.6269,4.6135,4.6046,4.6046,4.6225,4.6001,4.5956,4.609,4.5956,4.5895,4.5895,4.6069,4.6185,4.6185,4.6185,4.6185,4.6185,4.6824,4.7462,4.8101,4.8537,4.8827,4.903,4.903,4.903,4.903,4.903,4.9291,4.9717,4.9717,4.9717,4.9717,4.9717,5.0104,5.0598,4.6662,4.7346,4.7985,4.8624,4.9233,4.9717,4.9717,4.9717,4.9717,4.9717,4.9717,5.0162,5.1468,5.1614,5.2107,5.3384,5.35,5.35,5.35,5.2339,5.1352,5.0714,5.0734,5.0046,4.8769,4.8692,4.842,4.7782,4.7782,4.7462,4.6807,4.7491,4.7433,4.6807,4.7491,4.7433,4.6778,4.6778,4.6475,4.5895,4.5895,4.5895,4.5895,4.5895,4.5895,4.5895,4.5895,4.5895,4.5895,4.5895,4.6301,4.6778,4.6778,4.7259,4.7782,4.7782,4.7782,4.7782,4.7782,4.7782,4.773,4.7303,4.7503,4.7748,4.7593,4.7825,4.7997,4.7609,4.7507,4.7507,4.7507,4.7022,4.6609,4.6609,4.6358,4.6225,4.6225,4.6225,4.6225,4.6225,4.6447,4.6609,4.6609,4.6358,4.6225,4.6225,4.603,4.5895,4.5895,4.5895,4.5895,4.5895,4.6505,4.6778,4.6778,4.6778,4.6778,4.6807,4.7491,4.813,4.8663,4.8663,4.9088,4.9717,4.9717,4.9717,4.9717,4.9717,4.9717,4.9717,4.9717,4.9717,4.9717,4.9717,5.0153,5.0685,4.6214,4.7404,4.8362,4.8101,4.8943,4.9717,4.9717,4.9717,4.9717,4.9717,4.9717,4.9814,5.022,5.0685,5.1294,5.2107,5.2601,5.3036,5.3471,5.3152,5.2455,5.1381,5.0452,4.9785,4.9407,4.9378,4.9291,4.9117,4.8653,4.8333,4.8112,4.7898,4.7666,4.7491,4.7695,4.7433,4.6778,4.6778,4.6475,4.5895,4.5895,4.5895,4.5895,4.5895,4.5895,4.5895,4.5895,4.5895,4.5895,4.5895,4.6301,4.6865,4.7346,4.7637,4.7782,4.7782,4.7782,4.7782,4.7782,4.8101,4.8304,4.7759,4.8144,4.8723,4.8659,4.8517,4.8374,4.8214,4.7831,4.7507,4.7507,4.7225,4.7017,4.7017,4.6562,4.6135,4.6001,4.6269,4.6358,4.6001,4.618,4.6269,4.609,4.6046,4.6159,4.6596,4.7015,4.7201,4.7201,4.7201,4.6998,4.6563,4.7172,4.7288,4.6778,4.7288,4.7288,4.6807,4.7927,4.8304,4.8101,4.8972,4.9494,4.9717,4.9717,4.9717,4.9717,4.9717,4.9717,4.9717,4.9717,4.9717,4.9717,4.9717,5.0365,5.1265,4.6708,4.7753,4.8595,4.8217,4.9001,4.9717,4.9717,4.9717,4.9717,4.9717,4.9717,4.9834,5.0095,5.0656,5.1294,5.1933,5.2572,5.3094,5.35,5.3297,5.2804,5.202,5.1004,5.022,4.9746,4.9717,4.9717,4.9717,4.9291,4.8972,4.8663,4.8595,4.8391,4.8159,4.842,4.8188,4.7532,4.7317,4.6824,4.6243,4.5982,4.604,4.6272,4.6272,4.6417,4.6592,4.6359,4.6272,4.6272,4.6272,4.6853,4.7648,4.8333,4.8537,4.8537,4.8537,4.8537,4.8537,4.8537,4.8798,4.9001,4.8624,4.8941,4.927,4.9008,4.8957,4.8817,4.8336,4.788,4.7528,4.7294,4.694,4.6791,4.6978,4.6687,4.6467,4.6637,4.6894,4.694,4.6695,4.6758,4.667,4.6272,4.6505,4.6795,4.7172,4.755,4.7782,4.7782,4.7782,4.7608,4.723,4.7811,4.7956,4.7532,4.8217,4.8217,4.7532,4.8624,4.8914,4.8566,4.932,4.9717,4.9717,4.9717,4.9814,5.0046,4.9785,4.9892,5.0095,4.9834,4.9717,4.9717,4.9717,5.0511,5.1556,4.7782,4.8304,4.8663,4.8663,4.9233,4.9717,4.9717,4.9727,4.9805,4.9805,4.9805,5.0017,5.0685,5.1207,5.1817,5.2565,5.3152,5.35,5.35,5.2978,5.2681,5.2623,5.202,5.1091,4.9785,4.9805,4.9776,4.9717,4.9717,4.9378,4.8827,4.9407,4.9349,4.8827,4.9407,4.932,4.8682,4.8101,4.7462,4.672,4.6214,4.633,4.6778,4.672,4.7172,4.7695,4.7056,4.6807,4.6865,4.6923,4.7677,4.8769,4.9465,4.9717,4.9717,4.9717,4.9717,4.9717,4.9717,4.9717,4.9717,4.9717,4.9717,4.9524,4.8943,4.9204,4.9262,4.8101,4.7869,4.7695,4.7068,4.6534,4.633,4.6865,4.6894,4.7114,4.7695,4.7782,4.7753,4.7695,4.7695,4.7433,4.6749,4.7375,4.7811,4.7869,4.7927,4.7956,4.7956,4.7956,4.7927,4.7869,4.8478,4.8769,4.8663,4.9349,4.9349,4.8692,4.9378,4.9688,4.9582,4.964,4.9717,4.9717,4.9727,5.0153,5.0627,5.0017,5.0182,5.0598,4.993,4.9717,4.9717,4.9717,5.0511,5.1643,4.7782,4.8304,4.8663,4.8663,4.9233,4.9717,4.9717,5.0182,5.0502,5.0502,5.0502,5.0714,5.1352,5.1091,5.1323,5.2507,5.3152,5.35,5.35,5.3384,5.3094,5.2652,5.2426,5.1759,5.0481,5.0502,5.024,4.9717,4.9717,4.9611,4.9465,4.9611,4.9611,4.9465,4.9611,4.932,4.8663,4.8566,4.7869,4.6778,4.6633,4.6662,4.672,4.6272,4.6795,4.7695,4.7056,4.7143,4.7666,4.8159,4.8159,4.8188,4.932,4.9717,4.9717,4.9717,4.9717,4.9717,4.9717,4.9717,4.9717,4.9717,4.9717,4.964,4.9494,4.9175,4.8856,4.8566,4.8508,4.8478,4.8286,4.8188,4.8159,4.8304,4.7898,4.7608,4.7753,4.7782,4.7608,4.7085,4.7027,4.6795,4.6156,4.7114,4.7985,4.8478,4.8972,4.9311,4.9311,4.9311,4.903,4.8537,4.9146,4.9233,4.874,4.9349,4.9349,4.8692,4.9378,4.9407,4.8943,4.9436,4.9717,4.9698,5.027,5.0589,5.0705,5.0511,5.0589,5.0598,4.993,4.9717,4.9717,4.9717,5.0511,5.1759,4.8729,4.8943,4.9175,4.9175,4.9465,4.9785,5.0104,5.0452,5.0772,5.1091,5.112,5.1265,5.1585,5.1585,5.1962,5.2949,5.3326,5.35,5.35,5.35,5.3355,5.3036,5.3007,5.2572,5.1664,5.1635,5.0996,4.9717,4.9717,4.9717,4.9717,4.9717,4.9717,4.9717,4.9717,4.932,4.8663,4.8391,4.7724,4.6749,4.6505,4.6563,4.6749,4.6475,4.7114,4.8159,4.7521,4.7695,4.8275,4.8624,4.8711,4.8798,4.9514,4.9717,4.9717,4.9717,4.9717,4.9717,4.9717,4.9717,4.9717,4.9717,4.9717,4.9717,4.9717,4.9407,4.9088,4.8798,4.8663,4.8624,4.8333,4.8275,4.8362,4.8682,4.8449,4.8333,4.8653,4.8729,4.8566,4.8217,4.8188,4.8072,4.7724,4.8014,4.8508,4.9117,4.9494,4.9717,4.9717,4.9717,4.9524,4.9175,4.9494,4.9524,4.9175,4.9494,4.9494,4.9175,4.9524,4.9494,4.9175,4.9524,4.9843,5.0211,5.056,5.083,5.112,5.112,5.0946,5.0705,5.0278,5.0008,4.9746,5.0095,5.0975,5.2223,4.9669,4.9717,4.9746,4.9814,4.9892,5.0075,5.0743,5.0917,5.1178,5.1701,5.1788,5.1817,5.1933,5.2426,5.2949,5.3471,5.35,5.35,5.35,5.35,5.35,5.35,5.35,5.321,5.2623,5.2507,5.1606,4.9892,4.9892,4.9785,4.9717,4.9717,4.9717,4.9717,4.9717,4.9378,4.8856,4.8333,4.7666,4.6969,4.6534,4.6621,4.6923,4.6807,4.7695,4.8798,4.8043,4.8188,4.874,4.8856,4.9175,4.9524,4.964,4.9717,4.9717,4.9717,4.9717,4.9717,4.9717,4.9717,4.9746,4.9814,4.9756,4.9698,4.9814,4.9805,4.9524,4.9001,4.8885,4.874,4.8188,4.8101,4.8275,4.8798,4.8885,4.9059,4.9611,4.9717,4.964,4.9524,4.9407,4.9407,4.9494,4.903,4.9001,4.964,4.9717,4.9717,4.9717,4.9717,4.9717,4.9717,4.9717,4.9717,4.9717,4.9717,4.9717,4.9717,4.9834,4.9892,4.9892,4.9892,5.022,5.083,5.0946,5.1294,5.1788,5.1788,5.1468,5.0975,5.0888,5.0481,5.0104,5.0793,5.1722,5.271,4.9522,4.9717,4.9892,5.0423,5.054,5.0743,5.1381,5.1962,5.2391,5.2426,5.2426,5.2659,5.321,5.3326,5.3413,5.35,5.35,5.35,5.35,5.35,5.35,5.35,5.35,5.321,5.2623,5.202,5.1352,5.054,5.054,5.0299,4.9717,4.9717,4.9717,4.9717,4.9717,4.964,4.9553,4.9514,4.874,4.7695,4.8159,4.8072,4.7579,4.7027,4.7956,4.9378,4.8188,4.8188,4.8798,4.9349,4.9233,4.8943,4.9494,4.9717,4.9717,4.9717,4.9717,4.9717,4.9717,4.9717,4.9814,5.0394,5.0104,4.9814,5.0394,5.0153,4.964,4.9553,4.9553,4.9524,4.9436,4.9407,4.9436,4.9524,4.9553,4.9582,4.9717,4.9717,4.9465,4.8914,4.8362,4.8246,4.8798,4.8769,4.9001,4.964,4.9717,4.9717,4.9717,4.9717,4.9717,4.9717,4.9717,4.9717,4.9717,4.9717,4.9717,4.9746,5.0328,5.054,5.054,5.054,5.0888,5.1527,5.2078,5.242,5.2426,5.2426,5.2449,5.2304,5.1701,5.1439,5.1439,5.2078,5.2478,5.271,4.9029,4.8981,4.9266,5.0933,5.0598,5.0569,5.1933,5.2078,5.2281,5.3007,5.3094,5.321,5.3471,5.35,5.35,5.35,5.35,5.35,5.35,5.35,5.35,5.35,5.35,5.3384,5.3094,5.2833,5.2194,5.1207,5.0481,5.0008,4.9717,4.9717,4.9717,4.9717,4.9717,4.9465,4.9146,4.9146,4.8624,4.7811,4.8072,4.8043,4.7753,4.7462,4.8101,4.9117,4.8914,4.903,4.9291,4.9582,4.9494,4.9291,4.9582,4.9717,4.9717,4.9717,4.9717,4.9717,4.9717,4.9717,4.9805,5.0095,5.0211,5.0357,5.0598,5.0714,5.054,4.9814,4.9717,4.9717,4.9717,4.9717,4.9717,4.9717,4.9717,4.9717,4.9717,4.9717,4.9582,4.9291,4.9001,4.8943,4.9233,4.9262,4.9378,4.9688,4.9717,4.9717,4.9717,4.9717,4.9717,4.9717,4.9717,4.9717,4.9717,4.9717,4.9921,5.0249,5.0589,5.0734,5.0685,5.1033,5.1556,5.2165,5.2455,5.2623,5.2652,5.2949,5.2688,5.202,5.173,5.1614,5.1643,5.1933,5.2484,5.3123]}]]